<?xml version="1.0" encoding="UTF-8" standalone="no" ?>
<gpx xmlns="http://www.topografix.com/GPX/1/1" xmlns:xsi="http://www.w3.org/2001/XMLSchema-instance" xsi:schemaLocation="http://www.topografix.com/GPX/1/1 http://www.topografix.com/GPX/1/1/gpx.xsd" version="1.1" creator="VisuGPX - https://www.visugpx.com">
  <metadata>
    <name>Boucles autour du Puy Mary</name>
    <desc><![CDATA[Projets été 2020]]></desc>
  </metadata>
  <trk>
    <name><![CDATA[Parcours 46 rouge - Cirque de la Petite Rhue sur TraceDeTrail.fr]]></name>
    <trkseg>
      <trkpt lat="45.15886" lon="2.70582">
        <ele>1039</ele>
        <time>2000-01-01T02:18:36.000Z</time>
      </trkpt>
      <trkpt lat="45.15883" lon="2.70597">
        <ele>1037.2</ele>
        <time>2000-01-01T02:18:46.000Z</time>
      </trkpt>
      <trkpt lat="45.15876" lon="2.70623">
        <ele>1038</ele>
        <time>2000-01-01T02:18:56.000Z</time>
      </trkpt>
      <trkpt lat="45.15874" lon="2.7063">
        <ele>1036.7</ele>
        <time>2000-01-01T02:19:06.000Z</time>
      </trkpt>
      <trkpt lat="45.15873" lon="2.70634">
        <ele>1036.6</ele>
        <time>2000-01-01T02:19:16.000Z</time>
      </trkpt>
      <trkpt lat="45.15869" lon="2.70641">
        <ele>1036.6</ele>
        <time>2000-01-01T02:19:26.000Z</time>
      </trkpt>
      <trkpt lat="45.15859" lon="2.70652">
        <ele>1038</ele>
        <time>2000-01-01T02:19:36.000Z</time>
      </trkpt>
      <trkpt lat="45.15849" lon="2.70664">
        <ele>1036.7</ele>
        <time>2000-01-01T02:19:46.000Z</time>
      </trkpt>
      <trkpt lat="45.15833" lon="2.70682">
        <ele>1038</ele>
        <time>2000-01-01T02:19:56.000Z</time>
      </trkpt>
      <trkpt lat="45.15826" lon="2.7069">
        <ele>1036.6</ele>
        <time>2000-01-01T02:20:06.000Z</time>
      </trkpt>
      <trkpt lat="45.15824" lon="2.70692">
        <ele>1036.6</ele>
        <time>2000-01-01T02:20:16.000Z</time>
      </trkpt>
      <trkpt lat="45.1582" lon="2.70695">
        <ele>1036.5</ele>
        <time>2000-01-01T02:20:26.000Z</time>
      </trkpt>
      <trkpt lat="45.15819" lon="2.70697">
        <ele>1036.5</ele>
        <time>2000-01-01T02:20:36.000Z</time>
      </trkpt>
      <trkpt lat="45.15815" lon="2.70702">
        <ele>1038</ele>
        <time>2000-01-01T02:20:46.000Z</time>
      </trkpt>
      <trkpt lat="45.15809" lon="2.70713">
        <ele>1036.3</ele>
        <time>2000-01-01T02:20:56.000Z</time>
      </trkpt>
      <trkpt lat="45.15796" lon="2.7074">
        <ele>1038</ele>
        <time>2000-01-01T02:21:06.000Z</time>
      </trkpt>
      <trkpt lat="45.15773" lon="2.70787">
        <ele>1039</ele>
        <time>2000-01-01T02:21:16.000Z</time>
      </trkpt>
      <trkpt lat="45.15755" lon="2.70825">
        <ele>1042</ele>
        <time>2000-01-01T02:21:26.000Z</time>
      </trkpt>
      <trkpt lat="45.15751" lon="2.70837">
        <ele>1041.2</ele>
        <time>2000-01-01T02:21:36.000Z</time>
      </trkpt>
      <trkpt lat="45.15749" lon="2.70841">
        <ele>1042.5</ele>
        <time>2000-01-01T02:21:46.000Z</time>
      </trkpt>
      <trkpt lat="45.15746" lon="2.7085">
        <ele>1044</ele>
        <time>2000-01-01T02:21:56.000Z</time>
      </trkpt>
      <trkpt lat="45.15742" lon="2.70855">
        <ele>1044.5</ele>
        <time>2000-01-01T02:22:06.000Z</time>
      </trkpt>
      <trkpt lat="45.15735" lon="2.70866">
        <ele>1045.5</ele>
        <time>2000-01-01T02:22:16.000Z</time>
      </trkpt>
      <trkpt lat="45.15722" lon="2.70881">
        <ele>1048</ele>
        <time>2000-01-01T02:22:26.000Z</time>
      </trkpt>
      <trkpt lat="45.15721" lon="2.70882">
        <ele>1046.6</ele>
        <time>2000-01-01T02:22:36.000Z</time>
      </trkpt>
      <trkpt lat="45.15711" lon="2.7089">
        <ele>1047.1</ele>
        <time>2000-01-01T02:22:46.000Z</time>
      </trkpt>
      <trkpt lat="45.15693" lon="2.70896">
        <ele>1050</ele>
        <time>2000-01-01T02:22:56.000Z</time>
      </trkpt>
      <trkpt lat="45.15684" lon="2.70899">
        <ele>1048.7</ele>
        <time>2000-01-01T02:23:06.000Z</time>
      </trkpt>
      <trkpt lat="45.15669" lon="2.70912">
        <ele>1054</ele>
        <time>2000-01-01T02:23:16.000Z</time>
      </trkpt>
      <trkpt lat="45.15651" lon="2.70929">
        <ele>1056</ele>
        <time>2000-01-01T02:23:26.000Z</time>
      </trkpt>
      <trkpt lat="45.15637" lon="2.70947">
        <ele>1058</ele>
        <time>2000-01-01T02:23:36.000Z</time>
      </trkpt>
      <trkpt lat="45.15627" lon="2.70957">
        <ele>1057.9</ele>
        <time>2000-01-01T02:23:46.000Z</time>
      </trkpt>
      <trkpt lat="45.15619" lon="2.70963">
        <ele>1061</ele>
        <time>2000-01-01T02:23:56.000Z</time>
      </trkpt>
      <trkpt lat="45.15612" lon="2.70964">
        <ele>1058.9</ele>
        <time>2000-01-01T02:24:06.000Z</time>
      </trkpt>
      <trkpt lat="45.15601" lon="2.70966">
        <ele>1059.6</ele>
        <time>2000-01-01T02:24:16.000Z</time>
      </trkpt>
      <trkpt lat="45.15595" lon="2.7097">
        <ele>1062</ele>
        <time>2000-01-01T02:24:26.000Z</time>
      </trkpt>
      <trkpt lat="45.15591" lon="2.70975">
        <ele>1061</ele>
        <time>2000-01-01T02:24:36.000Z</time>
      </trkpt>
      <trkpt lat="45.15589" lon="2.70982">
        <ele>1062.1</ele>
        <time>2000-01-01T02:24:46.000Z</time>
      </trkpt>
      <trkpt lat="45.1559" lon="2.70994">
        <ele>1065</ele>
        <time>2000-01-01T02:24:56.000Z</time>
      </trkpt>
      <trkpt lat="45.15591" lon="2.71008">
        <ele>1066.6</ele>
        <time>2000-01-01T02:25:06.000Z</time>
      </trkpt>
      <trkpt lat="45.15591" lon="2.71016">
        <ele>1066.7</ele>
        <time>2000-01-01T02:25:16.000Z</time>
      </trkpt>
      <trkpt lat="45.15585" lon="2.71029">
        <ele>1068</ele>
        <time>2000-01-01T02:25:26.000Z</time>
      </trkpt>
      <trkpt lat="45.15584" lon="2.71032">
        <ele>1067.3</ele>
        <time>2000-01-01T02:25:36.000Z</time>
      </trkpt>
      <trkpt lat="45.15578" lon="2.71044">
        <ele>1073.7</ele>
        <time>2000-01-01T02:25:46.000Z</time>
      </trkpt>
      <trkpt lat="45.15574" lon="2.71058">
        <ele>1072</ele>
        <time>2000-01-01T02:25:56.000Z</time>
      </trkpt>
      <trkpt lat="45.1557" lon="2.71074">
        <ele>1075.2</ele>
        <time>2000-01-01T02:26:06.000Z</time>
      </trkpt>
      <trkpt lat="45.15569" lon="2.71087">
        <ele>1076</ele>
        <time>2000-01-01T02:26:16.000Z</time>
      </trkpt>
      <trkpt lat="45.15567" lon="2.71099">
        <ele>1080.1</ele>
        <time>2000-01-01T02:26:26.000Z</time>
      </trkpt>
      <trkpt lat="45.15562" lon="2.7111">
        <ele>1081.4</ele>
        <time>2000-01-01T02:26:36.000Z</time>
      </trkpt>
      <trkpt lat="45.15559" lon="2.71114">
        <ele>1081</ele>
        <time>2000-01-01T02:26:46.000Z</time>
      </trkpt>
      <trkpt lat="45.15555" lon="2.71118">
        <ele>1082.3</ele>
        <time>2000-01-01T02:26:56.000Z</time>
      </trkpt>
      <trkpt lat="45.15551" lon="2.71124">
        <ele>1082.9</ele>
        <time>2000-01-01T02:27:06.000Z</time>
      </trkpt>
      <trkpt lat="45.15537" lon="2.71138">
        <ele>1086</ele>
        <time>2000-01-01T02:27:16.000Z</time>
      </trkpt>
      <trkpt lat="45.15531" lon="2.71147">
        <ele>1085.2</ele>
        <time>2000-01-01T02:27:26.000Z</time>
      </trkpt>
      <trkpt lat="45.15528" lon="2.71155">
        <ele>1085.8</ele>
        <time>2000-01-01T02:27:36.000Z</time>
      </trkpt>
      <trkpt lat="45.15523" lon="2.71161">
        <ele>1092</ele>
        <time>2000-01-01T02:27:46.000Z</time>
      </trkpt>
      <trkpt lat="45.1551" lon="2.71171">
        <ele>1090.9</ele>
        <time>2000-01-01T02:27:56.000Z</time>
      </trkpt>
      <trkpt lat="45.15501" lon="2.71179">
        <ele>1097</ele>
        <time>2000-01-01T02:28:06.000Z</time>
      </trkpt>
      <trkpt lat="45.15494" lon="2.71187">
        <ele>1097.2</ele>
        <time>2000-01-01T02:28:16.000Z</time>
      </trkpt>
      <trkpt lat="45.15486" lon="2.71201">
        <ele>1099</ele>
        <time>2000-01-01T02:28:26.000Z</time>
      </trkpt>
      <trkpt lat="45.15484" lon="2.71202">
        <ele>1099.2</ele>
        <time>2000-01-01T02:28:36.000Z</time>
      </trkpt>
      <trkpt lat="45.1548" lon="2.71193">
        <ele>1099</ele>
        <time>2000-01-01T02:28:46.000Z</time>
      </trkpt>
      <trkpt lat="45.1548" lon="2.71193">
        <ele>1099</ele>
        <time>2000-01-01T02:28:56.000Z</time>
      </trkpt>
      <trkpt lat="45.15484" lon="2.71202">
        <ele>1099.2</ele>
        <time>2000-01-01T02:29:06.000Z</time>
      </trkpt>
      <trkpt lat="45.15479" lon="2.71207">
        <ele>1099</ele>
        <time>2000-01-01T02:29:16.000Z</time>
      </trkpt>
      <trkpt lat="45.15478" lon="2.71207">
        <ele>1099.9</ele>
        <time>2000-01-01T02:29:26.000Z</time>
      </trkpt>
      <trkpt lat="45.15474" lon="2.71206">
        <ele>1100.1</ele>
        <time>2000-01-01T02:29:36.000Z</time>
      </trkpt>
      <trkpt lat="45.1547" lon="2.71202">
        <ele>1100.3</ele>
        <time>2000-01-01T02:29:46.000Z</time>
      </trkpt>
      <trkpt lat="45.15465" lon="2.71191">
        <ele>1100.3</ele>
        <time>2000-01-01T02:29:56.000Z</time>
      </trkpt>
      <trkpt lat="45.15461" lon="2.71159">
        <ele>1098</ele>
        <time>2000-01-01T02:30:06.000Z</time>
      </trkpt>
      <trkpt lat="45.15455" lon="2.71132">
        <ele>1097</ele>
        <time>2000-01-01T02:30:16.000Z</time>
      </trkpt>
      <trkpt lat="45.1545" lon="2.71116">
        <ele>1096.1</ele>
        <time>2000-01-01T02:30:26.000Z</time>
      </trkpt>
      <trkpt lat="45.15442" lon="2.71104">
        <ele>1097</ele>
        <time>2000-01-01T02:30:36.000Z</time>
      </trkpt>
      <trkpt lat="45.15433" lon="2.71095">
        <ele>1097.1</ele>
        <time>2000-01-01T02:30:46.000Z</time>
      </trkpt>
      <trkpt lat="45.15428" lon="2.71093">
        <ele>1097.5</ele>
        <time>2000-01-01T02:30:56.000Z</time>
      </trkpt>
      <trkpt lat="45.15416" lon="2.71096">
        <ele>1098</ele>
        <time>2000-01-01T02:31:06.000Z</time>
      </trkpt>
      <trkpt lat="45.15391" lon="2.71107">
        <ele>1099</ele>
        <time>2000-01-01T02:31:16.000Z</time>
      </trkpt>
      <trkpt lat="45.15375" lon="2.71112">
        <ele>1102.5</ele>
        <time>2000-01-01T02:31:26.000Z</time>
      </trkpt>
      <trkpt lat="45.15364" lon="2.71112">
        <ele>1100</ele>
        <time>2000-01-01T02:31:36.000Z</time>
      </trkpt>
      <trkpt lat="45.15349" lon="2.71109">
        <ele>1102.1</ele>
        <time>2000-01-01T02:31:46.000Z</time>
      </trkpt>
      <trkpt lat="45.15343" lon="2.71107">
        <ele>1101</ele>
        <time>2000-01-01T02:31:56.000Z</time>
      </trkpt>
      <trkpt lat="45.15324" lon="2.71102">
        <ele>1103</ele>
        <time>2000-01-01T02:32:06.000Z</time>
      </trkpt>
      <trkpt lat="45.15299" lon="2.71093">
        <ele>1103</ele>
        <time>2000-01-01T02:32:16.000Z</time>
      </trkpt>
      <trkpt lat="45.15272" lon="2.71083">
        <ele>1103</ele>
        <time>2000-01-01T02:32:26.000Z</time>
      </trkpt>
      <trkpt lat="45.15248" lon="2.71076">
        <ele>1103</ele>
        <time>2000-01-01T02:32:36.000Z</time>
      </trkpt>
      <trkpt lat="45.15225" lon="2.71068">
        <ele>1103</ele>
        <time>2000-01-01T02:32:46.000Z</time>
      </trkpt>
      <trkpt lat="45.15214" lon="2.71065">
        <ele>1100</ele>
        <time>2000-01-01T02:32:56.000Z</time>
      </trkpt>
      <trkpt lat="45.15202" lon="2.71061">
        <ele>1105</ele>
        <time>2000-01-01T02:33:06.000Z</time>
      </trkpt>
      <trkpt lat="45.15194" lon="2.71061">
        <ele>1100.9</ele>
        <time>2000-01-01T02:33:16.000Z</time>
      </trkpt>
      <trkpt lat="45.15187" lon="2.71064">
        <ele>1101.9</ele>
        <time>2000-01-01T02:33:26.000Z</time>
      </trkpt>
      <trkpt lat="45.15177" lon="2.71068">
        <ele>1108</ele>
        <time>2000-01-01T02:33:36.000Z</time>
      </trkpt>
      <trkpt lat="45.15163" lon="2.7107">
        <ele>1107.3</ele>
        <time>2000-01-01T02:33:46.000Z</time>
      </trkpt>
      <trkpt lat="45.15144" lon="2.71069">
        <ele>1110</ele>
        <time>2000-01-01T02:33:56.000Z</time>
      </trkpt>
      <trkpt lat="45.15135" lon="2.71069">
        <ele>1106.3</ele>
        <time>2000-01-01T02:34:06.000Z</time>
      </trkpt>
      <trkpt lat="45.1513" lon="2.71068">
        <ele>1106.3</ele>
        <time>2000-01-01T02:34:16.000Z</time>
      </trkpt>
      <trkpt lat="45.15119" lon="2.71072">
        <ele>1115</ele>
        <time>2000-01-01T02:34:26.000Z</time>
      </trkpt>
      <trkpt lat="45.15105" lon="2.71078">
        <ele>1108.9</ele>
        <time>2000-01-01T02:34:36.000Z</time>
      </trkpt>
      <trkpt lat="45.1509" lon="2.71081">
        <ele>1121</ele>
        <time>2000-01-01T02:34:46.000Z</time>
      </trkpt>
      <trkpt lat="45.15079" lon="2.71084">
        <ele>1118.2</ele>
        <time>2000-01-01T02:34:56.000Z</time>
      </trkpt>
      <trkpt lat="45.15066" lon="2.71086">
        <ele>1124</ele>
        <time>2000-01-01T02:35:06.000Z</time>
      </trkpt>
      <trkpt lat="45.15061" lon="2.7109">
        <ele>1126.7</ele>
        <time>2000-01-01T02:35:16.000Z</time>
      </trkpt>
      <trkpt lat="45.15059" lon="2.71096">
        <ele>1128.2</ele>
        <time>2000-01-01T02:35:26.000Z</time>
      </trkpt>
      <trkpt lat="45.1506" lon="2.71104">
        <ele>1129.5</ele>
        <time>2000-01-01T02:35:36.000Z</time>
      </trkpt>
      <trkpt lat="45.15067" lon="2.71109">
        <ele>1129</ele>
        <time>2000-01-01T02:35:46.000Z</time>
      </trkpt>
      <trkpt lat="45.15088" lon="2.71118">
        <ele>1132</ele>
        <time>2000-01-01T02:35:56.000Z</time>
      </trkpt>
      <trkpt lat="45.15101" lon="2.71126">
        <ele>1125.6</ele>
        <time>2000-01-01T02:36:06.000Z</time>
      </trkpt>
      <trkpt lat="45.1511" lon="2.71137">
        <ele>1133</ele>
        <time>2000-01-01T02:36:16.000Z</time>
      </trkpt>
      <trkpt lat="45.1512" lon="2.7115">
        <ele>1127.9</ele>
        <time>2000-01-01T02:36:26.000Z</time>
      </trkpt>
      <trkpt lat="45.15136" lon="2.71163">
        <ele>1139</ele>
        <time>2000-01-01T02:36:36.000Z</time>
      </trkpt>
      <trkpt lat="45.15149" lon="2.71177">
        <ele>1139.6</ele>
        <time>2000-01-01T02:36:46.000Z</time>
      </trkpt>
      <trkpt lat="45.15163" lon="2.71197">
        <ele>1143</ele>
        <time>2000-01-01T02:36:56.000Z</time>
      </trkpt>
      <trkpt lat="45.15186" lon="2.71226">
        <ele>1147</ele>
        <time>2000-01-01T02:37:06.000Z</time>
      </trkpt>
      <trkpt lat="45.15198" lon="2.71244">
        <ele>1139.2</ele>
        <time>2000-01-01T02:37:16.000Z</time>
      </trkpt>
      <trkpt lat="45.152" lon="2.7125">
        <ele>1139.2</ele>
        <time>2000-01-01T02:37:26.000Z</time>
      </trkpt>
      <trkpt lat="45.15196" lon="2.71253">
        <ele>1152</ele>
        <time>2000-01-01T02:37:36.000Z</time>
      </trkpt>
      <trkpt lat="45.15196" lon="2.71253">
        <ele>1152</ele>
        <time>2000-01-01T02:37:46.000Z</time>
      </trkpt>
      <trkpt lat="45.152" lon="2.7125">
        <ele>1139</ele>
        <time>2000-01-01T02:37:56.000Z</time>
      </trkpt>
      <trkpt lat="45.15202" lon="2.71254">
        <ele>1151.9</ele>
        <time>2000-01-01T02:38:06.000Z</time>
      </trkpt>
      <trkpt lat="45.15204" lon="2.71264">
        <ele>1154</ele>
        <time>2000-01-01T02:38:16.000Z</time>
      </trkpt>
      <trkpt lat="45.15205" lon="2.71271">
        <ele>1153</ele>
        <time>2000-01-01T02:38:26.000Z</time>
      </trkpt>
      <trkpt lat="45.15199" lon="2.71269">
        <ele>1153.3</ele>
        <time>2000-01-01T02:38:36.000Z</time>
      </trkpt>
      <trkpt lat="45.15193" lon="2.71261">
        <ele>1155</ele>
        <time>2000-01-01T02:38:46.000Z</time>
      </trkpt>
      <trkpt lat="45.15187" lon="2.71256">
        <ele>1152.8</ele>
        <time>2000-01-01T02:38:56.000Z</time>
      </trkpt>
      <trkpt lat="45.15167" lon="2.7125">
        <ele>1159</ele>
        <time>2000-01-01T02:39:06.000Z</time>
      </trkpt>
      <trkpt lat="45.15155" lon="2.71247">
        <ele>1150</ele>
        <time>2000-01-01T02:39:16.000Z</time>
      </trkpt>
      <trkpt lat="45.15137" lon="2.71243">
        <ele>1163</ele>
        <time>2000-01-01T02:39:26.000Z</time>
      </trkpt>
      <trkpt lat="45.15126" lon="2.71241">
        <ele>1151.2</ele>
        <time>2000-01-01T02:39:36.000Z</time>
      </trkpt>
      <trkpt lat="45.15101" lon="2.71238">
        <ele>1166</ele>
        <time>2000-01-01T02:39:46.000Z</time>
      </trkpt>
      <trkpt lat="45.15085" lon="2.71236">
        <ele>1158.6</ele>
        <time>2000-01-01T02:39:56.000Z</time>
      </trkpt>
      <trkpt lat="45.15065" lon="2.7123">
        <ele>1172</ele>
        <time>2000-01-01T02:40:06.000Z</time>
      </trkpt>
      <trkpt lat="45.15054" lon="2.71231">
        <ele>1164.8</ele>
        <time>2000-01-01T02:40:16.000Z</time>
      </trkpt>
      <trkpt lat="45.15048" lon="2.71233">
        <ele>1165.6</ele>
        <time>2000-01-01T02:40:26.000Z</time>
      </trkpt>
      <trkpt lat="45.1504" lon="2.71232">
        <ele>1175</ele>
        <time>2000-01-01T02:40:36.000Z</time>
      </trkpt>
      <trkpt lat="45.1503" lon="2.71228">
        <ele>1167.4</ele>
        <time>2000-01-01T02:40:46.000Z</time>
      </trkpt>
      <trkpt lat="45.15016" lon="2.71227">
        <ele>1176</ele>
        <time>2000-01-01T02:40:56.000Z</time>
      </trkpt>
      <trkpt lat="45.14987" lon="2.71224">
        <ele>1180</ele>
        <time>2000-01-01T02:41:06.000Z</time>
      </trkpt>
      <trkpt lat="45.14963" lon="2.71223">
        <ele>1182</ele>
        <time>2000-01-01T02:41:16.000Z</time>
      </trkpt>
      <trkpt lat="45.1495" lon="2.71224">
        <ele>1179.3</ele>
        <time>2000-01-01T02:41:26.000Z</time>
      </trkpt>
      <trkpt lat="45.1493" lon="2.7123">
        <ele>1185</ele>
        <time>2000-01-01T02:41:36.000Z</time>
      </trkpt>
      <trkpt lat="45.14915" lon="2.71233">
        <ele>1191.2</ele>
        <time>2000-01-01T02:41:46.000Z</time>
      </trkpt>
      <trkpt lat="45.14902" lon="2.71234">
        <ele>1193</ele>
        <time>2000-01-01T02:41:56.000Z</time>
      </trkpt>
      <trkpt lat="45.14886" lon="2.71231">
        <ele>1190.4</ele>
        <time>2000-01-01T02:42:06.000Z</time>
      </trkpt>
      <trkpt lat="45.14868" lon="2.71226">
        <ele>1194</ele>
        <time>2000-01-01T02:42:16.000Z</time>
      </trkpt>
      <trkpt lat="45.14852" lon="2.71224">
        <ele>1192.8</ele>
        <time>2000-01-01T02:42:26.000Z</time>
      </trkpt>
      <trkpt lat="45.14818" lon="2.71222">
        <ele>1202</ele>
        <time>2000-01-01T02:42:36.000Z</time>
      </trkpt>
      <trkpt lat="45.14776" lon="2.71219">
        <ele>1203</ele>
        <time>2000-01-01T02:42:46.000Z</time>
      </trkpt>
      <trkpt lat="45.14761" lon="2.71221">
        <ele>1198.9</ele>
        <time>2000-01-01T02:42:56.000Z</time>
      </trkpt>
      <trkpt lat="45.14749" lon="2.71225">
        <ele>1205</ele>
        <time>2000-01-01T02:43:06.000Z</time>
      </trkpt>
      <trkpt lat="45.14739" lon="2.71233">
        <ele>1200.9</ele>
        <time>2000-01-01T02:43:16.000Z</time>
      </trkpt>
      <trkpt lat="45.14732" lon="2.71246">
        <ele>1209</ele>
        <time>2000-01-01T02:43:26.000Z</time>
      </trkpt>
      <trkpt lat="45.14726" lon="2.71262">
        <ele>1211.1</ele>
        <time>2000-01-01T02:43:36.000Z</time>
      </trkpt>
      <trkpt lat="45.14721" lon="2.71285">
        <ele>1214</ele>
        <time>2000-01-01T02:43:46.000Z</time>
      </trkpt>
      <trkpt lat="45.14717" lon="2.71296">
        <ele>1214.1</ele>
        <time>2000-01-01T02:43:56.000Z</time>
      </trkpt>
      <trkpt lat="45.14706" lon="2.71317">
        <ele>1214</ele>
        <time>2000-01-01T02:44:06.000Z</time>
      </trkpt>
      <trkpt lat="45.14691" lon="2.71343">
        <ele>1217</ele>
        <time>2000-01-01T02:44:16.000Z</time>
      </trkpt>
      <trkpt lat="45.14683" lon="2.71361">
        <ele>1227.9</ele>
        <time>2000-01-01T02:44:26.000Z</time>
      </trkpt>
      <trkpt lat="45.14668" lon="2.71389">
        <ele>1220</ele>
        <time>2000-01-01T02:44:36.000Z</time>
      </trkpt>
      <trkpt lat="45.14655" lon="2.71408">
        <ele>1229</ele>
        <time>2000-01-01T02:44:46.000Z</time>
      </trkpt>
      <trkpt lat="45.14649" lon="2.71414">
        <ele>1226</ele>
        <time>2000-01-01T02:44:56.000Z</time>
      </trkpt>
      <trkpt lat="45.14635" lon="2.71418">
        <ele>1238.5</ele>
        <time>2000-01-01T02:45:06.000Z</time>
      </trkpt>
      <trkpt lat="45.14616" lon="2.71415">
        <ele>1226</ele>
        <time>2000-01-01T02:45:16.000Z</time>
      </trkpt>
      <trkpt lat="45.14601" lon="2.71416">
        <ele>1227.9</ele>
        <time>2000-01-01T02:45:26.000Z</time>
      </trkpt>
      <trkpt lat="45.14587" lon="2.71423">
        <ele>1226</ele>
        <time>2000-01-01T02:45:36.000Z</time>
      </trkpt>
      <trkpt lat="45.14567" lon="2.7144">
        <ele>1229</ele>
        <time>2000-01-01T02:45:46.000Z</time>
      </trkpt>
      <trkpt lat="45.14554" lon="2.71463">
        <ele>1232</ele>
        <time>2000-01-01T02:45:56.000Z</time>
      </trkpt>
      <trkpt lat="45.14533" lon="2.71507">
        <ele>1237</ele>
        <time>2000-01-01T02:46:06.000Z</time>
      </trkpt>
      <trkpt lat="45.14528" lon="2.71513">
        <ele>1254.5</ele>
        <time>2000-01-01T02:46:16.000Z</time>
      </trkpt>
      <trkpt lat="45.14523" lon="2.71514">
        <ele>1254.3</ele>
        <time>2000-01-01T02:46:26.000Z</time>
      </trkpt>
      <trkpt lat="45.14519" lon="2.71512">
        <ele>1253.7</ele>
        <time>2000-01-01T02:46:36.000Z</time>
      </trkpt>
      <trkpt lat="45.14513" lon="2.71506">
        <ele>1237</ele>
        <time>2000-01-01T02:46:46.000Z</time>
      </trkpt>
      <trkpt lat="45.14507" lon="2.71491">
        <ele>1246.9</ele>
        <time>2000-01-01T02:46:56.000Z</time>
      </trkpt>
      <trkpt lat="45.14492" lon="2.71432">
        <ele>1237</ele>
        <time>2000-01-01T02:47:06.000Z</time>
      </trkpt>
      <trkpt lat="45.14488" lon="2.71423">
        <ele>1250.1</ele>
        <time>2000-01-01T02:47:16.000Z</time>
      </trkpt>
      <trkpt lat="45.14482" lon="2.71416">
        <ele>1249.4</ele>
        <time>2000-01-01T02:47:26.000Z</time>
      </trkpt>
      <trkpt lat="45.14466" lon="2.7141">
        <ele>1246</ele>
        <time>2000-01-01T02:47:36.000Z</time>
      </trkpt>
      <trkpt lat="45.14448" lon="2.71407">
        <ele>1257.5</ele>
        <time>2000-01-01T02:47:46.000Z</time>
      </trkpt>
      <trkpt lat="45.14432" lon="2.71403">
        <ele>1253</ele>
        <time>2000-01-01T02:47:56.000Z</time>
      </trkpt>
      <trkpt lat="45.14423" lon="2.71397">
        <ele>1261.6</ele>
        <time>2000-01-01T02:48:06.000Z</time>
      </trkpt>
      <trkpt lat="45.14419" lon="2.71393">
        <ele>1261.3</ele>
        <time>2000-01-01T02:48:16.000Z</time>
      </trkpt>
      <trkpt lat="45.14417" lon="2.71387">
        <ele>1260.6</ele>
        <time>2000-01-01T02:48:26.000Z</time>
      </trkpt>
      <trkpt lat="45.14416" lon="2.7138">
        <ele>1253</ele>
        <time>2000-01-01T02:48:36.000Z</time>
      </trkpt>
      <trkpt lat="45.14417" lon="2.71372">
        <ele>1260</ele>
        <time>2000-01-01T02:48:46.000Z</time>
      </trkpt>
      <trkpt lat="45.14422" lon="2.7135">
        <ele>1253</ele>
        <time>2000-01-01T02:48:56.000Z</time>
      </trkpt>
      <trkpt lat="45.1443" lon="2.7132">
        <ele>1255</ele>
        <time>2000-01-01T02:49:06.000Z</time>
      </trkpt>
      <trkpt lat="45.14431" lon="2.71314">
        <ele>1259.9</ele>
        <time>2000-01-01T02:49:16.000Z</time>
      </trkpt>
      <trkpt lat="45.1443" lon="2.71313">
        <ele>1259.9</ele>
        <time>2000-01-01T02:49:26.000Z</time>
      </trkpt>
      <trkpt lat="45.1443" lon="2.71313">
        <ele>1259.9</ele>
        <time>2000-01-01T02:49:36.000Z</time>
      </trkpt>
      <trkpt lat="45.14431" lon="2.71314">
        <ele>1259.9</ele>
        <time>2000-01-01T02:49:46.000Z</time>
      </trkpt>
      <trkpt lat="45.14432" lon="2.71308">
        <ele>1259.1</ele>
        <time>2000-01-01T02:49:56.000Z</time>
      </trkpt>
      <trkpt lat="45.14433" lon="2.71288">
        <ele>1258</ele>
        <time>2000-01-01T02:50:06.000Z</time>
      </trkpt>
      <trkpt lat="45.14433" lon="2.71269">
        <ele>1260.3</ele>
        <time>2000-01-01T02:50:16.000Z</time>
      </trkpt>
      <trkpt lat="45.14429" lon="2.71255">
        <ele>1262</ele>
        <time>2000-01-01T02:50:26.000Z</time>
      </trkpt>
      <trkpt lat="45.14424" lon="2.71248">
        <ele>1265.2</ele>
        <time>2000-01-01T02:50:36.000Z</time>
      </trkpt>
      <trkpt lat="45.14388" lon="2.71212">
        <ele>1273</ele>
        <time>2000-01-01T02:50:46.000Z</time>
      </trkpt>
      <trkpt lat="45.14368" lon="2.71194">
        <ele>1274</ele>
        <time>2000-01-01T02:50:56.000Z</time>
      </trkpt>
      <trkpt lat="45.14336" lon="2.71173">
        <ele>1279</ele>
        <time>2000-01-01T02:51:06.000Z</time>
      </trkpt>
      <trkpt lat="45.14326" lon="2.71164">
        <ele>1293.9</ele>
        <time>2000-01-01T02:51:16.000Z</time>
      </trkpt>
      <trkpt lat="45.14323" lon="2.71159">
        <ele>1295.3</ele>
        <time>2000-01-01T02:51:26.000Z</time>
      </trkpt>
      <trkpt lat="45.14321" lon="2.71147">
        <ele>1280</ele>
        <time>2000-01-01T02:51:36.000Z</time>
      </trkpt>
      <trkpt lat="45.14321" lon="2.71136">
        <ele>1297.8</ele>
        <time>2000-01-01T02:51:46.000Z</time>
      </trkpt>
      <trkpt lat="45.14323" lon="2.71126">
        <ele>1297.6</ele>
        <time>2000-01-01T02:51:56.000Z</time>
      </trkpt>
      <trkpt lat="45.14327" lon="2.71113">
        <ele>1282</ele>
        <time>2000-01-01T02:52:06.000Z</time>
      </trkpt>
      <trkpt lat="45.14339" lon="2.71076">
        <ele>1284</ele>
        <time>2000-01-01T02:52:16.000Z</time>
      </trkpt>
      <trkpt lat="45.1434" lon="2.71068">
        <ele>1282</ele>
        <time>2000-01-01T02:52:26.000Z</time>
      </trkpt>
      <trkpt lat="45.1434" lon="2.71059">
        <ele>1280.1</ele>
        <time>2000-01-01T02:52:36.000Z</time>
      </trkpt>
      <trkpt lat="45.14317" lon="2.71088">
        <ele>1288</ele>
        <time>2000-01-01T02:52:46.000Z</time>
      </trkpt>
      <trkpt lat="45.14304" lon="2.71106">
        <ele>1298.7</ele>
        <time>2000-01-01T02:52:56.000Z</time>
      </trkpt>
      <trkpt lat="45.14286" lon="2.71124">
        <ele>1294</ele>
        <time>2000-01-01T02:53:06.000Z</time>
      </trkpt>
      <trkpt lat="45.14273" lon="2.7114">
        <ele>1304.9</ele>
        <time>2000-01-01T02:53:16.000Z</time>
      </trkpt>
      <trkpt lat="45.14265" lon="2.7116">
        <ele>1302</ele>
        <time>2000-01-01T02:53:26.000Z</time>
      </trkpt>
      <trkpt lat="45.14264" lon="2.7117">
        <ele>1314.7</ele>
        <time>2000-01-01T02:53:36.000Z</time>
      </trkpt>
      <trkpt lat="45.14264" lon="2.71179">
        <ele>1314.4</ele>
        <time>2000-01-01T02:53:46.000Z</time>
      </trkpt>
      <trkpt lat="45.14265" lon="2.71185">
        <ele>1314.1</ele>
        <time>2000-01-01T02:53:56.000Z</time>
      </trkpt>
      <trkpt lat="45.14269" lon="2.71194">
        <ele>1306</ele>
        <time>2000-01-01T02:54:06.000Z</time>
      </trkpt>
      <trkpt lat="45.14278" lon="2.71206">
        <ele>1313.3</ele>
        <time>2000-01-01T02:54:16.000Z</time>
      </trkpt>
      <trkpt lat="45.14302" lon="2.71251">
        <ele>1307</ele>
        <time>2000-01-01T02:54:26.000Z</time>
      </trkpt>
      <trkpt lat="45.14313" lon="2.71268">
        <ele>1316.9</ele>
        <time>2000-01-01T02:54:36.000Z</time>
      </trkpt>
      <trkpt lat="45.14316" lon="2.71281">
        <ele>1309</ele>
        <time>2000-01-01T02:54:46.000Z</time>
      </trkpt>
      <trkpt lat="45.14317" lon="2.71294">
        <ele>1319.3</ele>
        <time>2000-01-01T02:54:56.000Z</time>
      </trkpt>
      <trkpt lat="45.14317" lon="2.71304">
        <ele>1319.5</ele>
        <time>2000-01-01T02:55:06.000Z</time>
      </trkpt>
      <trkpt lat="45.14316" lon="2.71315">
        <ele>1312</ele>
        <time>2000-01-01T02:55:16.000Z</time>
      </trkpt>
      <trkpt lat="45.14312" lon="2.71329">
        <ele>1319.3</ele>
        <time>2000-01-01T02:55:26.000Z</time>
      </trkpt>
      <trkpt lat="45.14306" lon="2.71346">
        <ele>1316</ele>
        <time>2000-01-01T02:55:36.000Z</time>
      </trkpt>
      <trkpt lat="45.14288" lon="2.71377">
        <ele>1319</ele>
        <time>2000-01-01T02:55:46.000Z</time>
      </trkpt>
      <trkpt lat="45.14272" lon="2.71412">
        <ele>1323</ele>
        <time>2000-01-01T02:55:56.000Z</time>
      </trkpt>
      <trkpt lat="45.14255" lon="2.71467">
        <ele>1326</ele>
        <time>2000-01-01T02:56:06.000Z</time>
      </trkpt>
      <trkpt lat="45.14248" lon="2.715">
        <ele>1331</ele>
        <time>2000-01-01T02:56:16.000Z</time>
      </trkpt>
      <trkpt lat="45.14247" lon="2.71506">
        <ele>1344.1</ele>
        <time>2000-01-01T02:56:26.000Z</time>
      </trkpt>
      <trkpt lat="45.14247" lon="2.7151">
        <ele>1346.6</ele>
        <time>2000-01-01T02:56:36.000Z</time>
      </trkpt>
      <trkpt lat="45.14248" lon="2.71513">
        <ele>1348.1</ele>
        <time>2000-01-01T02:56:46.000Z</time>
      </trkpt>
      <trkpt lat="45.14262" lon="2.71532">
        <ele>1331</ele>
        <time>2000-01-01T02:56:56.000Z</time>
      </trkpt>
      <trkpt lat="45.14272" lon="2.71549">
        <ele>1334.5</ele>
        <time>2000-01-01T02:57:06.000Z</time>
      </trkpt>
      <trkpt lat="45.14278" lon="2.71564">
        <ele>1334</ele>
        <time>2000-01-01T02:57:16.000Z</time>
      </trkpt>
      <trkpt lat="45.14282" lon="2.71583">
        <ele>1335.7</ele>
        <time>2000-01-01T02:57:26.000Z</time>
      </trkpt>
      <trkpt lat="45.14292" lon="2.71613">
        <ele>1336</ele>
        <time>2000-01-01T02:57:36.000Z</time>
      </trkpt>
      <trkpt lat="45.14295" lon="2.71622">
        <ele>1341.5</ele>
        <time>2000-01-01T02:57:46.000Z</time>
      </trkpt>
      <trkpt lat="45.14296" lon="2.71633">
        <ele>1341.9</ele>
        <time>2000-01-01T02:57:56.000Z</time>
      </trkpt>
      <trkpt lat="45.14295" lon="2.71645">
        <ele>1338</ele>
        <time>2000-01-01T02:58:06.000Z</time>
      </trkpt>
      <trkpt lat="45.14291" lon="2.71661">
        <ele>1344.1</ele>
        <time>2000-01-01T02:58:16.000Z</time>
      </trkpt>
      <trkpt lat="45.14284" lon="2.71688">
        <ele>1343</ele>
        <time>2000-01-01T02:58:26.000Z</time>
      </trkpt>
      <trkpt lat="45.14274" lon="2.71718">
        <ele>1346</ele>
        <time>2000-01-01T02:58:36.000Z</time>
      </trkpt>
      <trkpt lat="45.14257" lon="2.71774">
        <ele>1352</ele>
        <time>2000-01-01T02:58:46.000Z</time>
      </trkpt>
      <trkpt lat="45.14244" lon="2.71824">
        <ele>1354</ele>
        <time>2000-01-01T02:58:56.000Z</time>
      </trkpt>
      <trkpt lat="45.14241" lon="2.71835">
        <ele>1372.2</ele>
        <time>2000-01-01T02:59:06.000Z</time>
      </trkpt>
      <trkpt lat="45.14239" lon="2.71837">
        <ele>1373.7</ele>
        <time>2000-01-01T02:59:16.000Z</time>
      </trkpt>
      <trkpt lat="45.14237" lon="2.71837">
        <ele>1374.8</ele>
        <time>2000-01-01T02:59:26.000Z</time>
      </trkpt>
      <trkpt lat="45.14236" lon="2.71837">
        <ele>1375.3</ele>
        <time>2000-01-01T02:59:36.000Z</time>
      </trkpt>
      <trkpt lat="45.14234" lon="2.71833">
        <ele>1374.7</ele>
        <time>2000-01-01T02:59:46.000Z</time>
      </trkpt>
      <trkpt lat="45.14234" lon="2.71828">
        <ele>1375.1</ele>
        <time>2000-01-01T02:59:56.000Z</time>
      </trkpt>
      <trkpt lat="45.14233" lon="2.71828">
        <ele>1376</ele>
        <time>2000-01-01T03:00:06.000Z</time>
      </trkpt>
      <trkpt lat="45.14233" lon="2.71828">
        <ele>1376</ele>
        <time>2000-01-01T03:00:16.000Z</time>
      </trkpt>
      <trkpt lat="45.14234" lon="2.71828">
        <ele>1375</ele>
        <time>2000-01-01T03:00:26.000Z</time>
      </trkpt>
      <trkpt lat="45.14234" lon="2.71819">
        <ele>1376.6</ele>
        <time>2000-01-01T03:00:36.000Z</time>
      </trkpt>
      <trkpt lat="45.14236" lon="2.71792">
        <ele>1362</ele>
        <time>2000-01-01T03:00:46.000Z</time>
      </trkpt>
      <trkpt lat="45.14237" lon="2.71755">
        <ele>1366</ele>
        <time>2000-01-01T03:00:56.000Z</time>
      </trkpt>
      <trkpt lat="45.14238" lon="2.71711">
        <ele>1369</ele>
        <time>2000-01-01T03:01:06.000Z</time>
      </trkpt>
      <trkpt lat="45.14236" lon="2.71692">
        <ele>1376.2</ele>
        <time>2000-01-01T03:01:16.000Z</time>
      </trkpt>
      <trkpt lat="45.14233" lon="2.71677">
        <ele>1370</ele>
        <time>2000-01-01T03:01:26.000Z</time>
      </trkpt>
      <trkpt lat="45.14224" lon="2.71661">
        <ele>1371.7</ele>
        <time>2000-01-01T03:01:36.000Z</time>
      </trkpt>
      <trkpt lat="45.14214" lon="2.71648">
        <ele>1375</ele>
        <time>2000-01-01T03:01:46.000Z</time>
      </trkpt>
      <trkpt lat="45.1421" lon="2.7164">
        <ele>1374.7</ele>
        <time>2000-01-01T03:01:56.000Z</time>
      </trkpt>
      <trkpt lat="45.14205" lon="2.71635">
        <ele>1375.5</ele>
        <time>2000-01-01T03:02:06.000Z</time>
      </trkpt>
      <trkpt lat="45.14201" lon="2.71633">
        <ele>1376.2</ele>
        <time>2000-01-01T03:02:16.000Z</time>
      </trkpt>
      <trkpt lat="45.14183" lon="2.71628">
        <ele>1381</ele>
        <time>2000-01-01T03:02:26.000Z</time>
      </trkpt>
      <trkpt lat="45.14167" lon="2.71622">
        <ele>1380.3</ele>
        <time>2000-01-01T03:02:36.000Z</time>
      </trkpt>
      <trkpt lat="45.14157" lon="2.71613">
        <ele>1383</ele>
        <time>2000-01-01T03:02:46.000Z</time>
      </trkpt>
      <trkpt lat="45.14153" lon="2.71608">
        <ele>1401.4</ele>
        <time>2000-01-01T03:02:56.000Z</time>
      </trkpt>
      <trkpt lat="45.14151" lon="2.71604">
        <ele>1400.9</ele>
        <time>2000-01-01T03:03:06.000Z</time>
      </trkpt>
      <trkpt lat="45.14149" lon="2.716">
        <ele>1400.6</ele>
        <time>2000-01-01T03:03:16.000Z</time>
      </trkpt>
      <trkpt lat="45.14147" lon="2.71596">
        <ele>1400.4</ele>
        <time>2000-01-01T03:03:26.000Z</time>
      </trkpt>
      <trkpt lat="45.14146" lon="2.71585">
        <ele>1383</ele>
        <time>2000-01-01T03:03:36.000Z</time>
      </trkpt>
      <trkpt lat="45.14147" lon="2.71566">
        <ele>1396.8</ele>
        <time>2000-01-01T03:03:46.000Z</time>
      </trkpt>
      <trkpt lat="45.14148" lon="2.71528">
        <ele>1380</ele>
        <time>2000-01-01T03:03:56.000Z</time>
      </trkpt>
      <trkpt lat="45.14149" lon="2.71508">
        <ele>1393.4</ele>
        <time>2000-01-01T03:04:06.000Z</time>
      </trkpt>
      <trkpt lat="45.1415" lon="2.71493">
        <ele>1377</ele>
        <time>2000-01-01T03:04:16.000Z</time>
      </trkpt>
      <trkpt lat="45.14155" lon="2.71475">
        <ele>1395.1</ele>
        <time>2000-01-01T03:04:26.000Z</time>
      </trkpt>
      <trkpt lat="45.14166" lon="2.71448">
        <ele>1376</ele>
        <time>2000-01-01T03:04:36.000Z</time>
      </trkpt>
      <trkpt lat="45.14181" lon="2.71421">
        <ele>1366</ele>
        <time>2000-01-01T03:04:46.000Z</time>
      </trkpt>
      <trkpt lat="45.14204" lon="2.71385">
        <ele>1363</ele>
        <time>2000-01-01T03:04:56.000Z</time>
      </trkpt>
      <trkpt lat="45.14209" lon="2.71373">
        <ele>1365.8</ele>
        <time>2000-01-01T03:05:06.000Z</time>
      </trkpt>
      <trkpt lat="45.1421" lon="2.71365">
        <ele>1365.6</ele>
        <time>2000-01-01T03:05:16.000Z</time>
      </trkpt>
      <trkpt lat="45.1421" lon="2.71358">
        <ele>1365</ele>
        <time>2000-01-01T03:05:26.000Z</time>
      </trkpt>
      <trkpt lat="45.14208" lon="2.71348">
        <ele>1365.9</ele>
        <time>2000-01-01T03:05:36.000Z</time>
      </trkpt>
      <trkpt lat="45.14203" lon="2.7134">
        <ele>1367.3</ele>
        <time>2000-01-01T03:05:46.000Z</time>
      </trkpt>
      <trkpt lat="45.14198" lon="2.71331">
        <ele>1362</ele>
        <time>2000-01-01T03:05:56.000Z</time>
      </trkpt>
      <trkpt lat="45.14189" lon="2.71314">
        <ele>1362.9</ele>
        <time>2000-01-01T03:06:06.000Z</time>
      </trkpt>
      <trkpt lat="45.14171" lon="2.71257">
        <ele>1359</ele>
        <time>2000-01-01T03:06:16.000Z</time>
      </trkpt>
      <trkpt lat="45.14169" lon="2.71249">
        <ele>1355.8</ele>
        <time>2000-01-01T03:06:26.000Z</time>
      </trkpt>
      <trkpt lat="45.14165" lon="2.71245">
        <ele>1355.7</ele>
        <time>2000-01-01T03:06:36.000Z</time>
      </trkpt>
      <trkpt lat="45.14161" lon="2.71243">
        <ele>1354.4</ele>
        <time>2000-01-01T03:06:46.000Z</time>
      </trkpt>
      <trkpt lat="45.14155" lon="2.71242">
        <ele>1359</ele>
        <time>2000-01-01T03:06:56.000Z</time>
      </trkpt>
      <trkpt lat="45.14148" lon="2.71249">
        <ele>1352.5</ele>
        <time>2000-01-01T03:07:06.000Z</time>
      </trkpt>
      <trkpt lat="45.14134" lon="2.71263">
        <ele>1371</ele>
        <time>2000-01-01T03:07:16.000Z</time>
      </trkpt>
      <trkpt lat="45.1412" lon="2.71268">
        <ele>1371.2</ele>
        <time>2000-01-01T03:07:26.000Z</time>
      </trkpt>
      <trkpt lat="45.14115" lon="2.7127">
        <ele>1372</ele>
        <time>2000-01-01T03:07:36.000Z</time>
      </trkpt>
      <trkpt lat="45.14111" lon="2.7127">
        <ele>1371.6</ele>
        <time>2000-01-01T03:07:46.000Z</time>
      </trkpt>
      <trkpt lat="45.14103" lon="2.7127">
        <ele>1371.3</ele>
        <time>2000-01-01T03:07:56.000Z</time>
      </trkpt>
      <trkpt lat="45.14095" lon="2.71268">
        <ele>1374</ele>
        <time>2000-01-01T03:08:06.000Z</time>
      </trkpt>
      <trkpt lat="45.14092" lon="2.71268">
        <ele>1370.2</ele>
        <time>2000-01-01T03:08:16.000Z</time>
      </trkpt>
      <trkpt lat="45.14072" lon="2.71263">
        <ele>1371</ele>
        <time>2000-01-01T03:08:26.000Z</time>
      </trkpt>
      <trkpt lat="45.14064" lon="2.7126">
        <ele>1368.5</ele>
        <time>2000-01-01T03:08:36.000Z</time>
      </trkpt>
      <trkpt lat="45.14052" lon="2.71256">
        <ele>1372</ele>
        <time>2000-01-01T03:08:46.000Z</time>
      </trkpt>
      <trkpt lat="45.14046" lon="2.71255">
        <ele>1367.8</ele>
        <time>2000-01-01T03:08:56.000Z</time>
      </trkpt>
      <trkpt lat="45.14038" lon="2.71261">
        <ele>1367.6</ele>
        <time>2000-01-01T03:09:06.000Z</time>
      </trkpt>
      <trkpt lat="45.14034" lon="2.71268">
        <ele>1373</ele>
        <time>2000-01-01T03:09:16.000Z</time>
      </trkpt>
      <trkpt lat="45.14029" lon="2.71277">
        <ele>1369.2</ele>
        <time>2000-01-01T03:09:26.000Z</time>
      </trkpt>
      <trkpt lat="45.14021" lon="2.71286">
        <ele>1370.5</ele>
        <time>2000-01-01T03:09:36.000Z</time>
      </trkpt>
      <trkpt lat="45.14013" lon="2.71294">
        <ele>1374</ele>
        <time>2000-01-01T03:09:46.000Z</time>
      </trkpt>
      <trkpt lat="45.14005" lon="2.713">
        <ele>1373.6</ele>
        <time>2000-01-01T03:09:56.000Z</time>
      </trkpt>
      <trkpt lat="45.13987" lon="2.71316">
        <ele>1375</ele>
        <time>2000-01-01T03:10:06.000Z</time>
      </trkpt>
      <trkpt lat="45.13981" lon="2.71325">
        <ele>1373.1</ele>
        <time>2000-01-01T03:10:16.000Z</time>
      </trkpt>
      <trkpt lat="45.13978" lon="2.71328">
        <ele>1372.8</ele>
        <time>2000-01-01T03:10:26.000Z</time>
      </trkpt>
      <trkpt lat="45.1397" lon="2.7133">
        <ele>1374</ele>
        <time>2000-01-01T03:10:36.000Z</time>
      </trkpt>
      <trkpt lat="45.1396" lon="2.7133">
        <ele>1370.2</ele>
        <time>2000-01-01T03:10:46.000Z</time>
      </trkpt>
      <trkpt lat="45.13947" lon="2.71329">
        <ele>1373</ele>
        <time>2000-01-01T03:10:56.000Z</time>
      </trkpt>
      <trkpt lat="45.1393" lon="2.71322">
        <ele>1370.6</ele>
        <time>2000-01-01T03:11:06.000Z</time>
      </trkpt>
      <trkpt lat="45.13909" lon="2.7131">
        <ele>1369</ele>
        <time>2000-01-01T03:11:16.000Z</time>
      </trkpt>
      <trkpt lat="45.13891" lon="2.71297">
        <ele>1367</ele>
        <time>2000-01-01T03:11:26.000Z</time>
      </trkpt>
      <trkpt lat="45.13885" lon="2.7129">
        <ele>1373</ele>
        <time>2000-01-01T03:11:36.000Z</time>
      </trkpt>
      <trkpt lat="45.13882" lon="2.71281">
        <ele>1371.9</ele>
        <time>2000-01-01T03:11:46.000Z</time>
      </trkpt>
      <trkpt lat="45.13881" lon="2.71267">
        <ele>1361</ele>
        <time>2000-01-01T03:11:56.000Z</time>
      </trkpt>
      <trkpt lat="45.13882" lon="2.71248">
        <ele>1351.9</ele>
        <time>2000-01-01T03:12:06.000Z</time>
      </trkpt>
      <trkpt lat="45.13882" lon="2.71233">
        <ele>1354</ele>
        <time>2000-01-01T03:12:16.000Z</time>
      </trkpt>
      <trkpt lat="45.13878" lon="2.71218">
        <ele>1350.2</ele>
        <time>2000-01-01T03:12:26.000Z</time>
      </trkpt>
      <trkpt lat="45.13871" lon="2.71198">
        <ele>1349</ele>
        <time>2000-01-01T03:12:36.000Z</time>
      </trkpt>
      <trkpt lat="45.13864" lon="2.71186">
        <ele>1349.2</ele>
        <time>2000-01-01T03:12:46.000Z</time>
      </trkpt>
      <trkpt lat="45.13852" lon="2.71158">
        <ele>1343</ele>
        <time>2000-01-01T03:12:56.000Z</time>
      </trkpt>
      <trkpt lat="45.13833" lon="2.7113">
        <ele>1343</ele>
        <time>2000-01-01T03:13:06.000Z</time>
      </trkpt>
      <trkpt lat="45.13813" lon="2.71101">
        <ele>1341</ele>
        <time>2000-01-01T03:13:16.000Z</time>
      </trkpt>
      <trkpt lat="45.13808" lon="2.71094">
        <ele>1350.1</ele>
        <time>2000-01-01T03:13:26.000Z</time>
      </trkpt>
      <trkpt lat="45.13807" lon="2.71085">
        <ele>1349.3</ele>
        <time>2000-01-01T03:13:36.000Z</time>
      </trkpt>
      <trkpt lat="45.13802" lon="2.71052">
        <ele>1337</ele>
        <time>2000-01-01T03:13:46.000Z</time>
      </trkpt>
      <trkpt lat="45.13798" lon="2.71038">
        <ele>1336.4</ele>
        <time>2000-01-01T03:13:56.000Z</time>
      </trkpt>
      <trkpt lat="45.13795" lon="2.71029">
        <ele>1336.1</ele>
        <time>2000-01-01T03:14:06.000Z</time>
      </trkpt>
      <trkpt lat="45.1379" lon="2.7102">
        <ele>1333</ele>
        <time>2000-01-01T03:14:16.000Z</time>
      </trkpt>
      <trkpt lat="45.13784" lon="2.71011">
        <ele>1338.6</ele>
        <time>2000-01-01T03:14:26.000Z</time>
      </trkpt>
      <trkpt lat="45.1378" lon="2.71007">
        <ele>1340.1</ele>
        <time>2000-01-01T03:14:36.000Z</time>
      </trkpt>
      <trkpt lat="45.13773" lon="2.71002">
        <ele>1332</ele>
        <time>2000-01-01T03:14:46.000Z</time>
      </trkpt>
      <trkpt lat="45.13768" lon="2.70996">
        <ele>1337.4</ele>
        <time>2000-01-01T03:14:56.000Z</time>
      </trkpt>
      <trkpt lat="45.13765" lon="2.70989">
        <ele>1337.5</ele>
        <time>2000-01-01T03:15:06.000Z</time>
      </trkpt>
      <trkpt lat="45.13763" lon="2.70977">
        <ele>1333</ele>
        <time>2000-01-01T03:15:16.000Z</time>
      </trkpt>
      <trkpt lat="45.1376" lon="2.70963">
        <ele>1331.4</ele>
        <time>2000-01-01T03:15:26.000Z</time>
      </trkpt>
      <trkpt lat="45.13755" lon="2.70942">
        <ele>1335</ele>
        <time>2000-01-01T03:15:36.000Z</time>
      </trkpt>
      <trkpt lat="45.13742" lon="2.7091">
        <ele>1334</ele>
        <time>2000-01-01T03:15:46.000Z</time>
      </trkpt>
      <trkpt lat="45.13741" lon="2.709">
        <ele>1341.7</ele>
        <time>2000-01-01T03:15:56.000Z</time>
      </trkpt>
      <trkpt lat="45.13742" lon="2.70887">
        <ele>1341.8</ele>
        <time>2000-01-01T03:16:06.000Z</time>
      </trkpt>
      <trkpt lat="45.13747" lon="2.70871">
        <ele>1335</ele>
        <time>2000-01-01T03:16:16.000Z</time>
      </trkpt>
      <trkpt lat="45.13747" lon="2.70865">
        <ele>1339.6</ele>
        <time>2000-01-01T03:16:26.000Z</time>
      </trkpt>
      <trkpt lat="45.13747" lon="2.70862">
        <ele>1339.1</ele>
        <time>2000-01-01T03:16:36.000Z</time>
      </trkpt>
      <trkpt lat="45.13745" lon="2.70859">
        <ele>1338.7</ele>
        <time>2000-01-01T03:16:46.000Z</time>
      </trkpt>
      <trkpt lat="45.13738" lon="2.70856">
        <ele>1338.8</ele>
        <time>2000-01-01T03:16:56.000Z</time>
      </trkpt>
      <trkpt lat="45.13723" lon="2.70856">
        <ele>1336</ele>
        <time>2000-01-01T03:17:06.000Z</time>
      </trkpt>
      <trkpt lat="45.13713" lon="2.7086">
        <ele>1342.5</ele>
        <time>2000-01-01T03:17:16.000Z</time>
      </trkpt>
      <trkpt lat="45.13704" lon="2.70865">
        <ele>1343</ele>
        <time>2000-01-01T03:17:26.000Z</time>
      </trkpt>
      <trkpt lat="45.13694" lon="2.70871">
        <ele>1345.9</ele>
        <time>2000-01-01T03:17:36.000Z</time>
      </trkpt>
      <trkpt lat="45.13683" lon="2.70875">
        <ele>1347</ele>
        <time>2000-01-01T03:17:46.000Z</time>
      </trkpt>
      <trkpt lat="45.13676" lon="2.70876">
        <ele>1348.6</ele>
        <time>2000-01-01T03:17:56.000Z</time>
      </trkpt>
      <trkpt lat="45.13667" lon="2.70875">
        <ele>1348.8</ele>
        <time>2000-01-01T03:18:06.000Z</time>
      </trkpt>
      <trkpt lat="45.13658" lon="2.70869">
        <ele>1346</ele>
        <time>2000-01-01T03:18:16.000Z</time>
      </trkpt>
      <trkpt lat="45.13649" lon="2.70861">
        <ele>1361.1</ele>
        <time>2000-01-01T03:18:26.000Z</time>
      </trkpt>
      <trkpt lat="45.13641" lon="2.70849">
        <ele>1346</ele>
        <time>2000-01-01T03:18:36.000Z</time>
      </trkpt>
      <trkpt lat="45.13635" lon="2.7084">
        <ele>1360.3</ele>
        <time>2000-01-01T03:18:46.000Z</time>
      </trkpt>
      <trkpt lat="45.13626" lon="2.70832">
        <ele>1349</ele>
        <time>2000-01-01T03:18:56.000Z</time>
      </trkpt>
      <trkpt lat="45.13609" lon="2.70823">
        <ele>1345</ele>
        <time>2000-01-01T03:19:06.000Z</time>
      </trkpt>
      <trkpt lat="45.13592" lon="2.70815">
        <ele>1354</ele>
        <time>2000-01-01T03:19:16.000Z</time>
      </trkpt>
      <trkpt lat="45.13564" lon="2.70802">
        <ele>1358</ele>
        <time>2000-01-01T03:19:26.000Z</time>
      </trkpt>
      <trkpt lat="45.13543" lon="2.70791">
        <ele>1358</ele>
        <time>2000-01-01T03:19:36.000Z</time>
      </trkpt>
      <trkpt lat="45.1351" lon="2.70776">
        <ele>1359</ele>
        <time>2000-01-01T03:19:46.000Z</time>
      </trkpt>
      <trkpt lat="45.13488" lon="2.70767">
        <ele>1361</ele>
        <time>2000-01-01T03:19:56.000Z</time>
      </trkpt>
      <trkpt lat="45.13471" lon="2.70766">
        <ele>1367</ele>
        <time>2000-01-01T03:20:06.000Z</time>
      </trkpt>
      <trkpt lat="45.13461" lon="2.70763">
        <ele>1361</ele>
        <time>2000-01-01T03:20:16.000Z</time>
      </trkpt>
      <trkpt lat="45.1345" lon="2.70757">
        <ele>1370.1</ele>
        <time>2000-01-01T03:20:26.000Z</time>
      </trkpt>
      <trkpt lat="45.13442" lon="2.70747">
        <ele>1360</ele>
        <time>2000-01-01T03:20:36.000Z</time>
      </trkpt>
      <trkpt lat="45.13437" lon="2.70737">
        <ele>1352.7</ele>
        <time>2000-01-01T03:20:46.000Z</time>
      </trkpt>
      <trkpt lat="45.1343" lon="2.70726">
        <ele>1360</ele>
        <time>2000-01-01T03:20:56.000Z</time>
      </trkpt>
      <trkpt lat="45.13423" lon="2.70718">
        <ele>1348.7</ele>
        <time>2000-01-01T03:21:06.000Z</time>
      </trkpt>
      <trkpt lat="45.13421" lon="2.70716">
        <ele>1348.1</ele>
        <time>2000-01-01T03:21:16.000Z</time>
      </trkpt>
      <trkpt lat="45.13395" lon="2.70711">
        <ele>1362</ele>
        <time>2000-01-01T03:21:26.000Z</time>
      </trkpt>
      <trkpt lat="45.13369" lon="2.70705">
        <ele>1362</ele>
        <time>2000-01-01T03:21:36.000Z</time>
      </trkpt>
      <trkpt lat="45.13348" lon="2.70693">
        <ele>1360</ele>
        <time>2000-01-01T03:21:46.000Z</time>
      </trkpt>
      <trkpt lat="45.13321" lon="2.70673">
        <ele>1359</ele>
        <time>2000-01-01T03:21:56.000Z</time>
      </trkpt>
      <trkpt lat="45.13298" lon="2.70651">
        <ele>1355</ele>
        <time>2000-01-01T03:22:06.000Z</time>
      </trkpt>
      <trkpt lat="45.13285" lon="2.70641">
        <ele>1343.8</ele>
        <time>2000-01-01T03:22:16.000Z</time>
      </trkpt>
      <trkpt lat="45.13271" lon="2.7063">
        <ele>1350</ele>
        <time>2000-01-01T03:22:26.000Z</time>
      </trkpt>
      <trkpt lat="45.13252" lon="2.70606">
        <ele>1346</ele>
        <time>2000-01-01T03:22:36.000Z</time>
      </trkpt>
      <trkpt lat="45.13231" lon="2.7057">
        <ele>1344</ele>
        <time>2000-01-01T03:22:46.000Z</time>
      </trkpt>
      <trkpt lat="45.13211" lon="2.70535">
        <ele>1342</ele>
        <time>2000-01-01T03:22:56.000Z</time>
      </trkpt>
      <trkpt lat="45.13196" lon="2.70509">
        <ele>1337</ele>
        <time>2000-01-01T03:23:06.000Z</time>
      </trkpt>
      <trkpt lat="45.13184" lon="2.70486">
        <ele>1336</ele>
        <time>2000-01-01T03:23:16.000Z</time>
      </trkpt>
      <trkpt lat="45.13172" lon="2.70461">
        <ele>1333</ele>
        <time>2000-01-01T03:23:26.000Z</time>
      </trkpt>
      <trkpt lat="45.13156" lon="2.70426">
        <ele>1327</ele>
        <time>2000-01-01T03:23:36.000Z</time>
      </trkpt>
      <trkpt lat="45.13143" lon="2.70401">
        <ele>1324</ele>
        <time>2000-01-01T03:23:46.000Z</time>
      </trkpt>
      <trkpt lat="45.13135" lon="2.70388">
        <ele>1320.8</ele>
        <time>2000-01-01T03:23:56.000Z</time>
      </trkpt>
      <trkpt lat="45.13122" lon="2.70374">
        <ele>1324</ele>
        <time>2000-01-01T03:24:06.000Z</time>
      </trkpt>
      <trkpt lat="45.13106" lon="2.70357">
        <ele>1325</ele>
        <time>2000-01-01T03:24:16.000Z</time>
      </trkpt>
      <trkpt lat="45.1309" lon="2.70343">
        <ele>1324</ele>
        <time>2000-01-01T03:24:26.000Z</time>
      </trkpt>
      <trkpt lat="45.1308" lon="2.70334">
        <ele>1326</ele>
        <time>2000-01-01T03:24:36.000Z</time>
      </trkpt>
      <trkpt lat="45.13073" lon="2.70326">
        <ele>1325.6</ele>
        <time>2000-01-01T03:24:46.000Z</time>
      </trkpt>
      <trkpt lat="45.13065" lon="2.70315">
        <ele>1326</ele>
        <time>2000-01-01T03:24:56.000Z</time>
      </trkpt>
      <trkpt lat="45.13062" lon="2.70306">
        <ele>1324.6</ele>
        <time>2000-01-01T03:25:06.000Z</time>
      </trkpt>
      <trkpt lat="45.13058" lon="2.7029">
        <ele>1328</ele>
        <time>2000-01-01T03:25:16.000Z</time>
      </trkpt>
      <trkpt lat="45.13052" lon="2.70274">
        <ele>1324.6</ele>
        <time>2000-01-01T03:25:26.000Z</time>
      </trkpt>
      <trkpt lat="45.13045" lon="2.70265">
        <ele>1330</ele>
        <time>2000-01-01T03:25:36.000Z</time>
      </trkpt>
      <trkpt lat="45.13047" lon="2.70253">
        <ele>1324.9</ele>
        <time>2000-01-01T03:25:46.000Z</time>
      </trkpt>
      <trkpt lat="45.13048" lon="2.70253">
        <ele>1324.9</ele>
        <time>2000-01-01T03:25:56.000Z</time>
      </trkpt>
      <trkpt lat="45.13048" lon="2.70253">
        <ele>1324.9</ele>
        <time>2000-01-01T03:26:06.000Z</time>
      </trkpt>
      <trkpt lat="45.13047" lon="2.70253">
        <ele>1324.9</ele>
        <time>2000-01-01T03:26:16.000Z</time>
      </trkpt>
      <trkpt lat="45.13048" lon="2.70239">
        <ele>1332</ele>
        <time>2000-01-01T03:26:26.000Z</time>
      </trkpt>
      <trkpt lat="45.1304" lon="2.70236">
        <ele>1328</ele>
        <time>2000-01-01T03:26:36.000Z</time>
      </trkpt>
      <trkpt lat="45.1304" lon="2.70236">
        <ele>1328</ele>
        <time>2000-01-01T03:26:46.000Z</time>
      </trkpt>
      <trkpt lat="45.13041" lon="2.70237">
        <ele>1327.9</ele>
        <time>2000-01-01T03:26:56.000Z</time>
      </trkpt>
      <trkpt lat="45.1304" lon="2.70236">
        <ele>1328</ele>
        <time>2000-01-01T03:27:06.000Z</time>
      </trkpt>
      <trkpt lat="45.13037" lon="2.70236">
        <ele>1328.1</ele>
        <time>2000-01-01T03:27:16.000Z</time>
      </trkpt>
      <trkpt lat="45.13034" lon="2.70234">
        <ele>1328.3</ele>
        <time>2000-01-01T03:27:26.000Z</time>
      </trkpt>
      <trkpt lat="45.13031" lon="2.70233">
        <ele>1332</ele>
        <time>2000-01-01T03:27:36.000Z</time>
      </trkpt>
      <trkpt lat="45.13028" lon="2.70232">
        <ele>1328.6</ele>
        <time>2000-01-01T03:27:46.000Z</time>
      </trkpt>
      <trkpt lat="45.13025" lon="2.7023">
        <ele>1328.7</ele>
        <time>2000-01-01T03:27:56.000Z</time>
      </trkpt>
      <trkpt lat="45.13022" lon="2.70229">
        <ele>1328.8</ele>
        <time>2000-01-01T03:28:06.000Z</time>
      </trkpt>
      <trkpt lat="45.13019" lon="2.70227">
        <ele>1329</ele>
        <time>2000-01-01T03:28:16.000Z</time>
      </trkpt>
      <trkpt lat="45.13016" lon="2.70226">
        <ele>1329.1</ele>
        <time>2000-01-01T03:28:26.000Z</time>
      </trkpt>
      <trkpt lat="45.13012" lon="2.70224">
        <ele>1333</ele>
        <time>2000-01-01T03:28:36.000Z</time>
      </trkpt>
      <trkpt lat="45.13008" lon="2.70222">
        <ele>1329.4</ele>
        <time>2000-01-01T03:28:46.000Z</time>
      </trkpt>
      <trkpt lat="45.13005" lon="2.7022">
        <ele>1329.5</ele>
        <time>2000-01-01T03:28:56.000Z</time>
      </trkpt>
      <trkpt lat="45.13001" lon="2.70219">
        <ele>1329.6</ele>
        <time>2000-01-01T03:29:06.000Z</time>
      </trkpt>
      <trkpt lat="45.12997" lon="2.70217">
        <ele>1332.1</ele>
        <time>2000-01-01T03:29:16.000Z</time>
      </trkpt>
      <trkpt lat="45.12996" lon="2.70202">
        <ele>1334</ele>
        <time>2000-01-01T03:29:26.000Z</time>
      </trkpt>
      <trkpt lat="45.12996" lon="2.70196">
        <ele>1333.9</ele>
        <time>2000-01-01T03:29:36.000Z</time>
      </trkpt>
      <trkpt lat="45.12996" lon="2.70186">
        <ele>1334.8</ele>
        <time>2000-01-01T03:29:46.000Z</time>
      </trkpt>
      <trkpt lat="45.12997" lon="2.70177">
        <ele>1335.6</ele>
        <time>2000-01-01T03:29:56.000Z</time>
      </trkpt>
      <trkpt lat="45.12998" lon="2.70166">
        <ele>1337</ele>
        <time>2000-01-01T03:30:06.000Z</time>
      </trkpt>
      <trkpt lat="45.12999" lon="2.70158">
        <ele>1337.6</ele>
        <time>2000-01-01T03:30:16.000Z</time>
      </trkpt>
      <trkpt lat="45.12999" lon="2.70146">
        <ele>1337.9</ele>
        <time>2000-01-01T03:30:26.000Z</time>
      </trkpt>
      <trkpt lat="45.12999" lon="2.70137">
        <ele>1338</ele>
        <time>2000-01-01T03:30:36.000Z</time>
      </trkpt>
      <trkpt lat="45.12991" lon="2.70129">
        <ele>1338</ele>
        <time>2000-01-01T03:30:46.000Z</time>
      </trkpt>
      <trkpt lat="45.12989" lon="2.70129">
        <ele>1338</ele>
        <time>2000-01-01T03:30:56.000Z</time>
      </trkpt>
      <trkpt lat="45.12976" lon="2.70102">
        <ele>1341</ele>
        <time>2000-01-01T03:31:06.000Z</time>
      </trkpt>
      <trkpt lat="45.12949" lon="2.70072">
        <ele>1345</ele>
        <time>2000-01-01T03:31:16.000Z</time>
      </trkpt>
      <trkpt lat="45.12914" lon="2.7005">
        <ele>1348</ele>
        <time>2000-01-01T03:31:26.000Z</time>
      </trkpt>
      <trkpt lat="45.12878" lon="2.70031">
        <ele>1352</ele>
        <time>2000-01-01T03:31:36.000Z</time>
      </trkpt>
      <trkpt lat="45.12844" lon="2.70012">
        <ele>1352</ele>
        <time>2000-01-01T03:31:46.000Z</time>
      </trkpt>
      <trkpt lat="45.12816" lon="2.69994">
        <ele>1353</ele>
        <time>2000-01-01T03:31:56.000Z</time>
      </trkpt>
      <trkpt lat="45.12784" lon="2.6996">
        <ele>1353</ele>
        <time>2000-01-01T03:32:06.000Z</time>
      </trkpt>
      <trkpt lat="45.12766" lon="2.69926">
        <ele>1354</ele>
        <time>2000-01-01T03:32:16.000Z</time>
      </trkpt>
      <trkpt lat="45.12732" lon="2.69894">
        <ele>1354</ele>
        <time>2000-01-01T03:32:26.000Z</time>
      </trkpt>
      <trkpt lat="45.12691" lon="2.69859">
        <ele>1354</ele>
        <time>2000-01-01T03:32:36.000Z</time>
      </trkpt>
      <trkpt lat="45.1267" lon="2.69837">
        <ele>1352</ele>
        <time>2000-01-01T03:32:46.000Z</time>
      </trkpt>
      <trkpt lat="45.12642" lon="2.69808">
        <ele>1353</ele>
        <time>2000-01-01T03:32:56.000Z</time>
      </trkpt>
      <trkpt lat="45.12607" lon="2.69767">
        <ele>1354</ele>
        <time>2000-01-01T03:33:06.000Z</time>
      </trkpt>
      <trkpt lat="45.1259" lon="2.6974">
        <ele>1355</ele>
        <time>2000-01-01T03:33:16.000Z</time>
      </trkpt>
      <trkpt lat="45.12572" lon="2.69709">
        <ele>1357</ele>
        <time>2000-01-01T03:33:26.000Z</time>
      </trkpt>
      <trkpt lat="45.12543" lon="2.69664">
        <ele>1362</ele>
        <time>2000-01-01T03:33:36.000Z</time>
      </trkpt>
      <trkpt lat="45.12525" lon="2.69642">
        <ele>1368</ele>
        <time>2000-01-01T03:33:46.000Z</time>
      </trkpt>
      <trkpt lat="45.12505" lon="2.69619">
        <ele>1374</ele>
        <time>2000-01-01T03:33:56.000Z</time>
      </trkpt>
      <trkpt lat="45.12487" lon="2.69591">
        <ele>1379</ele>
        <time>2000-01-01T03:34:06.000Z</time>
      </trkpt>
      <trkpt lat="45.12467" lon="2.69544">
        <ele>1382</ele>
        <time>2000-01-01T03:34:16.000Z</time>
      </trkpt>
      <trkpt lat="45.12446" lon="2.69509">
        <ele>1382</ele>
        <time>2000-01-01T03:34:26.000Z</time>
      </trkpt>
      <trkpt lat="45.12413" lon="2.69479">
        <ele>1382</ele>
        <time>2000-01-01T03:34:36.000Z</time>
      </trkpt>
      <trkpt lat="45.12369" lon="2.6946">
        <ele>1382</ele>
        <time>2000-01-01T03:34:46.000Z</time>
      </trkpt>
      <trkpt lat="45.12345" lon="2.69452">
        <ele>1383</ele>
        <time>2000-01-01T03:34:56.000Z</time>
      </trkpt>
      <trkpt lat="45.12319" lon="2.69443">
        <ele>1383</ele>
        <time>2000-01-01T03:35:06.000Z</time>
      </trkpt>
      <trkpt lat="45.12281" lon="2.69432">
        <ele>1383</ele>
        <time>2000-01-01T03:35:16.000Z</time>
      </trkpt>
      <trkpt lat="45.12245" lon="2.69439">
        <ele>1384</ele>
        <time>2000-01-01T03:35:26.000Z</time>
      </trkpt>
      <trkpt lat="45.1221" lon="2.6943">
        <ele>1382</ele>
        <time>2000-01-01T03:35:36.000Z</time>
      </trkpt>
      <trkpt lat="45.12187" lon="2.69404">
        <ele>1381</ele>
        <time>2000-01-01T03:35:46.000Z</time>
      </trkpt>
      <trkpt lat="45.12166" lon="2.69368">
        <ele>1377</ele>
        <time>2000-01-01T03:35:56.000Z</time>
      </trkpt>
      <trkpt lat="45.12136" lon="2.6934">
        <ele>1377</ele>
        <time>2000-01-01T03:36:06.000Z</time>
      </trkpt>
      <trkpt lat="45.12107" lon="2.69331">
        <ele>1377</ele>
        <time>2000-01-01T03:36:16.000Z</time>
      </trkpt>
      <trkpt lat="45.1208" lon="2.69329">
        <ele>1376</ele>
        <time>2000-01-01T03:36:26.000Z</time>
      </trkpt>
      <trkpt lat="45.12045" lon="2.69327">
        <ele>1375</ele>
        <time>2000-01-01T03:36:36.000Z</time>
      </trkpt>
      <trkpt lat="45.12007" lon="2.69327">
        <ele>1374</ele>
        <time>2000-01-01T03:36:46.000Z</time>
      </trkpt>
      <trkpt lat="45.11975" lon="2.69316">
        <ele>1371</ele>
        <time>2000-01-01T03:36:56.000Z</time>
      </trkpt>
      <trkpt lat="45.11973" lon="2.69318">
        <ele>1367.7</ele>
        <time>2000-01-01T03:37:06.000Z</time>
      </trkpt>
      <trkpt lat="45.11948" lon="2.69308">
        <ele>1368</ele>
        <time>2000-01-01T03:37:16.000Z</time>
      </trkpt>
      <trkpt lat="45.11931" lon="2.69299">
        <ele>1367.1</ele>
        <time>2000-01-01T03:37:26.000Z</time>
      </trkpt>
      <trkpt lat="45.11915" lon="2.69289">
        <ele>1368</ele>
        <time>2000-01-01T03:37:36.000Z</time>
      </trkpt>
      <trkpt lat="45.11901" lon="2.69277">
        <ele>1369.1</ele>
        <time>2000-01-01T03:37:46.000Z</time>
      </trkpt>
      <trkpt lat="45.11891" lon="2.69265">
        <ele>1370</ele>
        <time>2000-01-01T03:37:56.000Z</time>
      </trkpt>
      <trkpt lat="45.11881" lon="2.69251">
        <ele>1369.7</ele>
        <time>2000-01-01T03:38:06.000Z</time>
      </trkpt>
      <trkpt lat="45.11872" lon="2.69241">
        <ele>1371</ele>
        <time>2000-01-01T03:38:16.000Z</time>
      </trkpt>
      <trkpt lat="45.11866" lon="2.69238">
        <ele>1365.7</ele>
        <time>2000-01-01T03:38:26.000Z</time>
      </trkpt>
      <trkpt lat="45.11844" lon="2.69228">
        <ele>1372</ele>
        <time>2000-01-01T03:38:36.000Z</time>
      </trkpt>
      <trkpt lat="45.11817" lon="2.69212">
        <ele>1375</ele>
        <time>2000-01-01T03:38:46.000Z</time>
      </trkpt>
      <trkpt lat="45.11794" lon="2.69195">
        <ele>1376</ele>
        <time>2000-01-01T03:38:56.000Z</time>
      </trkpt>
      <trkpt lat="45.11778" lon="2.69181">
        <ele>1376</ele>
        <time>2000-01-01T03:39:06.000Z</time>
      </trkpt>
      <trkpt lat="45.11764" lon="2.69169">
        <ele>1373.2</ele>
        <time>2000-01-01T03:39:16.000Z</time>
      </trkpt>
      <trkpt lat="45.11746" lon="2.69157">
        <ele>1377</ele>
        <time>2000-01-01T03:39:26.000Z</time>
      </trkpt>
      <trkpt lat="45.11727" lon="2.69147">
        <ele>1377</ele>
        <time>2000-01-01T03:39:36.000Z</time>
      </trkpt>
      <trkpt lat="45.11715" lon="2.69138">
        <ele>1371.4</ele>
        <time>2000-01-01T03:39:46.000Z</time>
      </trkpt>
      <trkpt lat="45.11715" lon="2.69138">
        <ele>1371.4</ele>
        <time>2000-01-01T03:39:56.000Z</time>
      </trkpt>
      <trkpt lat="45.11714" lon="2.6914">
        <ele>1371.6</ele>
        <time>2000-01-01T03:40:06.000Z</time>
      </trkpt>
      <trkpt lat="45.11714" lon="2.6914">
        <ele>1371.6</ele>
        <time>2000-01-01T03:40:16.000Z</time>
      </trkpt>
      <trkpt lat="45.11715" lon="2.69138">
        <ele>1371.4</ele>
        <time>2000-01-01T03:40:26.000Z</time>
      </trkpt>
      <trkpt lat="45.11698" lon="2.69121">
        <ele>1377</ele>
        <time>2000-01-01T03:40:36.000Z</time>
      </trkpt>
      <trkpt lat="45.11686" lon="2.69112">
        <ele>1371.2</ele>
        <time>2000-01-01T03:40:46.000Z</time>
      </trkpt>
      <trkpt lat="45.11678" lon="2.69108">
        <ele>1375</ele>
        <time>2000-01-01T03:40:56.000Z</time>
      </trkpt>
      <trkpt lat="45.1166" lon="2.69104">
        <ele>1374.1</ele>
        <time>2000-01-01T03:41:06.000Z</time>
      </trkpt>
      <trkpt lat="45.1165" lon="2.691">
        <ele>1375</ele>
        <time>2000-01-01T03:41:16.000Z</time>
      </trkpt>
      <trkpt lat="45.11643" lon="2.69095">
        <ele>1374.5</ele>
        <time>2000-01-01T03:41:26.000Z</time>
      </trkpt>
      <trkpt lat="45.11638" lon="2.69091">
        <ele>1374.7</ele>
        <time>2000-01-01T03:41:36.000Z</time>
      </trkpt>
      <trkpt lat="45.11625" lon="2.69074">
        <ele>1375</ele>
        <time>2000-01-01T03:41:46.000Z</time>
      </trkpt>
      <trkpt lat="45.11602" lon="2.6904">
        <ele>1375</ele>
        <time>2000-01-01T03:41:56.000Z</time>
      </trkpt>
      <trkpt lat="45.11584" lon="2.69017">
        <ele>1375</ele>
        <time>2000-01-01T03:42:06.000Z</time>
      </trkpt>
      <trkpt lat="45.11576" lon="2.69012">
        <ele>1373.7</ele>
        <time>2000-01-01T03:42:16.000Z</time>
      </trkpt>
      <trkpt lat="45.11564" lon="2.69007">
        <ele>1375</ele>
        <time>2000-01-01T03:42:26.000Z</time>
      </trkpt>
      <trkpt lat="45.11542" lon="2.68998">
        <ele>1376</ele>
        <time>2000-01-01T03:42:36.000Z</time>
      </trkpt>
      <trkpt lat="45.11526" lon="2.68989">
        <ele>1373.3</ele>
        <time>2000-01-01T03:42:46.000Z</time>
      </trkpt>
      <trkpt lat="45.11504" lon="2.68974">
        <ele>1378</ele>
        <time>2000-01-01T03:42:56.000Z</time>
      </trkpt>
      <trkpt lat="45.11494" lon="2.68965">
        <ele>1380.6</ele>
        <time>2000-01-01T03:43:06.000Z</time>
      </trkpt>
      <trkpt lat="45.1149" lon="2.68959">
        <ele>1380.6</ele>
        <time>2000-01-01T03:43:16.000Z</time>
      </trkpt>
      <trkpt lat="45.11485" lon="2.68952">
        <ele>1380</ele>
        <time>2000-01-01T03:43:26.000Z</time>
      </trkpt>
      <trkpt lat="45.11475" lon="2.68942">
        <ele>1380.6</ele>
        <time>2000-01-01T03:43:36.000Z</time>
      </trkpt>
      <trkpt lat="45.11455" lon="2.68923">
        <ele>1380</ele>
        <time>2000-01-01T03:43:46.000Z</time>
      </trkpt>
      <trkpt lat="45.11422" lon="2.68898">
        <ele>1382</ele>
        <time>2000-01-01T03:43:56.000Z</time>
      </trkpt>
      <trkpt lat="45.11414" lon="2.6889">
        <ele>1391.9</ele>
        <time>2000-01-01T03:44:06.000Z</time>
      </trkpt>
      <trkpt lat="45.1141" lon="2.68879">
        <ele>1392.6</ele>
        <time>2000-01-01T03:44:16.000Z</time>
      </trkpt>
      <trkpt lat="45.11409" lon="2.68872">
        <ele>1389</ele>
        <time>2000-01-01T03:44:26.000Z</time>
      </trkpt>
      <trkpt lat="45.11409" lon="2.68861">
        <ele>1392.4</ele>
        <time>2000-01-01T03:44:36.000Z</time>
      </trkpt>
      <trkpt lat="45.1141" lon="2.68842">
        <ele>1390</ele>
        <time>2000-01-01T03:44:46.000Z</time>
      </trkpt>
      <trkpt lat="45.11408" lon="2.68831">
        <ele>1390.4</ele>
        <time>2000-01-01T03:44:56.000Z</time>
      </trkpt>
      <trkpt lat="45.11405" lon="2.68815">
        <ele>1392</ele>
        <time>2000-01-01T03:45:06.000Z</time>
      </trkpt>
      <trkpt lat="45.11397" lon="2.68784">
        <ele>1395</ele>
        <time>2000-01-01T03:45:16.000Z</time>
      </trkpt>
      <trkpt lat="45.11397" lon="2.68773">
        <ele>1394.4</ele>
        <time>2000-01-01T03:45:26.000Z</time>
      </trkpt>
      <trkpt lat="45.11399" lon="2.68759">
        <ele>1392.8</ele>
        <time>2000-01-01T03:45:36.000Z</time>
      </trkpt>
      <trkpt lat="45.11404" lon="2.68741">
        <ele>1396</ele>
        <time>2000-01-01T03:45:46.000Z</time>
      </trkpt>
      <trkpt lat="45.11406" lon="2.68732">
        <ele>1392.7</ele>
        <time>2000-01-01T03:45:56.000Z</time>
      </trkpt>
      <trkpt lat="45.11406" lon="2.68724">
        <ele>1393.6</ele>
        <time>2000-01-01T03:46:06.000Z</time>
      </trkpt>
      <trkpt lat="45.11403" lon="2.68717">
        <ele>1394.4</ele>
        <time>2000-01-01T03:46:16.000Z</time>
      </trkpt>
      <trkpt lat="45.11398" lon="2.68711">
        <ele>1397</ele>
        <time>2000-01-01T03:46:26.000Z</time>
      </trkpt>
      <trkpt lat="45.11393" lon="2.68706">
        <ele>1395.7</ele>
        <time>2000-01-01T03:46:36.000Z</time>
      </trkpt>
      <trkpt lat="45.11391" lon="2.68703">
        <ele>1396</ele>
        <time>2000-01-01T03:46:46.000Z</time>
      </trkpt>
      <trkpt lat="45.1139" lon="2.68698">
        <ele>1396</ele>
        <time>2000-01-01T03:46:56.000Z</time>
      </trkpt>
      <trkpt lat="45.11392" lon="2.68687">
        <ele>1399</ele>
        <time>2000-01-01T03:47:06.000Z</time>
      </trkpt>
      <trkpt lat="45.11395" lon="2.68676">
        <ele>1394.4</ele>
        <time>2000-01-01T03:47:16.000Z</time>
      </trkpt>
      <trkpt lat="45.11396" lon="2.68668">
        <ele>1393.9</ele>
        <time>2000-01-01T03:47:26.000Z</time>
      </trkpt>
      <trkpt lat="45.11395" lon="2.68658">
        <ele>1402</ele>
        <time>2000-01-01T03:47:36.000Z</time>
      </trkpt>
      <trkpt lat="45.11386" lon="2.68632">
        <ele>1405</ele>
        <time>2000-01-01T03:47:46.000Z</time>
      </trkpt>
      <trkpt lat="45.11381" lon="2.68627">
        <ele>1398.6</ele>
        <time>2000-01-01T03:47:56.000Z</time>
      </trkpt>
      <trkpt lat="45.11369" lon="2.68622">
        <ele>1400</ele>
        <time>2000-01-01T03:48:06.000Z</time>
      </trkpt>
      <trkpt lat="45.11357" lon="2.68618">
        <ele>1409</ele>
        <time>2000-01-01T03:48:16.000Z</time>
      </trkpt>
      <trkpt lat="45.11343" lon="2.68611">
        <ele>1402.9</ele>
        <time>2000-01-01T03:48:26.000Z</time>
      </trkpt>
      <trkpt lat="45.11335" lon="2.68605">
        <ele>1412</ele>
        <time>2000-01-01T03:48:36.000Z</time>
      </trkpt>
      <trkpt lat="45.11327" lon="2.686">
        <ele>1411.1</ele>
        <time>2000-01-01T03:48:46.000Z</time>
      </trkpt>
      <trkpt lat="45.11324" lon="2.686">
        <ele>1411.3</ele>
        <time>2000-01-01T03:48:56.000Z</time>
      </trkpt>
      <trkpt lat="45.11313" lon="2.68606">
        <ele>1413</ele>
        <time>2000-01-01T03:49:06.000Z</time>
      </trkpt>
      <trkpt lat="45.11305" lon="2.68616">
        <ele>1412.7</ele>
        <time>2000-01-01T03:49:16.000Z</time>
      </trkpt>
      <trkpt lat="45.11296" lon="2.68629">
        <ele>1414</ele>
        <time>2000-01-01T03:49:26.000Z</time>
      </trkpt>
      <trkpt lat="45.11296" lon="2.68634">
        <ele>1413.2</ele>
        <time>2000-01-01T03:49:36.000Z</time>
      </trkpt>
      <trkpt lat="45.11296" lon="2.68641">
        <ele>1413.1</ele>
        <time>2000-01-01T03:49:46.000Z</time>
      </trkpt>
      <trkpt lat="45.11277" lon="2.68641">
        <ele>1416</ele>
        <time>2000-01-01T03:49:56.000Z</time>
      </trkpt>
      <trkpt lat="45.11275" lon="2.68641">
        <ele>1414.5</ele>
        <time>2000-01-01T03:50:06.000Z</time>
      </trkpt>
      <trkpt lat="45.11263" lon="2.68638">
        <ele>1415.1</ele>
        <time>2000-01-01T03:50:16.000Z</time>
      </trkpt>
      <trkpt lat="45.1125" lon="2.68636">
        <ele>1417</ele>
        <time>2000-01-01T03:50:26.000Z</time>
      </trkpt>
      <trkpt lat="45.11239" lon="2.68632">
        <ele>1420.1</ele>
        <time>2000-01-01T03:50:36.000Z</time>
      </trkpt>
      <trkpt lat="45.11237" lon="2.68631">
        <ele>1420.1</ele>
        <time>2000-01-01T03:50:46.000Z</time>
      </trkpt>
      <trkpt lat="45.11222" lon="2.68624">
        <ele>1420</ele>
        <time>2000-01-01T03:50:56.000Z</time>
      </trkpt>
      <trkpt lat="45.11203" lon="2.68612">
        <ele>1422</ele>
        <time>2000-01-01T03:51:06.000Z</time>
      </trkpt>
      <trkpt lat="45.11164" lon="2.68589">
        <ele>1428</ele>
        <time>2000-01-01T03:51:16.000Z</time>
      </trkpt>
      <trkpt lat="45.11122" lon="2.68561">
        <ele>1432</ele>
        <time>2000-01-01T03:51:26.000Z</time>
      </trkpt>
      <trkpt lat="45.11102" lon="2.68545">
        <ele>1435</ele>
        <time>2000-01-01T03:51:36.000Z</time>
      </trkpt>
      <trkpt lat="45.11091" lon="2.6853">
        <ele>1431.2</ele>
        <time>2000-01-01T03:51:46.000Z</time>
      </trkpt>
      <trkpt lat="45.11087" lon="2.68522">
        <ele>1437</ele>
        <time>2000-01-01T03:51:56.000Z</time>
      </trkpt>
      <trkpt lat="45.11085" lon="2.6851">
        <ele>1436</ele>
        <time>2000-01-01T03:52:06.000Z</time>
      </trkpt>
      <trkpt lat="45.11085" lon="2.68499">
        <ele>1440.7</ele>
        <time>2000-01-01T03:52:16.000Z</time>
      </trkpt>
      <trkpt lat="45.11085" lon="2.68495">
        <ele>1439</ele>
        <time>2000-01-01T03:52:26.000Z</time>
      </trkpt>
      <trkpt lat="45.11085" lon="2.68484">
        <ele>1444.8</ele>
        <time>2000-01-01T03:52:36.000Z</time>
      </trkpt>
      <trkpt lat="45.11083" lon="2.68474">
        <ele>1448.4</ele>
        <time>2000-01-01T03:52:46.000Z</time>
      </trkpt>
      <trkpt lat="45.11075" lon="2.68468">
        <ele>1443</ele>
        <time>2000-01-01T03:52:56.000Z</time>
      </trkpt>
      <trkpt lat="45.11049" lon="2.68445">
        <ele>1445</ele>
        <time>2000-01-01T03:53:06.000Z</time>
      </trkpt>
      <trkpt lat="45.11032" lon="2.68426">
        <ele>1449</ele>
        <time>2000-01-01T03:53:16.000Z</time>
      </trkpt>
      <trkpt lat="45.1103" lon="2.68416">
        <ele>1474.1</ele>
        <time>2000-01-01T03:53:26.000Z</time>
      </trkpt>
      <trkpt lat="45.11022" lon="2.68401">
        <ele>1453</ele>
        <time>2000-01-01T03:53:36.000Z</time>
      </trkpt>
      <trkpt lat="45.11013" lon="2.68379">
        <ele>1479.1</ele>
        <time>2000-01-01T03:53:46.000Z</time>
      </trkpt>
      <trkpt lat="45.11006" lon="2.68364">
        <ele>1465</ele>
        <time>2000-01-01T03:53:56.000Z</time>
      </trkpt>
      <trkpt lat="45.11002" lon="2.68349">
        <ele>1487</ele>
        <time>2000-01-01T03:54:06.000Z</time>
      </trkpt>
      <trkpt lat="45.10994" lon="2.68336">
        <ele>1469</ele>
        <time>2000-01-01T03:54:16.000Z</time>
      </trkpt>
      <trkpt lat="45.1098" lon="2.68323">
        <ele>1496.9</ele>
        <time>2000-01-01T03:54:26.000Z</time>
      </trkpt>
      <trkpt lat="45.10967" lon="2.68314">
        <ele>1473</ele>
        <time>2000-01-01T03:54:36.000Z</time>
      </trkpt>
      <trkpt lat="45.10961" lon="2.68306">
        <ele>1498.6</ele>
        <time>2000-01-01T03:54:46.000Z</time>
      </trkpt>
      <trkpt lat="45.10969" lon="2.68304">
        <ele>1500.1</ele>
        <time>2000-01-01T03:54:56.000Z</time>
      </trkpt>
      <trkpt lat="45.10979" lon="2.68302">
        <ele>1481</ele>
        <time>2000-01-01T03:55:06.000Z</time>
      </trkpt>
      <trkpt lat="45.10988" lon="2.68308">
        <ele>1500.2</ele>
        <time>2000-01-01T03:55:16.000Z</time>
      </trkpt>
      <trkpt lat="45.10989" lon="2.68301">
        <ele>1502.3</ele>
        <time>2000-01-01T03:55:26.000Z</time>
      </trkpt>
      <trkpt lat="45.10985" lon="2.68295">
        <ele>1488</ele>
        <time>2000-01-01T03:55:36.000Z</time>
      </trkpt>
      <trkpt lat="45.10998" lon="2.68298">
        <ele>1503.8</ele>
        <time>2000-01-01T03:55:46.000Z</time>
      </trkpt>
      <trkpt lat="45.11002" lon="2.68304">
        <ele>1492</ele>
        <time>2000-01-01T03:55:56.000Z</time>
      </trkpt>
      <trkpt lat="45.11008" lon="2.68306">
        <ele>1509.6</ele>
        <time>2000-01-01T03:56:06.000Z</time>
      </trkpt>
      <trkpt lat="45.11016" lon="2.68313">
        <ele>1508</ele>
        <time>2000-01-01T03:56:16.000Z</time>
      </trkpt>
      <trkpt lat="45.11024" lon="2.68321">
        <ele>1493</ele>
        <time>2000-01-01T03:56:26.000Z</time>
      </trkpt>
      <trkpt lat="45.11031" lon="2.68335">
        <ele>1487.8</ele>
        <time>2000-01-01T03:56:36.000Z</time>
      </trkpt>
      <trkpt lat="45.11039" lon="2.68344">
        <ele>1495</ele>
        <time>2000-01-01T03:56:46.000Z</time>
      </trkpt>
      <trkpt lat="45.11047" lon="2.68353">
        <ele>1487.3</ele>
        <time>2000-01-01T03:56:56.000Z</time>
      </trkpt>
      <trkpt lat="45.11056" lon="2.68355">
        <ele>1496</ele>
        <time>2000-01-01T03:57:06.000Z</time>
      </trkpt>
      <trkpt lat="45.11063" lon="2.68355">
        <ele>1489.5</ele>
        <time>2000-01-01T03:57:16.000Z</time>
      </trkpt>
      <trkpt lat="45.11073" lon="2.68358">
        <ele>1490.2</ele>
        <time>2000-01-01T03:57:26.000Z</time>
      </trkpt>
      <trkpt lat="45.11078" lon="2.68361">
        <ele>1497</ele>
        <time>2000-01-01T03:57:36.000Z</time>
      </trkpt>
      <trkpt lat="45.11089" lon="2.68356">
        <ele>1488.4</ele>
        <time>2000-01-01T03:57:46.000Z</time>
      </trkpt>
      <trkpt lat="45.11095" lon="2.68351">
        <ele>1489.2</ele>
        <time>2000-01-01T03:57:56.000Z</time>
      </trkpt>
      <trkpt lat="45.1108" lon="2.68338">
        <ele>1513</ele>
        <time>2000-01-01T03:58:06.000Z</time>
      </trkpt>
      <trkpt lat="45.11066" lon="2.68322">
        <ele>1510.3</ele>
        <time>2000-01-01T03:58:16.000Z</time>
      </trkpt>
      <trkpt lat="45.1106" lon="2.68307">
        <ele>1521</ele>
        <time>2000-01-01T03:58:26.000Z</time>
      </trkpt>
      <trkpt lat="45.11069" lon="2.68309">
        <ele>1512.6</ele>
        <time>2000-01-01T03:58:36.000Z</time>
      </trkpt>
      <trkpt lat="45.11073" lon="2.68299">
        <ele>1514.8</ele>
        <time>2000-01-01T03:58:46.000Z</time>
      </trkpt>
      <trkpt lat="45.11071" lon="2.68293">
        <ele>1526</ele>
        <time>2000-01-01T03:58:56.000Z</time>
      </trkpt>
      <trkpt lat="45.11081" lon="2.68292">
        <ele>1516.5</ele>
        <time>2000-01-01T03:59:06.000Z</time>
      </trkpt>
      <trkpt lat="45.11085" lon="2.68296">
        <ele>1507.4</ele>
        <time>2000-01-01T03:59:16.000Z</time>
      </trkpt>
      <trkpt lat="45.11096" lon="2.68293">
        <ele>1529</ele>
        <time>2000-01-01T03:59:26.000Z</time>
      </trkpt>
      <trkpt lat="45.111" lon="2.6829">
        <ele>1507.1</ele>
        <time>2000-01-01T03:59:36.000Z</time>
      </trkpt>
      <trkpt lat="45.11109" lon="2.68283">
        <ele>1506.9</ele>
        <time>2000-01-01T03:59:46.000Z</time>
      </trkpt>
      <trkpt lat="45.11115" lon="2.68276">
        <ele>1530</ele>
        <time>2000-01-01T03:59:56.000Z</time>
      </trkpt>
      <trkpt lat="45.11115" lon="2.68259">
        <ele>1509.3</ele>
        <time>2000-01-01T04:00:06.000Z</time>
      </trkpt>
      <trkpt lat="45.11118" lon="2.68247">
        <ele>1530</ele>
        <time>2000-01-01T04:00:16.000Z</time>
      </trkpt>
      <trkpt lat="45.11117" lon="2.6823">
        <ele>1523.3</ele>
        <time>2000-01-01T04:00:26.000Z</time>
      </trkpt>
      <trkpt lat="45.11117" lon="2.68217">
        <ele>1526</ele>
        <time>2000-01-01T04:00:36.000Z</time>
      </trkpt>
      <trkpt lat="45.1112" lon="2.68205">
        <ele>1525.5</ele>
        <time>2000-01-01T04:00:46.000Z</time>
      </trkpt>
      <trkpt lat="45.11128" lon="2.68197">
        <ele>1524.8</ele>
        <time>2000-01-01T04:00:56.000Z</time>
      </trkpt>
      <trkpt lat="45.11137" lon="2.6819">
        <ele>1525</ele>
        <time>2000-01-01T04:01:06.000Z</time>
      </trkpt>
      <trkpt lat="45.11144" lon="2.68186">
        <ele>1522.5</ele>
        <time>2000-01-01T04:01:16.000Z</time>
      </trkpt>
      <trkpt lat="45.11148" lon="2.68175">
        <ele>1522.1</ele>
        <time>2000-01-01T04:01:26.000Z</time>
      </trkpt>
      <trkpt lat="45.11153" lon="2.68171">
        <ele>1525</ele>
        <time>2000-01-01T04:01:36.000Z</time>
      </trkpt>
      <trkpt lat="45.11158" lon="2.68163">
        <ele>1525.3</ele>
        <time>2000-01-01T04:01:46.000Z</time>
      </trkpt>
      <trkpt lat="45.11166" lon="2.68155">
        <ele>1526.4</ele>
        <time>2000-01-01T04:01:56.000Z</time>
      </trkpt>
      <trkpt lat="45.11168" lon="2.68142">
        <ele>1531</ele>
        <time>2000-01-01T04:02:06.000Z</time>
      </trkpt>
      <trkpt lat="45.11169" lon="2.68127">
        <ele>1509.1</ele>
        <time>2000-01-01T04:02:16.000Z</time>
      </trkpt>
      <trkpt lat="45.1117" lon="2.68119">
        <ele>1510.2</ele>
        <time>2000-01-01T04:02:26.000Z</time>
      </trkpt>
      <trkpt lat="45.11167" lon="2.68111">
        <ele>1534</ele>
        <time>2000-01-01T04:02:36.000Z</time>
      </trkpt>
      <trkpt lat="45.11162" lon="2.68098">
        <ele>1536.1</ele>
        <time>2000-01-01T04:02:46.000Z</time>
      </trkpt>
      <trkpt lat="45.11165" lon="2.68086">
        <ele>1533.9</ele>
        <time>2000-01-01T04:02:56.000Z</time>
      </trkpt>
      <trkpt lat="45.1117" lon="2.68073">
        <ele>1533</ele>
        <time>2000-01-01T04:03:06.000Z</time>
      </trkpt>
      <trkpt lat="45.11176" lon="2.68067">
        <ele>1521.1</ele>
        <time>2000-01-01T04:03:16.000Z</time>
      </trkpt>
      <trkpt lat="45.1118" lon="2.68051">
        <ele>1533</ele>
        <time>2000-01-01T04:03:26.000Z</time>
      </trkpt>
      <trkpt lat="45.11186" lon="2.68038">
        <ele>1516.7</ele>
        <time>2000-01-01T04:03:36.000Z</time>
      </trkpt>
      <trkpt lat="45.11189" lon="2.68024">
        <ele>1534</ele>
        <time>2000-01-01T04:03:46.000Z</time>
      </trkpt>
      <trkpt lat="45.1119" lon="2.68">
        <ele>1521.6</ele>
        <time>2000-01-01T04:03:56.000Z</time>
      </trkpt>
      <trkpt lat="45.11192" lon="2.67976">
        <ele>1540</ele>
        <time>2000-01-01T04:04:06.000Z</time>
      </trkpt>
      <trkpt lat="45.11183" lon="2.67983">
        <ele>1526</ele>
        <time>2000-01-01T04:04:16.000Z</time>
      </trkpt>
      <trkpt lat="45.11168" lon="2.68008">
        <ele>1549</ele>
        <time>2000-01-01T04:04:26.000Z</time>
      </trkpt>
      <trkpt lat="45.11153" lon="2.67999">
        <ele>1550.9</ele>
        <time>2000-01-01T04:04:36.000Z</time>
      </trkpt>
      <trkpt lat="45.11155" lon="2.6799">
        <ele>1555</ele>
        <time>2000-01-01T04:04:46.000Z</time>
      </trkpt>
      <trkpt lat="45.11137" lon="2.6797">
        <ele>1562</ele>
        <time>2000-01-01T04:04:56.000Z</time>
      </trkpt>
      <trkpt lat="45.11129" lon="2.67975">
        <ele>1559.1</ele>
        <time>2000-01-01T04:05:06.000Z</time>
      </trkpt>
      <trkpt lat="45.1112" lon="2.67993">
        <ele>1563</ele>
        <time>2000-01-01T04:05:16.000Z</time>
      </trkpt>
      <trkpt lat="45.1111" lon="2.68009">
        <ele>1559.2</ele>
        <time>2000-01-01T04:05:26.000Z</time>
      </trkpt>
      <trkpt lat="45.11106" lon="2.68037">
        <ele>1565</ele>
        <time>2000-01-01T04:05:36.000Z</time>
      </trkpt>
      <trkpt lat="45.11097" lon="2.68054">
        <ele>1556.5</ele>
        <time>2000-01-01T04:05:46.000Z</time>
      </trkpt>
      <trkpt lat="45.11092" lon="2.68075">
        <ele>1565</ele>
        <time>2000-01-01T04:05:56.000Z</time>
      </trkpt>
      <trkpt lat="45.1108" lon="2.68096">
        <ele>1566</ele>
        <time>2000-01-01T04:06:06.000Z</time>
      </trkpt>
      <trkpt lat="45.11071" lon="2.68109">
        <ele>1563.8</ele>
        <time>2000-01-01T04:06:16.000Z</time>
      </trkpt>
      <trkpt lat="45.11065" lon="2.68117">
        <ele>1568</ele>
        <time>2000-01-01T04:06:26.000Z</time>
      </trkpt>
      <trkpt lat="45.11059" lon="2.68128">
        <ele>1563.9</ele>
        <time>2000-01-01T04:06:36.000Z</time>
      </trkpt>
      <trkpt lat="45.11041" lon="2.68142">
        <ele>1573</ele>
        <time>2000-01-01T04:06:46.000Z</time>
      </trkpt>
      <trkpt lat="45.11023" lon="2.6815">
        <ele>1567</ele>
        <time>2000-01-01T04:06:56.000Z</time>
      </trkpt>
      <trkpt lat="45.10999" lon="2.68139">
        <ele>1575</ele>
        <time>2000-01-01T04:07:06.000Z</time>
      </trkpt>
      <trkpt lat="45.10988" lon="2.68138">
        <ele>1571.3</ele>
        <time>2000-01-01T04:07:16.000Z</time>
      </trkpt>
      <trkpt lat="45.1097" lon="2.68126">
        <ele>1577</ele>
        <time>2000-01-01T04:07:26.000Z</time>
      </trkpt>
      <trkpt lat="45.10952" lon="2.68115">
        <ele>1579</ele>
        <time>2000-01-01T04:07:36.000Z</time>
      </trkpt>
      <trkpt lat="45.10939" lon="2.68099">
        <ele>1572.7</ele>
        <time>2000-01-01T04:07:46.000Z</time>
      </trkpt>
      <trkpt lat="45.10931" lon="2.68091">
        <ele>1582</ele>
        <time>2000-01-01T04:07:56.000Z</time>
      </trkpt>
      <trkpt lat="45.10922" lon="2.68082">
        <ele>1579.5</ele>
        <time>2000-01-01T04:08:06.000Z</time>
      </trkpt>
      <trkpt lat="45.10886" lon="2.68061">
        <ele>1591</ele>
        <time>2000-01-01T04:08:16.000Z</time>
      </trkpt>
      <trkpt lat="45.10855" lon="2.68043">
        <ele>1596</ele>
        <time>2000-01-01T04:08:26.000Z</time>
      </trkpt>
      <trkpt lat="45.10841" lon="2.68044">
        <ele>1594.1</ele>
        <time>2000-01-01T04:08:36.000Z</time>
      </trkpt>
      <trkpt lat="45.10808" lon="2.68043">
        <ele>1600</ele>
        <time>2000-01-01T04:08:46.000Z</time>
      </trkpt>
      <trkpt lat="45.10783" lon="2.68045">
        <ele>1603</ele>
        <time>2000-01-01T04:08:56.000Z</time>
      </trkpt>
      <trkpt lat="45.10758" lon="2.68053">
        <ele>1603</ele>
        <time>2000-01-01T04:09:06.000Z</time>
      </trkpt>
      <trkpt lat="45.10728" lon="2.68059">
        <ele>1607</ele>
        <time>2000-01-01T04:09:16.000Z</time>
      </trkpt>
      <trkpt lat="45.10704" lon="2.68068">
        <ele>1607</ele>
        <time>2000-01-01T04:09:26.000Z</time>
      </trkpt>
      <trkpt lat="45.10686" lon="2.68075">
        <ele>1597.5</ele>
        <time>2000-01-01T04:09:36.000Z</time>
      </trkpt>
      <trkpt lat="45.10678" lon="2.68083">
        <ele>1607</ele>
        <time>2000-01-01T04:09:46.000Z</time>
      </trkpt>
      <trkpt lat="45.10664" lon="2.68081">
        <ele>1594.3</ele>
        <time>2000-01-01T04:09:56.000Z</time>
      </trkpt>
      <trkpt lat="45.10668" lon="2.68063">
        <ele>1611</ele>
        <time>2000-01-01T04:10:06.000Z</time>
      </trkpt>
      <trkpt lat="45.10673" lon="2.68037">
        <ele>1617</ele>
        <time>2000-01-01T04:10:16.000Z</time>
      </trkpt>
      <trkpt lat="45.10669" lon="2.68045">
        <ele>1600.5</ele>
        <time>2000-01-01T04:10:26.000Z</time>
      </trkpt>
      <trkpt lat="45.10675" lon="2.68033">
        <ele>1601.9</ele>
        <time>2000-01-01T04:10:36.000Z</time>
      </trkpt>
      <trkpt lat="45.10676" lon="2.6803">
        <ele>1602.2</ele>
        <time>2000-01-01T04:10:46.000Z</time>
      </trkpt>
      <trkpt lat="45.10681" lon="2.68023">
        <ele>1620</ele>
        <time>2000-01-01T04:10:56.000Z</time>
      </trkpt>
      <trkpt lat="45.10686" lon="2.68014">
        <ele>1603.8</ele>
        <time>2000-01-01T04:11:06.000Z</time>
      </trkpt>
      <trkpt lat="45.1069" lon="2.68008">
        <ele>1604.2</ele>
        <time>2000-01-01T04:11:16.000Z</time>
      </trkpt>
      <trkpt lat="45.10695" lon="2.68001">
        <ele>1626</ele>
        <time>2000-01-01T04:11:26.000Z</time>
      </trkpt>
      <trkpt lat="45.10698" lon="2.67997">
        <ele>1615.9</ele>
        <time>2000-01-01T04:11:36.000Z</time>
      </trkpt>
      <trkpt lat="45.10702" lon="2.67991">
        <ele>1616.9</ele>
        <time>2000-01-01T04:11:46.000Z</time>
      </trkpt>
      <trkpt lat="45.10712" lon="2.67979">
        <ele>1635</ele>
        <time>2000-01-01T04:11:56.000Z</time>
      </trkpt>
      <trkpt lat="45.10719" lon="2.67968">
        <ele>1620.9</ele>
        <time>2000-01-01T04:12:06.000Z</time>
      </trkpt>
      <trkpt lat="45.10733" lon="2.67942">
        <ele>1643</ele>
        <time>2000-01-01T04:12:16.000Z</time>
      </trkpt>
      <trkpt lat="45.10737" lon="2.67937">
        <ele>1629.5</ele>
        <time>2000-01-01T04:12:26.000Z</time>
      </trkpt>
      <trkpt lat="45.10741" lon="2.67932">
        <ele>1632.4</ele>
        <time>2000-01-01T04:12:36.000Z</time>
      </trkpt>
      <trkpt lat="45.10743" lon="2.67926">
        <ele>1636</ele>
        <time>2000-01-01T04:12:46.000Z</time>
      </trkpt>
      <trkpt lat="45.10746" lon="2.67923">
        <ele>1639</ele>
        <time>2000-01-01T04:12:56.000Z</time>
      </trkpt>
      <trkpt lat="45.10748" lon="2.6792">
        <ele>1649</ele>
        <time>2000-01-01T04:13:06.000Z</time>
      </trkpt>
      <trkpt lat="45.10751" lon="2.67916">
        <ele>1646.6</ele>
        <time>2000-01-01T04:13:16.000Z</time>
      </trkpt>
      <trkpt lat="45.10753" lon="2.67913">
        <ele>1648.4</ele>
        <time>2000-01-01T04:13:26.000Z</time>
      </trkpt>
      <trkpt lat="45.10754" lon="2.6791">
        <ele>1649.6</ele>
        <time>2000-01-01T04:13:36.000Z</time>
      </trkpt>
      <trkpt lat="45.10756" lon="2.67907">
        <ele>1650.9</ele>
        <time>2000-01-01T04:13:46.000Z</time>
      </trkpt>
      <trkpt lat="45.10758" lon="2.67904">
        <ele>1652</ele>
        <time>2000-01-01T04:13:56.000Z</time>
      </trkpt>
      <trkpt lat="45.1076" lon="2.67902">
        <ele>1652.8</ele>
        <time>2000-01-01T04:14:06.000Z</time>
      </trkpt>
      <trkpt lat="45.10763" lon="2.679">
        <ele>1661</ele>
        <time>2000-01-01T04:14:16.000Z</time>
      </trkpt>
      <trkpt lat="45.10766" lon="2.67899">
        <ele>1654.4</ele>
        <time>2000-01-01T04:14:26.000Z</time>
      </trkpt>
      <trkpt lat="45.10767" lon="2.67896">
        <ele>1654.9</ele>
        <time>2000-01-01T04:14:36.000Z</time>
      </trkpt>
      <trkpt lat="45.1077" lon="2.67892">
        <ele>1655.9</ele>
        <time>2000-01-01T04:14:46.000Z</time>
      </trkpt>
      <trkpt lat="45.10773" lon="2.6789">
        <ele>1656.5</ele>
        <time>2000-01-01T04:14:56.000Z</time>
      </trkpt>
      <trkpt lat="45.10776" lon="2.67887">
        <ele>1657.2</ele>
        <time>2000-01-01T04:15:06.000Z</time>
      </trkpt>
      <trkpt lat="45.10779" lon="2.67882">
        <ele>1665</ele>
        <time>2000-01-01T04:15:16.000Z</time>
      </trkpt>
      <trkpt lat="45.10783" lon="2.67877">
        <ele>1658.9</ele>
        <time>2000-01-01T04:15:26.000Z</time>
      </trkpt>
      <trkpt lat="45.10785" lon="2.67872">
        <ele>1659.5</ele>
        <time>2000-01-01T04:15:36.000Z</time>
      </trkpt>
      <trkpt lat="45.10786" lon="2.67868">
        <ele>1659.9</ele>
        <time>2000-01-01T04:15:46.000Z</time>
      </trkpt>
      <trkpt lat="45.10789" lon="2.67862">
        <ele>1660.8</ele>
        <time>2000-01-01T04:15:56.000Z</time>
      </trkpt>
      <trkpt lat="45.10793" lon="2.67857">
        <ele>1677</ele>
        <time>2000-01-01T04:16:06.000Z</time>
      </trkpt>
      <trkpt lat="45.10797" lon="2.67855">
        <ele>1662.9</ele>
        <time>2000-01-01T04:16:16.000Z</time>
      </trkpt>
      <trkpt lat="45.10804" lon="2.67851">
        <ele>1665</ele>
        <time>2000-01-01T04:16:26.000Z</time>
      </trkpt>
      <trkpt lat="45.10804" lon="2.67849">
        <ele>1665.3</ele>
        <time>2000-01-01T04:16:36.000Z</time>
      </trkpt>
      <trkpt lat="45.10806" lon="2.67846">
        <ele>1666.2</ele>
        <time>2000-01-01T04:16:46.000Z</time>
      </trkpt>
      <trkpt lat="45.10809" lon="2.67844">
        <ele>1681</ele>
        <time>2000-01-01T04:16:56.000Z</time>
      </trkpt>
      <trkpt lat="45.10813" lon="2.6784">
        <ele>1669.4</ele>
        <time>2000-01-01T04:17:06.000Z</time>
      </trkpt>
      <trkpt lat="45.10814" lon="2.67839">
        <ele>1670</ele>
        <time>2000-01-01T04:17:16.000Z</time>
      </trkpt>
      <trkpt lat="45.10815" lon="2.67834">
        <ele>1670.9</ele>
        <time>2000-01-01T04:17:26.000Z</time>
      </trkpt>
      <trkpt lat="45.10816" lon="2.67834">
        <ele>1671.4</ele>
        <time>2000-01-01T04:17:36.000Z</time>
      </trkpt>
      <trkpt lat="45.10819" lon="2.67833">
        <ele>1676</ele>
        <time>2000-01-01T04:17:46.000Z</time>
      </trkpt>
      <trkpt lat="45.10822" lon="2.67832">
        <ele>1677.2</ele>
        <time>2000-01-01T04:17:56.000Z</time>
      </trkpt>
      <trkpt lat="45.10826" lon="2.6783">
        <ele>1695</ele>
        <time>2000-01-01T04:18:06.000Z</time>
      </trkpt>
      <trkpt lat="45.10828" lon="2.67828">
        <ele>1679</ele>
        <time>2000-01-01T04:18:16.000Z</time>
      </trkpt>
      <trkpt lat="45.1083" lon="2.67826">
        <ele>1678.9</ele>
        <time>2000-01-01T04:18:26.000Z</time>
      </trkpt>
      <trkpt lat="45.10831" lon="2.67822">
        <ele>1677.7</ele>
        <time>2000-01-01T04:18:36.000Z</time>
      </trkpt>
      <trkpt lat="45.10828" lon="2.67818">
        <ele>1676.3</ele>
        <time>2000-01-01T04:18:46.000Z</time>
      </trkpt>
      <trkpt lat="45.10828" lon="2.67815">
        <ele>1675.7</ele>
        <time>2000-01-01T04:18:56.000Z</time>
      </trkpt>
      <trkpt lat="45.1083" lon="2.67814">
        <ele>1675.8</ele>
        <time>2000-01-01T04:19:06.000Z</time>
      </trkpt>
      <trkpt lat="45.10835" lon="2.67813">
        <ele>1703</ele>
        <time>2000-01-01T04:19:16.000Z</time>
      </trkpt>
      <trkpt lat="45.10836" lon="2.67811">
        <ele>1692.5</ele>
        <time>2000-01-01T04:19:26.000Z</time>
      </trkpt>
      <trkpt lat="45.10837" lon="2.67808">
        <ele>1693.4</ele>
        <time>2000-01-01T04:19:36.000Z</time>
      </trkpt>
      <trkpt lat="45.1084" lon="2.67807">
        <ele>1693.8</ele>
        <time>2000-01-01T04:19:46.000Z</time>
      </trkpt>
      <trkpt lat="45.10844" lon="2.67806">
        <ele>1694.4</ele>
        <time>2000-01-01T04:19:56.000Z</time>
      </trkpt>
      <trkpt lat="45.10848" lon="2.67807">
        <ele>1694.7</ele>
        <time>2000-01-01T04:20:06.000Z</time>
      </trkpt>
      <trkpt lat="45.10849" lon="2.67807">
        <ele>1694.8</ele>
        <time>2000-01-01T04:20:16.000Z</time>
      </trkpt>
      <trkpt lat="45.10853" lon="2.67803">
        <ele>1711</ele>
        <time>2000-01-01T04:20:26.000Z</time>
      </trkpt>
      <trkpt lat="45.10861" lon="2.67796">
        <ele>1698</ele>
        <time>2000-01-01T04:20:36.000Z</time>
      </trkpt>
      <trkpt lat="45.10863" lon="2.67795">
        <ele>1698.4</ele>
        <time>2000-01-01T04:20:46.000Z</time>
      </trkpt>
      <trkpt lat="45.10865" lon="2.67794">
        <ele>1698.8</ele>
        <time>2000-01-01T04:20:56.000Z</time>
      </trkpt>
      <trkpt lat="45.10866" lon="2.67792">
        <ele>1699.2</ele>
        <time>2000-01-01T04:21:06.000Z</time>
      </trkpt>
      <trkpt lat="45.10867" lon="2.6779">
        <ele>1699.6</ele>
        <time>2000-01-01T04:21:16.000Z</time>
      </trkpt>
      <trkpt lat="45.10867" lon="2.67786">
        <ele>1716</ele>
        <time>2000-01-01T04:21:26.000Z</time>
      </trkpt>
      <trkpt lat="45.10869" lon="2.67784">
        <ele>1700.7</ele>
        <time>2000-01-01T04:21:36.000Z</time>
      </trkpt>
      <trkpt lat="45.10874" lon="2.67781">
        <ele>1702</ele>
        <time>2000-01-01T04:21:46.000Z</time>
      </trkpt>
      <trkpt lat="45.10879" lon="2.67778">
        <ele>1703.4</ele>
        <time>2000-01-01T04:21:56.000Z</time>
      </trkpt>
      <trkpt lat="45.10882" lon="2.67775">
        <ele>1704.5</ele>
        <time>2000-01-01T04:22:06.000Z</time>
      </trkpt>
      <trkpt lat="45.10885" lon="2.67775">
        <ele>1730</ele>
        <time>2000-01-01T04:22:16.000Z</time>
      </trkpt>
      <trkpt lat="45.10888" lon="2.67769">
        <ele>1707.3</ele>
        <time>2000-01-01T04:22:26.000Z</time>
      </trkpt>
      <trkpt lat="45.1089" lon="2.67768">
        <ele>1708.2</ele>
        <time>2000-01-01T04:22:36.000Z</time>
      </trkpt>
      <trkpt lat="45.1089" lon="2.67765">
        <ele>1708.8</ele>
        <time>2000-01-01T04:22:46.000Z</time>
      </trkpt>
      <trkpt lat="45.10891" lon="2.6776">
        <ele>1710.3</ele>
        <time>2000-01-01T04:22:56.000Z</time>
      </trkpt>
      <trkpt lat="45.10892" lon="2.67756">
        <ele>1711.4</ele>
        <time>2000-01-01T04:23:06.000Z</time>
      </trkpt>
      <trkpt lat="45.10893" lon="2.67756">
        <ele>1711.9</ele>
        <time>2000-01-01T04:23:16.000Z</time>
      </trkpt>
      <trkpt lat="45.10894" lon="2.67756">
        <ele>1712.4</ele>
        <time>2000-01-01T04:23:26.000Z</time>
      </trkpt>
      <trkpt lat="45.10894" lon="2.67754">
        <ele>1739</ele>
        <time>2000-01-01T04:23:36.000Z</time>
      </trkpt>
      <trkpt lat="45.10895" lon="2.67752">
        <ele>1713.5</ele>
        <time>2000-01-01T04:23:46.000Z</time>
      </trkpt>
      <trkpt lat="45.10896" lon="2.67751">
        <ele>1714.1</ele>
        <time>2000-01-01T04:23:56.000Z</time>
      </trkpt>
      <trkpt lat="45.10897" lon="2.67751">
        <ele>1714.7</ele>
        <time>2000-01-01T04:24:06.000Z</time>
      </trkpt>
      <trkpt lat="45.10897" lon="2.67753">
        <ele>1714.4</ele>
        <time>2000-01-01T04:24:16.000Z</time>
      </trkpt>
      <trkpt lat="45.10898" lon="2.67753">
        <ele>1715</ele>
        <time>2000-01-01T04:24:26.000Z</time>
      </trkpt>
      <trkpt lat="45.10898" lon="2.6775">
        <ele>1715.3</ele>
        <time>2000-01-01T04:24:36.000Z</time>
      </trkpt>
      <trkpt lat="45.10899" lon="2.67745">
        <ele>1725.2</ele>
        <time>2000-01-01T04:24:46.000Z</time>
      </trkpt>
      <trkpt lat="45.10902" lon="2.67744">
        <ele>1726.1</ele>
        <time>2000-01-01T04:24:56.000Z</time>
      </trkpt>
      <trkpt lat="45.10904" lon="2.67743">
        <ele>1726.6</ele>
        <time>2000-01-01T04:25:06.000Z</time>
      </trkpt>
      <trkpt lat="45.10906" lon="2.67741">
        <ele>1727</ele>
        <time>2000-01-01T04:25:16.000Z</time>
      </trkpt>
      <trkpt lat="45.10908" lon="2.6774">
        <ele>1748</ele>
        <time>2000-01-01T04:25:26.000Z</time>
      </trkpt>
      <trkpt lat="45.10909" lon="2.6774">
        <ele>1727.6</ele>
        <time>2000-01-01T04:25:36.000Z</time>
      </trkpt>
      <trkpt lat="45.1091" lon="2.67739">
        <ele>1727.6</ele>
        <time>2000-01-01T04:25:46.000Z</time>
      </trkpt>
      <trkpt lat="45.10909" lon="2.67736">
        <ele>1727</ele>
        <time>2000-01-01T04:25:56.000Z</time>
      </trkpt>
      <trkpt lat="45.10908" lon="2.6773">
        <ele>1726.3</ele>
        <time>2000-01-01T04:26:06.000Z</time>
      </trkpt>
      <trkpt lat="45.10908" lon="2.67726">
        <ele>1726.2</ele>
        <time>2000-01-01T04:26:16.000Z</time>
      </trkpt>
      <trkpt lat="45.10911" lon="2.67724">
        <ele>1726.6</ele>
        <time>2000-01-01T04:26:26.000Z</time>
      </trkpt>
      <trkpt lat="45.10913" lon="2.67723">
        <ele>1726.9</ele>
        <time>2000-01-01T04:26:36.000Z</time>
      </trkpt>
      <trkpt lat="45.10916" lon="2.67719">
        <ele>1760</ele>
        <time>2000-01-01T04:26:46.000Z</time>
      </trkpt>
      <trkpt lat="45.10917" lon="2.67717">
        <ele>1722.6</ele>
        <time>2000-01-01T04:26:56.000Z</time>
      </trkpt>
      <trkpt lat="45.10917" lon="2.67713">
        <ele>1723.1</ele>
        <time>2000-01-01T04:27:06.000Z</time>
      </trkpt>
      <trkpt lat="45.10917" lon="2.67709">
        <ele>1723.7</ele>
        <time>2000-01-01T04:27:16.000Z</time>
      </trkpt>
      <trkpt lat="45.1092" lon="2.67705">
        <ele>1724.2</ele>
        <time>2000-01-01T04:27:26.000Z</time>
      </trkpt>
      <trkpt lat="45.10922" lon="2.67701">
        <ele>1725</ele>
        <time>2000-01-01T04:27:36.000Z</time>
      </trkpt>
      <trkpt lat="45.10923" lon="2.67698">
        <ele>1725.9</ele>
        <time>2000-01-01T04:27:46.000Z</time>
      </trkpt>
      <trkpt lat="45.10922" lon="2.67685">
        <ele>1766</ele>
        <time>2000-01-01T04:27:56.000Z</time>
      </trkpt>
      <trkpt lat="45.10922" lon="2.6768">
        <ele>1736.9</ele>
        <time>2000-01-01T04:28:06.000Z</time>
      </trkpt>
      <trkpt lat="45.10923" lon="2.67677">
        <ele>1739</ele>
        <time>2000-01-01T04:28:16.000Z</time>
      </trkpt>
      <trkpt lat="45.10924" lon="2.67673">
        <ele>1741.6</ele>
        <time>2000-01-01T04:28:26.000Z</time>
      </trkpt>
      <trkpt lat="45.10925" lon="2.67667">
        <ele>1743.3</ele>
        <time>2000-01-01T04:28:36.000Z</time>
      </trkpt>
      <trkpt lat="45.10927" lon="2.67658">
        <ele>1768</ele>
        <time>2000-01-01T04:28:46.000Z</time>
      </trkpt>
      <trkpt lat="45.10928" lon="2.6765">
        <ele>1740.8</ele>
        <time>2000-01-01T04:28:56.000Z</time>
      </trkpt>
      <trkpt lat="45.10929" lon="2.67646">
        <ele>1739.4</ele>
        <time>2000-01-01T04:29:06.000Z</time>
      </trkpt>
      <trkpt lat="45.10929" lon="2.67644">
        <ele>1738.9</ele>
        <time>2000-01-01T04:29:16.000Z</time>
      </trkpt>
      <trkpt lat="45.10933" lon="2.6764">
        <ele>1737</ele>
        <time>2000-01-01T04:29:26.000Z</time>
      </trkpt>
      <trkpt lat="45.10935" lon="2.67637">
        <ele>1736.1</ele>
        <time>2000-01-01T04:29:36.000Z</time>
      </trkpt>
      <trkpt lat="45.10935" lon="2.67635">
        <ele>1777</ele>
        <time>2000-01-01T04:29:46.000Z</time>
      </trkpt>
      <trkpt lat="45.10933" lon="2.67629">
        <ele>1736.2</ele>
        <time>2000-01-01T04:29:56.000Z</time>
      </trkpt>
      <trkpt lat="45.10933" lon="2.67625">
        <ele>1736.2</ele>
        <time>2000-01-01T04:30:06.000Z</time>
      </trkpt>
      <trkpt lat="45.10933" lon="2.67618">
        <ele>1736.6</ele>
        <time>2000-01-01T04:30:16.000Z</time>
      </trkpt>
      <trkpt lat="45.10934" lon="2.67609">
        <ele>1737.5</ele>
        <time>2000-01-01T04:30:26.000Z</time>
      </trkpt>
      <trkpt lat="45.10935" lon="2.67603">
        <ele>1777</ele>
        <time>2000-01-01T04:30:36.000Z</time>
      </trkpt>
      <trkpt lat="45.10936" lon="2.67595">
        <ele>1739.5</ele>
        <time>2000-01-01T04:30:46.000Z</time>
      </trkpt>
      <trkpt lat="45.1093" lon="2.67594">
        <ele>1742.2</ele>
        <time>2000-01-01T04:30:56.000Z</time>
      </trkpt>
      <trkpt lat="45.1093" lon="2.67594">
        <ele>1742.2</ele>
        <time>2000-01-01T04:31:06.000Z</time>
      </trkpt>
      <trkpt lat="45.10936" lon="2.67595">
        <ele>1739.5</ele>
        <time>2000-01-01T04:31:16.000Z</time>
      </trkpt>
      <trkpt lat="45.10936" lon="2.67595">
        <ele>1739.5</ele>
        <time>2000-01-01T04:31:26.000Z</time>
      </trkpt>
      <trkpt lat="45.10937" lon="2.67589">
        <ele>1777</ele>
        <time>2000-01-01T04:31:36.000Z</time>
      </trkpt>
      <trkpt lat="45.10939" lon="2.67584">
        <ele>1739.4</ele>
        <time>2000-01-01T04:31:46.000Z</time>
      </trkpt>
      <trkpt lat="45.10942" lon="2.67576">
        <ele>1736</ele>
        <time>2000-01-01T04:31:56.000Z</time>
      </trkpt>
      <trkpt lat="45.10945" lon="2.67567">
        <ele>1733.6</ele>
        <time>2000-01-01T04:32:06.000Z</time>
      </trkpt>
      <trkpt lat="45.10949" lon="2.67556">
        <ele>1774</ele>
        <time>2000-01-01T04:32:16.000Z</time>
      </trkpt>
      <trkpt lat="45.10951" lon="2.67549">
        <ele>1729.6</ele>
        <time>2000-01-01T04:32:26.000Z</time>
      </trkpt>
      <trkpt lat="45.10952" lon="2.67543">
        <ele>1728.7</ele>
        <time>2000-01-01T04:32:36.000Z</time>
      </trkpt>
      <trkpt lat="45.10952" lon="2.67538">
        <ele>1728.1</ele>
        <time>2000-01-01T04:32:46.000Z</time>
      </trkpt>
      <trkpt lat="45.10951" lon="2.67534">
        <ele>1727.8</ele>
        <time>2000-01-01T04:32:56.000Z</time>
      </trkpt>
      <trkpt lat="45.1095" lon="2.67531">
        <ele>1727.6</ele>
        <time>2000-01-01T04:33:06.000Z</time>
      </trkpt>
      <trkpt lat="45.10947" lon="2.67526">
        <ele>1762</ele>
        <time>2000-01-01T04:33:16.000Z</time>
      </trkpt>
      <trkpt lat="45.10942" lon="2.67522">
        <ele>1727.8</ele>
        <time>2000-01-01T04:33:26.000Z</time>
      </trkpt>
      <trkpt lat="45.10938" lon="2.6752">
        <ele>1728</ele>
        <time>2000-01-01T04:33:36.000Z</time>
      </trkpt>
      <trkpt lat="45.10937" lon="2.67517">
        <ele>1727.9</ele>
        <time>2000-01-01T04:33:46.000Z</time>
      </trkpt>
      <trkpt lat="45.10937" lon="2.67515">
        <ele>1727.7</ele>
        <time>2000-01-01T04:33:56.000Z</time>
      </trkpt>
      <trkpt lat="45.10937" lon="2.67513">
        <ele>1727.6</ele>
        <time>2000-01-01T04:34:06.000Z</time>
      </trkpt>
      <trkpt lat="45.10938" lon="2.67512">
        <ele>1727.5</ele>
        <time>2000-01-01T04:34:16.000Z</time>
      </trkpt>
      <trkpt lat="45.10939" lon="2.67512">
        <ele>1727.4</ele>
        <time>2000-01-01T04:34:26.000Z</time>
      </trkpt>
      <trkpt lat="45.10944" lon="2.67511">
        <ele>1755</ele>
        <time>2000-01-01T04:34:36.000Z</time>
      </trkpt>
      <trkpt lat="45.10948" lon="2.6751">
        <ele>1726.3</ele>
        <time>2000-01-01T04:34:46.000Z</time>
      </trkpt>
      <trkpt lat="45.10958" lon="2.67506">
        <ele>1724.6</ele>
        <time>2000-01-01T04:34:56.000Z</time>
      </trkpt>
      <trkpt lat="45.10964" lon="2.67503">
        <ele>1748</ele>
        <time>2000-01-01T04:35:06.000Z</time>
      </trkpt>
      <trkpt lat="45.1097" lon="2.67501">
        <ele>1721.9</ele>
        <time>2000-01-01T04:35:16.000Z</time>
      </trkpt>
      <trkpt lat="45.10974" lon="2.675">
        <ele>1709.3</ele>
        <time>2000-01-01T04:35:26.000Z</time>
      </trkpt>
      <trkpt lat="45.10981" lon="2.67497">
        <ele>1708.9</ele>
        <time>2000-01-01T04:35:36.000Z</time>
      </trkpt>
      <trkpt lat="45.10985" lon="2.67495">
        <ele>1738</ele>
        <time>2000-01-01T04:35:46.000Z</time>
      </trkpt>
      <trkpt lat="45.10989" lon="2.67491">
        <ele>1708.6</ele>
        <time>2000-01-01T04:35:56.000Z</time>
      </trkpt>
      <trkpt lat="45.10991" lon="2.67487">
        <ele>1708.2</ele>
        <time>2000-01-01T04:36:06.000Z</time>
      </trkpt>
      <trkpt lat="45.10995" lon="2.67481">
        <ele>1707.5</ele>
        <time>2000-01-01T04:36:16.000Z</time>
      </trkpt>
      <trkpt lat="45.10996" lon="2.67479">
        <ele>1707.2</ele>
        <time>2000-01-01T04:36:26.000Z</time>
      </trkpt>
      <trkpt lat="45.11" lon="2.67478">
        <ele>1728</ele>
        <time>2000-01-01T04:36:36.000Z</time>
      </trkpt>
      <trkpt lat="45.11003" lon="2.67477">
        <ele>1694.6</ele>
        <time>2000-01-01T04:36:46.000Z</time>
      </trkpt>
      <trkpt lat="45.11007" lon="2.67474">
        <ele>1693</ele>
        <time>2000-01-01T04:36:56.000Z</time>
      </trkpt>
      <trkpt lat="45.11012" lon="2.6747">
        <ele>1691.1</ele>
        <time>2000-01-01T04:37:06.000Z</time>
      </trkpt>
      <trkpt lat="45.1102" lon="2.67464">
        <ele>1719</ele>
        <time>2000-01-01T04:37:16.000Z</time>
      </trkpt>
      <trkpt lat="45.11027" lon="2.67459">
        <ele>1686.8</ele>
        <time>2000-01-01T04:37:26.000Z</time>
      </trkpt>
      <trkpt lat="45.1103" lon="2.67456">
        <ele>1686</ele>
        <time>2000-01-01T04:37:36.000Z</time>
      </trkpt>
      <trkpt lat="45.11034" lon="2.67455">
        <ele>1685.3</ele>
        <time>2000-01-01T04:37:46.000Z</time>
      </trkpt>
      <trkpt lat="45.11037" lon="2.67455">
        <ele>1684.7</ele>
        <time>2000-01-01T04:37:56.000Z</time>
      </trkpt>
      <trkpt lat="45.11041" lon="2.67452">
        <ele>1708</ele>
        <time>2000-01-01T04:38:06.000Z</time>
      </trkpt>
      <trkpt lat="45.11044" lon="2.67452">
        <ele>1683.4</ele>
        <time>2000-01-01T04:38:16.000Z</time>
      </trkpt>
      <trkpt lat="45.11047" lon="2.67453">
        <ele>1682.9</ele>
        <time>2000-01-01T04:38:26.000Z</time>
      </trkpt>
      <trkpt lat="45.11052" lon="2.67456">
        <ele>1682</ele>
        <time>2000-01-01T04:38:36.000Z</time>
      </trkpt>
      <trkpt lat="45.11057" lon="2.67456">
        <ele>1681.2</ele>
        <time>2000-01-01T04:38:46.000Z</time>
      </trkpt>
      <trkpt lat="45.11059" lon="2.67455">
        <ele>1680.8</ele>
        <time>2000-01-01T04:38:56.000Z</time>
      </trkpt>
      <trkpt lat="45.1106" lon="2.67453">
        <ele>1701</ele>
        <time>2000-01-01T04:39:06.000Z</time>
      </trkpt>
      <trkpt lat="45.11061" lon="2.67452">
        <ele>1680.5</ele>
        <time>2000-01-01T04:39:16.000Z</time>
      </trkpt>
      <trkpt lat="45.11062" lon="2.67448">
        <ele>1680.3</ele>
        <time>2000-01-01T04:39:26.000Z</time>
      </trkpt>
      <trkpt lat="45.11063" lon="2.67444">
        <ele>1680</ele>
        <time>2000-01-01T04:39:36.000Z</time>
      </trkpt>
      <trkpt lat="45.11063" lon="2.67439">
        <ele>1679.7</ele>
        <time>2000-01-01T04:39:46.000Z</time>
      </trkpt>
      <trkpt lat="45.11063" lon="2.67435">
        <ele>1679.4</ele>
        <time>2000-01-01T04:39:56.000Z</time>
      </trkpt>
      <trkpt lat="45.11064" lon="2.67433">
        <ele>1679.1</ele>
        <time>2000-01-01T04:40:06.000Z</time>
      </trkpt>
      <trkpt lat="45.11068" lon="2.6743">
        <ele>1696</ele>
        <time>2000-01-01T04:40:16.000Z</time>
      </trkpt>
      <trkpt lat="45.11073" lon="2.67425">
        <ele>1676.5</ele>
        <time>2000-01-01T04:40:26.000Z</time>
      </trkpt>
      <trkpt lat="45.11079" lon="2.67421">
        <ele>1674.4</ele>
        <time>2000-01-01T04:40:36.000Z</time>
      </trkpt>
      <trkpt lat="45.11084" lon="2.67416">
        <ele>1670.9</ele>
        <time>2000-01-01T04:40:46.000Z</time>
      </trkpt>
      <trkpt lat="45.11088" lon="2.67411">
        <ele>1686</ele>
        <time>2000-01-01T04:40:56.000Z</time>
      </trkpt>
      <trkpt lat="45.11096" lon="2.67401">
        <ele>1656</ele>
        <time>2000-01-01T04:41:06.000Z</time>
      </trkpt>
      <trkpt lat="45.111" lon="2.67396">
        <ele>1653.1</ele>
        <time>2000-01-01T04:41:16.000Z</time>
      </trkpt>
      <trkpt lat="45.11104" lon="2.67392">
        <ele>1675</ele>
        <time>2000-01-01T04:41:26.000Z</time>
      </trkpt>
      <trkpt lat="45.11111" lon="2.67385">
        <ele>1648</ele>
        <time>2000-01-01T04:41:36.000Z</time>
      </trkpt>
      <trkpt lat="45.11112" lon="2.67383">
        <ele>1647.6</ele>
        <time>2000-01-01T04:41:46.000Z</time>
      </trkpt>
      <trkpt lat="45.11116" lon="2.67381">
        <ele>1646.5</ele>
        <time>2000-01-01T04:41:56.000Z</time>
      </trkpt>
      <trkpt lat="45.11122" lon="2.67378">
        <ele>1664</ele>
        <time>2000-01-01T04:42:06.000Z</time>
      </trkpt>
      <trkpt lat="45.11129" lon="2.67374">
        <ele>1643.8</ele>
        <time>2000-01-01T04:42:16.000Z</time>
      </trkpt>
      <trkpt lat="45.11138" lon="2.67368">
        <ele>1642.3</ele>
        <time>2000-01-01T04:42:26.000Z</time>
      </trkpt>
      <trkpt lat="45.11143" lon="2.67364">
        <ele>1660</ele>
        <time>2000-01-01T04:42:36.000Z</time>
      </trkpt>
      <trkpt lat="45.11144" lon="2.6736">
        <ele>1641.4</ele>
        <time>2000-01-01T04:42:46.000Z</time>
      </trkpt>
      <trkpt lat="45.11145" lon="2.67354">
        <ele>1641.1</ele>
        <time>2000-01-01T04:42:56.000Z</time>
      </trkpt>
      <trkpt lat="45.11147" lon="2.67349">
        <ele>1640.6</ele>
        <time>2000-01-01T04:43:06.000Z</time>
      </trkpt>
      <trkpt lat="45.11149" lon="2.67346">
        <ele>1640.2</ele>
        <time>2000-01-01T04:43:16.000Z</time>
      </trkpt>
      <trkpt lat="45.11151" lon="2.67344">
        <ele>1639.8</ele>
        <time>2000-01-01T04:43:26.000Z</time>
      </trkpt>
      <trkpt lat="45.11154" lon="2.67336">
        <ele>1651</ele>
        <time>2000-01-01T04:43:36.000Z</time>
      </trkpt>
      <trkpt lat="45.11157" lon="2.67333">
        <ele>1633</ele>
        <time>2000-01-01T04:43:46.000Z</time>
      </trkpt>
      <trkpt lat="45.1116" lon="2.67332">
        <ele>1633.6</ele>
        <time>2000-01-01T04:43:56.000Z</time>
      </trkpt>
      <trkpt lat="45.11166" lon="2.6733">
        <ele>1634.7</ele>
        <time>2000-01-01T04:44:06.000Z</time>
      </trkpt>
      <trkpt lat="45.1117" lon="2.67328">
        <ele>1631.2</ele>
        <time>2000-01-01T04:44:16.000Z</time>
      </trkpt>
      <trkpt lat="45.11176" lon="2.67328">
        <ele>1647</ele>
        <time>2000-01-01T04:44:26.000Z</time>
      </trkpt>
      <trkpt lat="45.11182" lon="2.67327">
        <ele>1625.7</ele>
        <time>2000-01-01T04:44:36.000Z</time>
      </trkpt>
      <trkpt lat="45.11187" lon="2.67328">
        <ele>1623.9</ele>
        <time>2000-01-01T04:44:46.000Z</time>
      </trkpt>
      <trkpt lat="45.11206" lon="2.67328">
        <ele>1639</ele>
        <time>2000-01-01T04:44:56.000Z</time>
      </trkpt>
      <trkpt lat="45.11211" lon="2.67327">
        <ele>1617</ele>
        <time>2000-01-01T04:45:06.000Z</time>
      </trkpt>
      <trkpt lat="45.11213" lon="2.67326">
        <ele>1616.5</ele>
        <time>2000-01-01T04:45:16.000Z</time>
      </trkpt>
      <trkpt lat="45.11214" lon="2.67324">
        <ele>1616.2</ele>
        <time>2000-01-01T04:45:26.000Z</time>
      </trkpt>
      <trkpt lat="45.11216" lon="2.67319">
        <ele>1615.7</ele>
        <time>2000-01-01T04:45:36.000Z</time>
      </trkpt>
      <trkpt lat="45.11219" lon="2.67316">
        <ele>1615.1</ele>
        <time>2000-01-01T04:45:46.000Z</time>
      </trkpt>
      <trkpt lat="45.11232" lon="2.67305">
        <ele>1629</ele>
        <time>2000-01-01T04:45:56.000Z</time>
      </trkpt>
      <trkpt lat="45.11235" lon="2.67305">
        <ele>1612.9</ele>
        <time>2000-01-01T04:46:06.000Z</time>
      </trkpt>
      <trkpt lat="45.11239" lon="2.67307">
        <ele>1612.5</ele>
        <time>2000-01-01T04:46:16.000Z</time>
      </trkpt>
      <trkpt lat="45.11245" lon="2.67309">
        <ele>1611.9</ele>
        <time>2000-01-01T04:46:26.000Z</time>
      </trkpt>
      <trkpt lat="45.11248" lon="2.6731">
        <ele>1611.7</ele>
        <time>2000-01-01T04:46:36.000Z</time>
      </trkpt>
      <trkpt lat="45.11252" lon="2.67307">
        <ele>1627</ele>
        <time>2000-01-01T04:46:46.000Z</time>
      </trkpt>
      <trkpt lat="45.11256" lon="2.67298">
        <ele>1597.6</ele>
        <time>2000-01-01T04:46:56.000Z</time>
      </trkpt>
      <trkpt lat="45.11263" lon="2.67284">
        <ele>1622</ele>
        <time>2000-01-01T04:47:06.000Z</time>
      </trkpt>
      <trkpt lat="45.11266" lon="2.67279">
        <ele>1596.9</ele>
        <time>2000-01-01T04:47:16.000Z</time>
      </trkpt>
      <trkpt lat="45.1127" lon="2.67275">
        <ele>1596.7</ele>
        <time>2000-01-01T04:47:26.000Z</time>
      </trkpt>
      <trkpt lat="45.11276" lon="2.6727">
        <ele>1596.1</ele>
        <time>2000-01-01T04:47:36.000Z</time>
      </trkpt>
      <trkpt lat="45.1128" lon="2.67266">
        <ele>1616</ele>
        <time>2000-01-01T04:47:46.000Z</time>
      </trkpt>
      <trkpt lat="45.11285" lon="2.67258">
        <ele>1595.2</ele>
        <time>2000-01-01T04:47:56.000Z</time>
      </trkpt>
      <trkpt lat="45.11287" lon="2.67254">
        <ele>1594.9</ele>
        <time>2000-01-01T04:48:06.000Z</time>
      </trkpt>
      <trkpt lat="45.11291" lon="2.67251">
        <ele>1594.3</ele>
        <time>2000-01-01T04:48:16.000Z</time>
      </trkpt>
      <trkpt lat="45.11299" lon="2.67247">
        <ele>1609</ele>
        <time>2000-01-01T04:48:26.000Z</time>
      </trkpt>
      <trkpt lat="45.11307" lon="2.67245">
        <ele>1588</ele>
        <time>2000-01-01T04:48:36.000Z</time>
      </trkpt>
      <trkpt lat="45.11312" lon="2.67243">
        <ele>1587.7</ele>
        <time>2000-01-01T04:48:46.000Z</time>
      </trkpt>
      <trkpt lat="45.11319" lon="2.67238">
        <ele>1606</ele>
        <time>2000-01-01T04:48:56.000Z</time>
      </trkpt>
      <trkpt lat="45.11325" lon="2.67232">
        <ele>1586.7</ele>
        <time>2000-01-01T04:49:06.000Z</time>
      </trkpt>
      <trkpt lat="45.11338" lon="2.67222">
        <ele>1601</ele>
        <time>2000-01-01T04:49:16.000Z</time>
      </trkpt>
      <trkpt lat="45.11353" lon="2.67214">
        <ele>1578.8</ele>
        <time>2000-01-01T04:49:26.000Z</time>
      </trkpt>
      <trkpt lat="45.11363" lon="2.67207">
        <ele>1597</ele>
        <time>2000-01-01T04:49:36.000Z</time>
      </trkpt>
      <trkpt lat="45.11367" lon="2.67205">
        <ele>1577.7</ele>
        <time>2000-01-01T04:49:46.000Z</time>
      </trkpt>
      <trkpt lat="45.11375" lon="2.67198">
        <ele>1577.4</ele>
        <time>2000-01-01T04:49:56.000Z</time>
      </trkpt>
      <trkpt lat="45.11384" lon="2.67195">
        <ele>1592</ele>
        <time>2000-01-01T04:50:06.000Z</time>
      </trkpt>
      <trkpt lat="45.11393" lon="2.67191">
        <ele>1577.2</ele>
        <time>2000-01-01T04:50:16.000Z</time>
      </trkpt>
      <trkpt lat="45.11399" lon="2.67188">
        <ele>1577.3</ele>
        <time>2000-01-01T04:50:26.000Z</time>
      </trkpt>
      <trkpt lat="45.11405" lon="2.67182">
        <ele>1588</ele>
        <time>2000-01-01T04:50:36.000Z</time>
      </trkpt>
      <trkpt lat="45.11414" lon="2.67175">
        <ele>1578.2</ele>
        <time>2000-01-01T04:50:46.000Z</time>
      </trkpt>
      <trkpt lat="45.11416" lon="2.67171">
        <ele>1578.6</ele>
        <time>2000-01-01T04:50:56.000Z</time>
      </trkpt>
      <trkpt lat="45.1142" lon="2.67177">
        <ele>1587</ele>
        <time>2000-01-01T04:51:06.000Z</time>
      </trkpt>
      <trkpt lat="45.11422" lon="2.67176">
        <ele>1574.6</ele>
        <time>2000-01-01T04:51:16.000Z</time>
      </trkpt>
      <trkpt lat="45.11427" lon="2.67172">
        <ele>1574.4</ele>
        <time>2000-01-01T04:51:26.000Z</time>
      </trkpt>
      <trkpt lat="45.11433" lon="2.67166">
        <ele>1573.9</ele>
        <time>2000-01-01T04:51:36.000Z</time>
      </trkpt>
      <trkpt lat="45.11439" lon="2.67163">
        <ele>1587</ele>
        <time>2000-01-01T04:51:46.000Z</time>
      </trkpt>
      <trkpt lat="45.11442" lon="2.67161">
        <ele>1572.3</ele>
        <time>2000-01-01T04:51:56.000Z</time>
      </trkpt>
      <trkpt lat="45.11447" lon="2.67159">
        <ele>1571.6</ele>
        <time>2000-01-01T04:52:06.000Z</time>
      </trkpt>
      <trkpt lat="45.11453" lon="2.67157">
        <ele>1571.1</ele>
        <time>2000-01-01T04:52:16.000Z</time>
      </trkpt>
      <trkpt lat="45.11459" lon="2.67156">
        <ele>1588</ele>
        <time>2000-01-01T04:52:26.000Z</time>
      </trkpt>
      <trkpt lat="45.11464" lon="2.67153">
        <ele>1570.5</ele>
        <time>2000-01-01T04:52:36.000Z</time>
      </trkpt>
      <trkpt lat="45.11468" lon="2.67149">
        <ele>1570.2</ele>
        <time>2000-01-01T04:52:46.000Z</time>
      </trkpt>
      <trkpt lat="45.11473" lon="2.67148">
        <ele>1570.2</ele>
        <time>2000-01-01T04:52:56.000Z</time>
      </trkpt>
      <trkpt lat="45.11476" lon="2.67147">
        <ele>1570.1</ele>
        <time>2000-01-01T04:53:06.000Z</time>
      </trkpt>
      <trkpt lat="45.11478" lon="2.67147">
        <ele>1588</ele>
        <time>2000-01-01T04:53:16.000Z</time>
      </trkpt>
      <trkpt lat="45.11481" lon="2.67145">
        <ele>1570.1</ele>
        <time>2000-01-01T04:53:26.000Z</time>
      </trkpt>
      <trkpt lat="45.11483" lon="2.67141">
        <ele>1570</ele>
        <time>2000-01-01T04:53:36.000Z</time>
      </trkpt>
      <trkpt lat="45.11484" lon="2.6714">
        <ele>1570</ele>
        <time>2000-01-01T04:53:46.000Z</time>
      </trkpt>
      <trkpt lat="45.11489" lon="2.67136">
        <ele>1569.9</ele>
        <time>2000-01-01T04:53:56.000Z</time>
      </trkpt>
      <trkpt lat="45.11493" lon="2.67134">
        <ele>1569.9</ele>
        <time>2000-01-01T04:54:06.000Z</time>
      </trkpt>
      <trkpt lat="45.11498" lon="2.67135">
        <ele>1588</ele>
        <time>2000-01-01T04:54:16.000Z</time>
      </trkpt>
      <trkpt lat="45.11505" lon="2.67137">
        <ele>1573.9</ele>
        <time>2000-01-01T04:54:26.000Z</time>
      </trkpt>
      <trkpt lat="45.11513" lon="2.67141">
        <ele>1573.9</ele>
        <time>2000-01-01T04:54:36.000Z</time>
      </trkpt>
      <trkpt lat="45.11515" lon="2.67141">
        <ele>1573.9</ele>
        <time>2000-01-01T04:54:46.000Z</time>
      </trkpt>
      <trkpt lat="45.11523" lon="2.67137">
        <ele>1595</ele>
        <time>2000-01-01T04:54:56.000Z</time>
      </trkpt>
      <trkpt lat="45.11528" lon="2.67136">
        <ele>1574.7</ele>
        <time>2000-01-01T04:55:06.000Z</time>
      </trkpt>
      <trkpt lat="45.11533" lon="2.67135">
        <ele>1574.9</ele>
        <time>2000-01-01T04:55:16.000Z</time>
      </trkpt>
      <trkpt lat="45.1154" lon="2.67131">
        <ele>1575.5</ele>
        <time>2000-01-01T04:55:26.000Z</time>
      </trkpt>
      <trkpt lat="45.11545" lon="2.6713">
        <ele>1601</ele>
        <time>2000-01-01T04:55:36.000Z</time>
      </trkpt>
      <trkpt lat="45.11553" lon="2.67125">
        <ele>1576.6</ele>
        <time>2000-01-01T04:55:46.000Z</time>
      </trkpt>
      <trkpt lat="45.11559" lon="2.67122">
        <ele>1577.3</ele>
        <time>2000-01-01T04:55:56.000Z</time>
      </trkpt>
      <trkpt lat="45.11566" lon="2.67118">
        <ele>1606</ele>
        <time>2000-01-01T04:56:06.000Z</time>
      </trkpt>
      <trkpt lat="45.11571" lon="2.67113">
        <ele>1579.7</ele>
        <time>2000-01-01T04:56:16.000Z</time>
      </trkpt>
      <trkpt lat="45.1158" lon="2.67107">
        <ele>1581.9</ele>
        <time>2000-01-01T04:56:26.000Z</time>
      </trkpt>
      <trkpt lat="45.11585" lon="2.67102">
        <ele>1607</ele>
        <time>2000-01-01T04:56:36.000Z</time>
      </trkpt>
      <trkpt lat="45.11591" lon="2.67095">
        <ele>1589.3</ele>
        <time>2000-01-01T04:56:46.000Z</time>
      </trkpt>
      <trkpt lat="45.11602" lon="2.67084">
        <ele>1608</ele>
        <time>2000-01-01T04:56:56.000Z</time>
      </trkpt>
      <trkpt lat="45.11611" lon="2.67077">
        <ele>1594.1</ele>
        <time>2000-01-01T04:57:06.000Z</time>
      </trkpt>
      <trkpt lat="45.11617" lon="2.67073">
        <ele>1594.4</ele>
        <time>2000-01-01T04:57:16.000Z</time>
      </trkpt>
      <trkpt lat="45.11622" lon="2.67068">
        <ele>1610</ele>
        <time>2000-01-01T04:57:26.000Z</time>
      </trkpt>
      <trkpt lat="45.11642" lon="2.67022">
        <ele>1610</ele>
        <time>2000-01-01T04:57:36.000Z</time>
      </trkpt>
      <trkpt lat="45.11648" lon="2.67014">
        <ele>1598.8</ele>
        <time>2000-01-01T04:57:46.000Z</time>
      </trkpt>
      <trkpt lat="45.11683" lon="2.66948">
        <ele>1602</ele>
        <time>2000-01-01T04:57:56.000Z</time>
      </trkpt>
      <trkpt lat="45.11698" lon="2.66921">
        <ele>1602</ele>
        <time>2000-01-01T04:58:06.000Z</time>
      </trkpt>
      <trkpt lat="45.11713" lon="2.66892">
        <ele>1603</ele>
        <time>2000-01-01T04:58:16.000Z</time>
      </trkpt>
      <trkpt lat="45.11725" lon="2.66853">
        <ele>1602</ele>
        <time>2000-01-01T04:58:26.000Z</time>
      </trkpt>
      <trkpt lat="45.1174" lon="2.66807">
        <ele>1602</ele>
        <time>2000-01-01T04:58:36.000Z</time>
      </trkpt>
      <trkpt lat="45.11745" lon="2.66795">
        <ele>1584.6</ele>
        <time>2000-01-01T04:58:46.000Z</time>
      </trkpt>
      <trkpt lat="45.11753" lon="2.66789">
        <ele>1603</ele>
        <time>2000-01-01T04:58:56.000Z</time>
      </trkpt>
      <trkpt lat="45.11759" lon="2.66788">
        <ele>1591.1</ele>
        <time>2000-01-01T04:59:06.000Z</time>
      </trkpt>
      <trkpt lat="45.11766" lon="2.66792">
        <ele>1591.9</ele>
        <time>2000-01-01T04:59:16.000Z</time>
      </trkpt>
      <trkpt lat="45.11773" lon="2.66795">
        <ele>1602</ele>
        <time>2000-01-01T04:59:26.000Z</time>
      </trkpt>
      <trkpt lat="45.11781" lon="2.66801">
        <ele>1593.2</ele>
        <time>2000-01-01T04:59:36.000Z</time>
      </trkpt>
      <trkpt lat="45.11804" lon="2.66803">
        <ele>1602</ele>
        <time>2000-01-01T04:59:46.000Z</time>
      </trkpt>
      <trkpt lat="45.11812" lon="2.66805">
        <ele>1593.9</ele>
        <time>2000-01-01T04:59:56.000Z</time>
      </trkpt>
      <trkpt lat="45.11816" lon="2.66807">
        <ele>1594.7</ele>
        <time>2000-01-01T05:00:06.000Z</time>
      </trkpt>
      <trkpt lat="45.11821" lon="2.6681">
        <ele>1596.1</ele>
        <time>2000-01-01T05:00:16.000Z</time>
      </trkpt>
      <trkpt lat="45.11826" lon="2.66813">
        <ele>1601</ele>
        <time>2000-01-01T05:00:26.000Z</time>
      </trkpt>
      <trkpt lat="45.11835" lon="2.66815">
        <ele>1594.9</ele>
        <time>2000-01-01T05:00:36.000Z</time>
      </trkpt>
      <trkpt lat="45.11841" lon="2.66818">
        <ele>1595.7</ele>
        <time>2000-01-01T05:00:46.000Z</time>
      </trkpt>
      <trkpt lat="45.11847" lon="2.66818">
        <ele>1601</ele>
        <time>2000-01-01T05:00:56.000Z</time>
      </trkpt>
      <trkpt lat="45.11857" lon="2.66818">
        <ele>1591.1</ele>
        <time>2000-01-01T05:01:06.000Z</time>
      </trkpt>
      <trkpt lat="45.11863" lon="2.66818">
        <ele>1589.7</ele>
        <time>2000-01-01T05:01:16.000Z</time>
      </trkpt>
      <trkpt lat="45.1187" lon="2.66817">
        <ele>1598</ele>
        <time>2000-01-01T05:01:26.000Z</time>
      </trkpt>
      <trkpt lat="45.11878" lon="2.66818">
        <ele>1587.6</ele>
        <time>2000-01-01T05:01:36.000Z</time>
      </trkpt>
      <trkpt lat="45.1189" lon="2.6682">
        <ele>1596</ele>
        <time>2000-01-01T05:01:46.000Z</time>
      </trkpt>
      <trkpt lat="45.11898" lon="2.66821">
        <ele>1588</ele>
        <time>2000-01-01T05:01:56.000Z</time>
      </trkpt>
      <trkpt lat="45.11909" lon="2.66822">
        <ele>1589.5</ele>
        <time>2000-01-01T05:02:06.000Z</time>
      </trkpt>
      <trkpt lat="45.11923" lon="2.66823">
        <ele>1595</ele>
        <time>2000-01-01T05:02:16.000Z</time>
      </trkpt>
      <trkpt lat="45.11937" lon="2.66825">
        <ele>1583.4</ele>
        <time>2000-01-01T05:02:26.000Z</time>
      </trkpt>
      <trkpt lat="45.11944" lon="2.66826">
        <ele>1592</ele>
        <time>2000-01-01T05:02:36.000Z</time>
      </trkpt>
      <trkpt lat="45.11952" lon="2.66828">
        <ele>1580.9</ele>
        <time>2000-01-01T05:02:46.000Z</time>
      </trkpt>
      <trkpt lat="45.11963" lon="2.66829">
        <ele>1580.3</ele>
        <time>2000-01-01T05:02:56.000Z</time>
      </trkpt>
      <trkpt lat="45.11967" lon="2.6683">
        <ele>1592</ele>
        <time>2000-01-01T05:03:06.000Z</time>
      </trkpt>
      <trkpt lat="45.11978" lon="2.66832">
        <ele>1581.3</ele>
        <time>2000-01-01T05:03:16.000Z</time>
      </trkpt>
      <trkpt lat="45.11986" lon="2.66835">
        <ele>1592</ele>
        <time>2000-01-01T05:03:26.000Z</time>
      </trkpt>
      <trkpt lat="45.11998" lon="2.66836">
        <ele>1590.9</ele>
        <time>2000-01-01T05:03:36.000Z</time>
      </trkpt>
      <trkpt lat="45.12009" lon="2.66837">
        <ele>1592</ele>
        <time>2000-01-01T05:03:46.000Z</time>
      </trkpt>
      <trkpt lat="45.12018" lon="2.66836">
        <ele>1595.7</ele>
        <time>2000-01-01T05:03:56.000Z</time>
      </trkpt>
      <trkpt lat="45.12028" lon="2.66834">
        <ele>1592</ele>
        <time>2000-01-01T05:04:06.000Z</time>
      </trkpt>
      <trkpt lat="45.12033" lon="2.66833">
        <ele>1577.8</ele>
        <time>2000-01-01T05:04:16.000Z</time>
      </trkpt>
      <trkpt lat="45.12038" lon="2.6683">
        <ele>1577.3</ele>
        <time>2000-01-01T05:04:26.000Z</time>
      </trkpt>
      <trkpt lat="45.12042" lon="2.66825">
        <ele>1576.7</ele>
        <time>2000-01-01T05:04:36.000Z</time>
      </trkpt>
      <trkpt lat="45.12046" lon="2.66819">
        <ele>1585</ele>
        <time>2000-01-01T05:04:46.000Z</time>
      </trkpt>
      <trkpt lat="45.12051" lon="2.66814">
        <ele>1575.5</ele>
        <time>2000-01-01T05:04:56.000Z</time>
      </trkpt>
      <trkpt lat="45.12056" lon="2.6681">
        <ele>1575</ele>
        <time>2000-01-01T05:05:06.000Z</time>
      </trkpt>
      <trkpt lat="45.12059" lon="2.66809">
        <ele>1575</ele>
        <time>2000-01-01T05:05:16.000Z</time>
      </trkpt>
      <trkpt lat="45.1206" lon="2.66809">
        <ele>1575.1</ele>
        <time>2000-01-01T05:05:26.000Z</time>
      </trkpt>
      <trkpt lat="45.12064" lon="2.6681">
        <ele>1585</ele>
        <time>2000-01-01T05:05:36.000Z</time>
      </trkpt>
      <trkpt lat="45.12066" lon="2.66812">
        <ele>1576.2</ele>
        <time>2000-01-01T05:05:46.000Z</time>
      </trkpt>
      <trkpt lat="45.12067" lon="2.66813">
        <ele>1576.5</ele>
        <time>2000-01-01T05:05:56.000Z</time>
      </trkpt>
      <trkpt lat="45.12068" lon="2.66815">
        <ele>1577.1</ele>
        <time>2000-01-01T05:06:06.000Z</time>
      </trkpt>
      <trkpt lat="45.12069" lon="2.66817">
        <ele>1577.8</ele>
        <time>2000-01-01T05:06:16.000Z</time>
      </trkpt>
      <trkpt lat="45.12072" lon="2.66821">
        <ele>1579.3</ele>
        <time>2000-01-01T05:06:26.000Z</time>
      </trkpt>
      <trkpt lat="45.12076" lon="2.66827">
        <ele>1582</ele>
        <time>2000-01-01T05:06:36.000Z</time>
      </trkpt>
      <trkpt lat="45.12081" lon="2.66832">
        <ele>1591</ele>
        <time>2000-01-01T05:06:46.000Z</time>
      </trkpt>
      <trkpt lat="45.1209" lon="2.66836">
        <ele>1588.6</ele>
        <time>2000-01-01T05:06:56.000Z</time>
      </trkpt>
      <trkpt lat="45.12101" lon="2.66841">
        <ele>1591</ele>
        <time>2000-01-01T05:07:06.000Z</time>
      </trkpt>
      <trkpt lat="45.12109" lon="2.66845">
        <ele>1590.4</ele>
        <time>2000-01-01T05:07:16.000Z</time>
      </trkpt>
      <trkpt lat="45.12117" lon="2.66851">
        <ele>1590.6</ele>
        <time>2000-01-01T05:07:26.000Z</time>
      </trkpt>
      <trkpt lat="45.12123" lon="2.66855">
        <ele>1592</ele>
        <time>2000-01-01T05:07:36.000Z</time>
      </trkpt>
      <trkpt lat="45.12132" lon="2.66866">
        <ele>1591.3</ele>
        <time>2000-01-01T05:07:46.000Z</time>
      </trkpt>
      <trkpt lat="45.12136" lon="2.66874">
        <ele>1592.4</ele>
        <time>2000-01-01T05:07:56.000Z</time>
      </trkpt>
      <trkpt lat="45.12137" lon="2.66879">
        <ele>1593</ele>
        <time>2000-01-01T05:08:06.000Z</time>
      </trkpt>
      <trkpt lat="45.12139" lon="2.66885">
        <ele>1594.2</ele>
        <time>2000-01-01T05:08:16.000Z</time>
      </trkpt>
      <trkpt lat="45.12141" lon="2.66887">
        <ele>1594.4</ele>
        <time>2000-01-01T05:08:26.000Z</time>
      </trkpt>
      <trkpt lat="45.12146" lon="2.66891">
        <ele>1594.9</ele>
        <time>2000-01-01T05:08:36.000Z</time>
      </trkpt>
      <trkpt lat="45.12147" lon="2.66894">
        <ele>1595.3</ele>
        <time>2000-01-01T05:08:46.000Z</time>
      </trkpt>
      <trkpt lat="45.12161" lon="2.66909">
        <ele>1595</ele>
        <time>2000-01-01T05:08:56.000Z</time>
      </trkpt>
      <trkpt lat="45.12176" lon="2.66922">
        <ele>1601.4</ele>
        <time>2000-01-01T05:09:06.000Z</time>
      </trkpt>
      <trkpt lat="45.12182" lon="2.66926">
        <ele>1595</ele>
        <time>2000-01-01T05:09:16.000Z</time>
      </trkpt>
      <trkpt lat="45.12188" lon="2.66929">
        <ele>1602.1</ele>
        <time>2000-01-01T05:09:26.000Z</time>
      </trkpt>
      <trkpt lat="45.12202" lon="2.66937">
        <ele>1596</ele>
        <time>2000-01-01T05:09:36.000Z</time>
      </trkpt>
      <trkpt lat="45.12212" lon="2.66942">
        <ele>1601.4</ele>
        <time>2000-01-01T05:09:46.000Z</time>
      </trkpt>
      <trkpt lat="45.12219" lon="2.66944">
        <ele>1600.6</ele>
        <time>2000-01-01T05:09:56.000Z</time>
      </trkpt>
      <trkpt lat="45.12227" lon="2.66948">
        <ele>1596</ele>
        <time>2000-01-01T05:10:06.000Z</time>
      </trkpt>
      <trkpt lat="45.12237" lon="2.66952">
        <ele>1600.2</ele>
        <time>2000-01-01T05:10:16.000Z</time>
      </trkpt>
      <trkpt lat="45.1224" lon="2.66952">
        <ele>1599.9</ele>
        <time>2000-01-01T05:10:26.000Z</time>
      </trkpt>
      <trkpt lat="45.12242" lon="2.66953">
        <ele>1600</ele>
        <time>2000-01-01T05:10:36.000Z</time>
      </trkpt>
      <trkpt lat="45.12247" lon="2.66955">
        <ele>1598</ele>
        <time>2000-01-01T05:10:46.000Z</time>
      </trkpt>
      <trkpt lat="45.12254" lon="2.66959">
        <ele>1592.4</ele>
        <time>2000-01-01T05:10:56.000Z</time>
      </trkpt>
      <trkpt lat="45.12261" lon="2.66964">
        <ele>1593.5</ele>
        <time>2000-01-01T05:11:06.000Z</time>
      </trkpt>
      <trkpt lat="45.12275" lon="2.66971">
        <ele>1605</ele>
        <time>2000-01-01T05:11:16.000Z</time>
      </trkpt>
      <trkpt lat="45.12283" lon="2.66975">
        <ele>1594.2</ele>
        <time>2000-01-01T05:11:26.000Z</time>
      </trkpt>
      <trkpt lat="45.12299" lon="2.66981">
        <ele>1602</ele>
        <time>2000-01-01T05:11:36.000Z</time>
      </trkpt>
      <trkpt lat="45.12314" lon="2.66986">
        <ele>1594.8</ele>
        <time>2000-01-01T05:11:46.000Z</time>
      </trkpt>
      <trkpt lat="45.12322" lon="2.6699">
        <ele>1601</ele>
        <time>2000-01-01T05:11:56.000Z</time>
      </trkpt>
      <trkpt lat="45.12329" lon="2.66993">
        <ele>1597.9</ele>
        <time>2000-01-01T05:12:06.000Z</time>
      </trkpt>
      <trkpt lat="45.12334" lon="2.66995">
        <ele>1598.6</ele>
        <time>2000-01-01T05:12:16.000Z</time>
      </trkpt>
      <trkpt lat="45.12347" lon="2.66996">
        <ele>1600</ele>
        <time>2000-01-01T05:12:26.000Z</time>
      </trkpt>
      <trkpt lat="45.12365" lon="2.66998">
        <ele>1593.9</ele>
        <time>2000-01-01T05:12:36.000Z</time>
      </trkpt>
      <trkpt lat="45.12372" lon="2.66998">
        <ele>1600</ele>
        <time>2000-01-01T05:12:46.000Z</time>
      </trkpt>
      <trkpt lat="45.12376" lon="2.66997">
        <ele>1593.9</ele>
        <time>2000-01-01T05:12:56.000Z</time>
      </trkpt>
      <trkpt lat="45.12391" lon="2.6699">
        <ele>1600</ele>
        <time>2000-01-01T05:13:06.000Z</time>
      </trkpt>
      <trkpt lat="45.12398" lon="2.66986">
        <ele>1595.3</ele>
        <time>2000-01-01T05:13:16.000Z</time>
      </trkpt>
      <trkpt lat="45.12404" lon="2.66981">
        <ele>1595</ele>
        <time>2000-01-01T05:13:26.000Z</time>
      </trkpt>
      <trkpt lat="45.12411" lon="2.66976">
        <ele>1596</ele>
        <time>2000-01-01T05:13:36.000Z</time>
      </trkpt>
      <trkpt lat="45.12422" lon="2.66972">
        <ele>1595.4</ele>
        <time>2000-01-01T05:13:46.000Z</time>
      </trkpt>
      <trkpt lat="45.12433" lon="2.66969">
        <ele>1596</ele>
        <time>2000-01-01T05:13:56.000Z</time>
      </trkpt>
      <trkpt lat="45.12449" lon="2.66969">
        <ele>1594</ele>
        <time>2000-01-01T05:14:06.000Z</time>
      </trkpt>
      <trkpt lat="45.12465" lon="2.66969">
        <ele>1597</ele>
        <time>2000-01-01T05:14:16.000Z</time>
      </trkpt>
      <trkpt lat="45.12473" lon="2.6697">
        <ele>1594.4</ele>
        <time>2000-01-01T05:14:26.000Z</time>
      </trkpt>
      <trkpt lat="45.12479" lon="2.66971">
        <ele>1594.8</ele>
        <time>2000-01-01T05:14:36.000Z</time>
      </trkpt>
      <trkpt lat="45.12494" lon="2.66971">
        <ele>1597</ele>
        <time>2000-01-01T05:14:46.000Z</time>
      </trkpt>
      <trkpt lat="45.12517" lon="2.66971">
        <ele>1597</ele>
        <time>2000-01-01T05:14:56.000Z</time>
      </trkpt>
      <trkpt lat="45.12531" lon="2.66972">
        <ele>1594.3</ele>
        <time>2000-01-01T05:15:06.000Z</time>
      </trkpt>
      <trkpt lat="45.12536" lon="2.66972">
        <ele>1594.1</ele>
        <time>2000-01-01T05:15:16.000Z</time>
      </trkpt>
      <trkpt lat="45.1255" lon="2.66969">
        <ele>1596</ele>
        <time>2000-01-01T05:15:26.000Z</time>
      </trkpt>
      <trkpt lat="45.12571" lon="2.66964">
        <ele>1596</ele>
        <time>2000-01-01T05:15:36.000Z</time>
      </trkpt>
      <trkpt lat="45.1259" lon="2.66961">
        <ele>1596</ele>
        <time>2000-01-01T05:15:46.000Z</time>
      </trkpt>
      <trkpt lat="45.1261" lon="2.66958">
        <ele>1593</ele>
        <time>2000-01-01T05:15:56.000Z</time>
      </trkpt>
      <trkpt lat="45.12621" lon="2.66957">
        <ele>1585.1</ele>
        <time>2000-01-01T05:16:06.000Z</time>
      </trkpt>
      <trkpt lat="45.12631" lon="2.66958">
        <ele>1593</ele>
        <time>2000-01-01T05:16:16.000Z</time>
      </trkpt>
      <trkpt lat="45.12639" lon="2.66961">
        <ele>1584.3</ele>
        <time>2000-01-01T05:16:26.000Z</time>
      </trkpt>
      <trkpt lat="45.12648" lon="2.66965">
        <ele>1584.5</ele>
        <time>2000-01-01T05:16:36.000Z</time>
      </trkpt>
      <trkpt lat="45.12657" lon="2.6697">
        <ele>1593</ele>
        <time>2000-01-01T05:16:46.000Z</time>
      </trkpt>
      <trkpt lat="45.12664" lon="2.66976">
        <ele>1585.8</ele>
        <time>2000-01-01T05:16:56.000Z</time>
      </trkpt>
      <trkpt lat="45.12665" lon="2.66977">
        <ele>1586</ele>
        <time>2000-01-01T05:17:06.000Z</time>
      </trkpt>
      <trkpt lat="45.12665" lon="2.66976">
        <ele>1585.8</ele>
        <time>2000-01-01T05:17:16.000Z</time>
      </trkpt>
      <trkpt lat="45.12665" lon="2.66976">
        <ele>1585.8</ele>
        <time>2000-01-01T05:17:26.000Z</time>
      </trkpt>
      <trkpt lat="45.12665" lon="2.66977">
        <ele>1586</ele>
        <time>2000-01-01T05:17:36.000Z</time>
      </trkpt>
      <trkpt lat="45.12668" lon="2.66982">
        <ele>1574.1</ele>
        <time>2000-01-01T05:17:46.000Z</time>
      </trkpt>
      <trkpt lat="45.12674" lon="2.66992">
        <ele>1592</ele>
        <time>2000-01-01T05:17:56.000Z</time>
      </trkpt>
      <trkpt lat="45.1268" lon="2.67002">
        <ele>1584.1</ele>
        <time>2000-01-01T05:18:06.000Z</time>
      </trkpt>
      <trkpt lat="45.1268" lon="2.67003">
        <ele>1584.1</ele>
        <time>2000-01-01T05:18:16.000Z</time>
      </trkpt>
      <trkpt lat="45.12683" lon="2.67007">
        <ele>1582.9</ele>
        <time>2000-01-01T05:18:26.000Z</time>
      </trkpt>
      <trkpt lat="45.12687" lon="2.67015">
        <ele>1592</ele>
        <time>2000-01-01T05:18:36.000Z</time>
      </trkpt>
      <trkpt lat="45.127" lon="2.67036">
        <ele>1585</ele>
        <time>2000-01-01T05:18:46.000Z</time>
      </trkpt>
      <trkpt lat="45.12705" lon="2.67044">
        <ele>1578</ele>
        <time>2000-01-01T05:18:56.000Z</time>
      </trkpt>
      <trkpt lat="45.12708" lon="2.6705">
        <ele>1577.8</ele>
        <time>2000-01-01T05:19:06.000Z</time>
      </trkpt>
      <trkpt lat="45.1271" lon="2.67056">
        <ele>1577.7</ele>
        <time>2000-01-01T05:19:16.000Z</time>
      </trkpt>
      <trkpt lat="45.12712" lon="2.67061">
        <ele>1585</ele>
        <time>2000-01-01T05:19:26.000Z</time>
      </trkpt>
      <trkpt lat="45.12714" lon="2.67064">
        <ele>1577.1</ele>
        <time>2000-01-01T05:19:36.000Z</time>
      </trkpt>
      <trkpt lat="45.12719" lon="2.67071">
        <ele>1575.8</ele>
        <time>2000-01-01T05:19:46.000Z</time>
      </trkpt>
      <trkpt lat="45.12722" lon="2.67076">
        <ele>1574.9</ele>
        <time>2000-01-01T05:19:56.000Z</time>
      </trkpt>
      <trkpt lat="45.12725" lon="2.67081">
        <ele>1584</ele>
        <time>2000-01-01T05:20:06.000Z</time>
      </trkpt>
      <trkpt lat="45.12728" lon="2.67088">
        <ele>1580.3</ele>
        <time>2000-01-01T05:20:16.000Z</time>
      </trkpt>
      <trkpt lat="45.12731" lon="2.67093">
        <ele>1579.6</ele>
        <time>2000-01-01T05:20:26.000Z</time>
      </trkpt>
      <trkpt lat="45.12733" lon="2.67096">
        <ele>1579.4</ele>
        <time>2000-01-01T05:20:36.000Z</time>
      </trkpt>
      <trkpt lat="45.12733" lon="2.67097">
        <ele>1579.7</ele>
        <time>2000-01-01T05:20:46.000Z</time>
      </trkpt>
      <trkpt lat="45.12736" lon="2.67102">
        <ele>1580</ele>
        <time>2000-01-01T05:20:56.000Z</time>
      </trkpt>
      <trkpt lat="45.12738" lon="2.67108">
        <ele>1583</ele>
        <time>2000-01-01T05:21:06.000Z</time>
      </trkpt>
      <trkpt lat="45.12739" lon="2.67111">
        <ele>1581.8</ele>
        <time>2000-01-01T05:21:16.000Z</time>
      </trkpt>
      <trkpt lat="45.12739" lon="2.67114">
        <ele>1582.5</ele>
        <time>2000-01-01T05:21:26.000Z</time>
      </trkpt>
      <trkpt lat="45.12739" lon="2.67116">
        <ele>1582.9</ele>
        <time>2000-01-01T05:21:36.000Z</time>
      </trkpt>
      <trkpt lat="45.1274" lon="2.67124">
        <ele>1584</ele>
        <time>2000-01-01T05:21:46.000Z</time>
      </trkpt>
      <trkpt lat="45.12741" lon="2.6713">
        <ele>1584.4</ele>
        <time>2000-01-01T05:21:56.000Z</time>
      </trkpt>
      <trkpt lat="45.1274" lon="2.67136">
        <ele>1582</ele>
        <time>2000-01-01T05:22:06.000Z</time>
      </trkpt>
      <trkpt lat="45.12741" lon="2.67143">
        <ele>1584.5</ele>
        <time>2000-01-01T05:22:16.000Z</time>
      </trkpt>
      <trkpt lat="45.12742" lon="2.67151">
        <ele>1583.4</ele>
        <time>2000-01-01T05:22:26.000Z</time>
      </trkpt>
      <trkpt lat="45.12744" lon="2.67157">
        <ele>1581.9</ele>
        <time>2000-01-01T05:22:36.000Z</time>
      </trkpt>
      <trkpt lat="45.12748" lon="2.67161">
        <ele>1579</ele>
        <time>2000-01-01T05:22:46.000Z</time>
      </trkpt>
      <trkpt lat="45.12752" lon="2.67164">
        <ele>1573.6</ele>
        <time>2000-01-01T05:22:56.000Z</time>
      </trkpt>
      <trkpt lat="45.12753" lon="2.67165">
        <ele>1573.5</ele>
        <time>2000-01-01T05:23:06.000Z</time>
      </trkpt>
      <trkpt lat="45.12754" lon="2.67169">
        <ele>1574.8</ele>
        <time>2000-01-01T05:23:16.000Z</time>
      </trkpt>
      <trkpt lat="45.12754" lon="2.67175">
        <ele>1573.1</ele>
        <time>2000-01-01T05:23:26.000Z</time>
      </trkpt>
      <trkpt lat="45.12755" lon="2.67184">
        <ele>1576</ele>
        <time>2000-01-01T05:23:36.000Z</time>
      </trkpt>
      <trkpt lat="45.12757" lon="2.67192">
        <ele>1570.1</ele>
        <time>2000-01-01T05:23:46.000Z</time>
      </trkpt>
      <trkpt lat="45.12759" lon="2.67198">
        <ele>1569.8</ele>
        <time>2000-01-01T05:23:56.000Z</time>
      </trkpt>
      <trkpt lat="45.12761" lon="2.67202">
        <ele>1569.6</ele>
        <time>2000-01-01T05:24:06.000Z</time>
      </trkpt>
      <trkpt lat="45.12765" lon="2.67207">
        <ele>1572</ele>
        <time>2000-01-01T05:24:16.000Z</time>
      </trkpt>
      <trkpt lat="45.12769" lon="2.67211">
        <ele>1569.2</ele>
        <time>2000-01-01T05:24:26.000Z</time>
      </trkpt>
      <trkpt lat="45.12773" lon="2.67215">
        <ele>1568.9</ele>
        <time>2000-01-01T05:24:36.000Z</time>
      </trkpt>
      <trkpt lat="45.12776" lon="2.67218">
        <ele>1568.7</ele>
        <time>2000-01-01T05:24:46.000Z</time>
      </trkpt>
      <trkpt lat="45.12778" lon="2.67221">
        <ele>1568.7</ele>
        <time>2000-01-01T05:24:56.000Z</time>
      </trkpt>
      <trkpt lat="45.12781" lon="2.67227">
        <ele>1568</ele>
        <time>2000-01-01T05:25:06.000Z</time>
      </trkpt>
      <trkpt lat="45.12789" lon="2.67236">
        <ele>1567.5</ele>
        <time>2000-01-01T05:25:16.000Z</time>
      </trkpt>
      <trkpt lat="45.12793" lon="2.67242">
        <ele>1566.9</ele>
        <time>2000-01-01T05:25:26.000Z</time>
      </trkpt>
      <trkpt lat="45.12802" lon="2.67248">
        <ele>1567</ele>
        <time>2000-01-01T05:25:36.000Z</time>
      </trkpt>
      <trkpt lat="45.12816" lon="2.67257">
        <ele>1567.6</ele>
        <time>2000-01-01T05:25:46.000Z</time>
      </trkpt>
      <trkpt lat="45.12828" lon="2.67263">
        <ele>1565</ele>
        <time>2000-01-01T05:25:56.000Z</time>
      </trkpt>
      <trkpt lat="45.12841" lon="2.67268">
        <ele>1555.6</ele>
        <time>2000-01-01T05:26:06.000Z</time>
      </trkpt>
      <trkpt lat="45.12856" lon="2.67272">
        <ele>1560</ele>
        <time>2000-01-01T05:26:16.000Z</time>
      </trkpt>
      <trkpt lat="45.12875" lon="2.67275">
        <ele>1552.3</ele>
        <time>2000-01-01T05:26:26.000Z</time>
      </trkpt>
      <trkpt lat="45.12894" lon="2.67279">
        <ele>1552</ele>
        <time>2000-01-01T05:26:36.000Z</time>
      </trkpt>
      <trkpt lat="45.12913" lon="2.67279">
        <ele>1549</ele>
        <time>2000-01-01T05:26:46.000Z</time>
      </trkpt>
      <trkpt lat="45.12928" lon="2.6728">
        <ele>1540.6</ele>
        <time>2000-01-01T05:26:56.000Z</time>
      </trkpt>
      <trkpt lat="45.12939" lon="2.67279">
        <ele>1547</ele>
        <time>2000-01-01T05:27:06.000Z</time>
      </trkpt>
      <trkpt lat="45.12945" lon="2.67279">
        <ele>1540</ele>
        <time>2000-01-01T05:27:16.000Z</time>
      </trkpt>
      <trkpt lat="45.12966" lon="2.67276">
        <ele>1543</ele>
        <time>2000-01-01T05:27:26.000Z</time>
      </trkpt>
      <trkpt lat="45.12979" lon="2.67274">
        <ele>1538</ele>
        <time>2000-01-01T05:27:36.000Z</time>
      </trkpt>
      <trkpt lat="45.12993" lon="2.67272">
        <ele>1538</ele>
        <time>2000-01-01T05:27:46.000Z</time>
      </trkpt>
      <trkpt lat="45.13015" lon="2.67269">
        <ele>1533</ele>
        <time>2000-01-01T05:27:56.000Z</time>
      </trkpt>
      <trkpt lat="45.13028" lon="2.67267">
        <ele>1531.7</ele>
        <time>2000-01-01T05:28:06.000Z</time>
      </trkpt>
      <trkpt lat="45.1304" lon="2.67265">
        <ele>1530</ele>
        <time>2000-01-01T05:28:16.000Z</time>
      </trkpt>
      <trkpt lat="45.13053" lon="2.67262">
        <ele>1530.4</ele>
        <time>2000-01-01T05:28:26.000Z</time>
      </trkpt>
      <trkpt lat="45.13066" lon="2.6726">
        <ele>1527</ele>
        <time>2000-01-01T05:28:36.000Z</time>
      </trkpt>
      <trkpt lat="45.13081" lon="2.67255">
        <ele>1529.3</ele>
        <time>2000-01-01T05:28:46.000Z</time>
      </trkpt>
      <trkpt lat="45.13096" lon="2.67252">
        <ele>1525</ele>
        <time>2000-01-01T05:28:56.000Z</time>
      </trkpt>
      <trkpt lat="45.13106" lon="2.67249">
        <ele>1525.7</ele>
        <time>2000-01-01T05:29:06.000Z</time>
      </trkpt>
      <trkpt lat="45.13115" lon="2.67247">
        <ele>1523</ele>
        <time>2000-01-01T05:29:16.000Z</time>
      </trkpt>
      <trkpt lat="45.13126" lon="2.67246">
        <ele>1525</ele>
        <time>2000-01-01T05:29:26.000Z</time>
      </trkpt>
      <trkpt lat="45.13134" lon="2.67246">
        <ele>1525.2</ele>
        <time>2000-01-01T05:29:36.000Z</time>
      </trkpt>
      <trkpt lat="45.13143" lon="2.67245">
        <ele>1522</ele>
        <time>2000-01-01T05:29:46.000Z</time>
      </trkpt>
      <trkpt lat="45.13157" lon="2.67245">
        <ele>1526.9</ele>
        <time>2000-01-01T05:29:56.000Z</time>
      </trkpt>
      <trkpt lat="45.13168" lon="2.67244">
        <ele>1522</ele>
        <time>2000-01-01T05:30:06.000Z</time>
      </trkpt>
      <trkpt lat="45.13177" lon="2.67244">
        <ele>1528</ele>
        <time>2000-01-01T05:30:16.000Z</time>
      </trkpt>
      <trkpt lat="45.13188" lon="2.67244">
        <ele>1524</ele>
        <time>2000-01-01T05:30:26.000Z</time>
      </trkpt>
      <trkpt lat="45.13194" lon="2.67243">
        <ele>1527.7</ele>
        <time>2000-01-01T05:30:36.000Z</time>
      </trkpt>
      <trkpt lat="45.13215" lon="2.67241">
        <ele>1527</ele>
        <time>2000-01-01T05:30:46.000Z</time>
      </trkpt>
      <trkpt lat="45.13227" lon="2.67239">
        <ele>1529.2</ele>
        <time>2000-01-01T05:30:56.000Z</time>
      </trkpt>
      <trkpt lat="45.13242" lon="2.67237">
        <ele>1532</ele>
        <time>2000-01-01T05:31:06.000Z</time>
      </trkpt>
      <trkpt lat="45.13256" lon="2.67233">
        <ele>1533</ele>
        <time>2000-01-01T05:31:16.000Z</time>
      </trkpt>
      <trkpt lat="45.13265" lon="2.6723">
        <ele>1535</ele>
        <time>2000-01-01T05:31:26.000Z</time>
      </trkpt>
      <trkpt lat="45.13278" lon="2.67227">
        <ele>1532.9</ele>
        <time>2000-01-01T05:31:36.000Z</time>
      </trkpt>
      <trkpt lat="45.13291" lon="2.67222">
        <ele>1540</ele>
        <time>2000-01-01T05:31:46.000Z</time>
      </trkpt>
      <trkpt lat="45.13298" lon="2.6722">
        <ele>1533.2</ele>
        <time>2000-01-01T05:31:56.000Z</time>
      </trkpt>
      <trkpt lat="45.13305" lon="2.67218">
        <ele>1533.4</ele>
        <time>2000-01-01T05:32:06.000Z</time>
      </trkpt>
      <trkpt lat="45.13315" lon="2.67215">
        <ele>1542</ele>
        <time>2000-01-01T05:32:16.000Z</time>
      </trkpt>
      <trkpt lat="45.13328" lon="2.67209">
        <ele>1533.3</ele>
        <time>2000-01-01T05:32:26.000Z</time>
      </trkpt>
      <trkpt lat="45.13336" lon="2.67207">
        <ele>1542</ele>
        <time>2000-01-01T05:32:36.000Z</time>
      </trkpt>
      <trkpt lat="45.1334" lon="2.67205">
        <ele>1535.1</ele>
        <time>2000-01-01T05:32:46.000Z</time>
      </trkpt>
      <trkpt lat="45.13344" lon="2.67202">
        <ele>1534.8</ele>
        <time>2000-01-01T05:32:56.000Z</time>
      </trkpt>
      <trkpt lat="45.13346" lon="2.67201">
        <ele>1534.7</ele>
        <time>2000-01-01T05:33:06.000Z</time>
      </trkpt>
      <trkpt lat="45.13347" lon="2.67202">
        <ele>1534.8</ele>
        <time>2000-01-01T05:33:16.000Z</time>
      </trkpt>
      <trkpt lat="45.13349" lon="2.67205">
        <ele>1535.2</ele>
        <time>2000-01-01T05:33:26.000Z</time>
      </trkpt>
      <trkpt lat="45.1335" lon="2.67209">
        <ele>1535.6</ele>
        <time>2000-01-01T05:33:36.000Z</time>
      </trkpt>
      <trkpt lat="45.13354" lon="2.67213">
        <ele>1544</ele>
        <time>2000-01-01T05:33:46.000Z</time>
      </trkpt>
      <trkpt lat="45.13356" lon="2.67216">
        <ele>1536.3</ele>
        <time>2000-01-01T05:33:56.000Z</time>
      </trkpt>
      <trkpt lat="45.1336" lon="2.67218">
        <ele>1536.5</ele>
        <time>2000-01-01T05:34:06.000Z</time>
      </trkpt>
      <trkpt lat="45.13367" lon="2.67222">
        <ele>1536.9</ele>
        <time>2000-01-01T05:34:16.000Z</time>
      </trkpt>
      <trkpt lat="45.13376" lon="2.67223">
        <ele>1547</ele>
        <time>2000-01-01T05:34:26.000Z</time>
      </trkpt>
      <trkpt lat="45.13384" lon="2.67224">
        <ele>1537.6</ele>
        <time>2000-01-01T05:34:36.000Z</time>
      </trkpt>
      <trkpt lat="45.13387" lon="2.67224">
        <ele>1537.7</ele>
        <time>2000-01-01T05:34:46.000Z</time>
      </trkpt>
      <trkpt lat="45.13391" lon="2.67223">
        <ele>1537.8</ele>
        <time>2000-01-01T05:34:56.000Z</time>
      </trkpt>
      <trkpt lat="45.13397" lon="2.67221">
        <ele>1549</ele>
        <time>2000-01-01T05:35:06.000Z</time>
      </trkpt>
      <trkpt lat="45.13404" lon="2.67221">
        <ele>1538.1</ele>
        <time>2000-01-01T05:35:16.000Z</time>
      </trkpt>
      <trkpt lat="45.13411" lon="2.6722">
        <ele>1538.2</ele>
        <time>2000-01-01T05:35:26.000Z</time>
      </trkpt>
      <trkpt lat="45.13419" lon="2.6722">
        <ele>1550</ele>
        <time>2000-01-01T05:35:36.000Z</time>
      </trkpt>
      <trkpt lat="45.13428" lon="2.67221">
        <ele>1537.5</ele>
        <time>2000-01-01T05:35:46.000Z</time>
      </trkpt>
      <trkpt lat="45.13435" lon="2.67223">
        <ele>1537.5</ele>
        <time>2000-01-01T05:35:56.000Z</time>
      </trkpt>
      <trkpt lat="45.13444" lon="2.67227">
        <ele>1551</ele>
        <time>2000-01-01T05:36:06.000Z</time>
      </trkpt>
      <trkpt lat="45.13454" lon="2.67231">
        <ele>1537.4</ele>
        <time>2000-01-01T05:36:16.000Z</time>
      </trkpt>
      <trkpt lat="45.13464" lon="2.67236">
        <ele>1554</ele>
        <time>2000-01-01T05:36:26.000Z</time>
      </trkpt>
      <trkpt lat="45.1347" lon="2.67241">
        <ele>1538.2</ele>
        <time>2000-01-01T05:36:36.000Z</time>
      </trkpt>
      <trkpt lat="45.13479" lon="2.67248">
        <ele>1539.3</ele>
        <time>2000-01-01T05:36:46.000Z</time>
      </trkpt>
      <trkpt lat="45.13485" lon="2.67254">
        <ele>1554</ele>
        <time>2000-01-01T05:36:56.000Z</time>
      </trkpt>
      <trkpt lat="45.13491" lon="2.67259">
        <ele>1541.4</ele>
        <time>2000-01-01T05:37:06.000Z</time>
      </trkpt>
      <trkpt lat="45.13498" lon="2.67267">
        <ele>1540.6</ele>
        <time>2000-01-01T05:37:16.000Z</time>
      </trkpt>
      <trkpt lat="45.13505" lon="2.67271">
        <ele>1553</ele>
        <time>2000-01-01T05:37:26.000Z</time>
      </trkpt>
      <trkpt lat="45.13511" lon="2.67275">
        <ele>1537.7</ele>
        <time>2000-01-01T05:37:36.000Z</time>
      </trkpt>
      <trkpt lat="45.13517" lon="2.67279">
        <ele>1536.9</ele>
        <time>2000-01-01T05:37:46.000Z</time>
      </trkpt>
      <trkpt lat="45.13521" lon="2.67282">
        <ele>1536.4</ele>
        <time>2000-01-01T05:37:56.000Z</time>
      </trkpt>
      <trkpt lat="45.13525" lon="2.67281">
        <ele>1552</ele>
        <time>2000-01-01T05:38:06.000Z</time>
      </trkpt>
      <trkpt lat="45.13529" lon="2.67281">
        <ele>1536.2</ele>
        <time>2000-01-01T05:38:16.000Z</time>
      </trkpt>
      <trkpt lat="45.13533" lon="2.67279">
        <ele>1536.3</ele>
        <time>2000-01-01T05:38:26.000Z</time>
      </trkpt>
      <trkpt lat="45.13538" lon="2.67276">
        <ele>1536.4</ele>
        <time>2000-01-01T05:38:36.000Z</time>
      </trkpt>
      <trkpt lat="45.13547" lon="2.67272">
        <ele>1551</ele>
        <time>2000-01-01T05:38:46.000Z</time>
      </trkpt>
      <trkpt lat="45.13553" lon="2.67271">
        <ele>1536.5</ele>
        <time>2000-01-01T05:38:56.000Z</time>
      </trkpt>
      <trkpt lat="45.13567" lon="2.67265">
        <ele>1549</ele>
        <time>2000-01-01T05:39:06.000Z</time>
      </trkpt>
      <trkpt lat="45.13571" lon="2.67262">
        <ele>1537.6</ele>
        <time>2000-01-01T05:39:16.000Z</time>
      </trkpt>
      <trkpt lat="45.13574" lon="2.67259">
        <ele>1538</ele>
        <time>2000-01-01T05:39:26.000Z</time>
      </trkpt>
      <trkpt lat="45.13575" lon="2.67257">
        <ele>1538.3</ele>
        <time>2000-01-01T05:39:36.000Z</time>
      </trkpt>
      <trkpt lat="45.13579" lon="2.67254">
        <ele>1539</ele>
        <time>2000-01-01T05:39:46.000Z</time>
      </trkpt>
      <trkpt lat="45.13583" lon="2.67253">
        <ele>1539.4</ele>
        <time>2000-01-01T05:39:56.000Z</time>
      </trkpt>
      <trkpt lat="45.13587" lon="2.67251">
        <ele>1548</ele>
        <time>2000-01-01T05:40:06.000Z</time>
      </trkpt>
      <trkpt lat="45.13592" lon="2.67249">
        <ele>1536.5</ele>
        <time>2000-01-01T05:40:16.000Z</time>
      </trkpt>
      <trkpt lat="45.13596" lon="2.67246">
        <ele>1535.2</ele>
        <time>2000-01-01T05:40:26.000Z</time>
      </trkpt>
      <trkpt lat="45.13602" lon="2.67241">
        <ele>1533.4</ele>
        <time>2000-01-01T05:40:36.000Z</time>
      </trkpt>
      <trkpt lat="45.13609" lon="2.67235">
        <ele>1544</ele>
        <time>2000-01-01T05:40:46.000Z</time>
      </trkpt>
      <trkpt lat="45.13614" lon="2.6723">
        <ele>1530.9</ele>
        <time>2000-01-01T05:40:56.000Z</time>
      </trkpt>
      <trkpt lat="45.13619" lon="2.67227">
        <ele>1530.4</ele>
        <time>2000-01-01T05:41:06.000Z</time>
      </trkpt>
      <trkpt lat="45.13623" lon="2.67224">
        <ele>1529.9</ele>
        <time>2000-01-01T05:41:16.000Z</time>
      </trkpt>
      <trkpt lat="45.13627" lon="2.67221">
        <ele>1540</ele>
        <time>2000-01-01T05:41:26.000Z</time>
      </trkpt>
      <trkpt lat="45.13631" lon="2.6722">
        <ele>1529.3</ele>
        <time>2000-01-01T05:41:36.000Z</time>
      </trkpt>
      <trkpt lat="45.13636" lon="2.67219">
        <ele>1529.2</ele>
        <time>2000-01-01T05:41:46.000Z</time>
      </trkpt>
      <trkpt lat="45.13641" lon="2.67219">
        <ele>1529.3</ele>
        <time>2000-01-01T05:41:56.000Z</time>
      </trkpt>
      <trkpt lat="45.13646" lon="2.6722">
        <ele>1536</ele>
        <time>2000-01-01T05:42:06.000Z</time>
      </trkpt>
      <trkpt lat="45.1365" lon="2.67219">
        <ele>1529.5</ele>
        <time>2000-01-01T05:42:16.000Z</time>
      </trkpt>
      <trkpt lat="45.13655" lon="2.67217">
        <ele>1529.2</ele>
        <time>2000-01-01T05:42:26.000Z</time>
      </trkpt>
      <trkpt lat="45.13662" lon="2.67214">
        <ele>1528.7</ele>
        <time>2000-01-01T05:42:36.000Z</time>
      </trkpt>
      <trkpt lat="45.13672" lon="2.67209">
        <ele>1532</ele>
        <time>2000-01-01T05:42:46.000Z</time>
      </trkpt>
      <trkpt lat="45.1368" lon="2.67206">
        <ele>1526.7</ele>
        <time>2000-01-01T05:42:56.000Z</time>
      </trkpt>
      <trkpt lat="45.13691" lon="2.67203">
        <ele>1531</ele>
        <time>2000-01-01T05:43:06.000Z</time>
      </trkpt>
      <trkpt lat="45.137" lon="2.672">
        <ele>1526.1</ele>
        <time>2000-01-01T05:43:16.000Z</time>
      </trkpt>
      <trkpt lat="45.13709" lon="2.67198">
        <ele>1525.9</ele>
        <time>2000-01-01T05:43:26.000Z</time>
      </trkpt>
      <trkpt lat="45.13718" lon="2.67195">
        <ele>1527</ele>
        <time>2000-01-01T05:43:36.000Z</time>
      </trkpt>
      <trkpt lat="45.13725" lon="2.67191">
        <ele>1525</ele>
        <time>2000-01-01T05:43:46.000Z</time>
      </trkpt>
      <trkpt lat="45.13734" lon="2.67183">
        <ele>1523.5</ele>
        <time>2000-01-01T05:43:56.000Z</time>
      </trkpt>
      <trkpt lat="45.13741" lon="2.67178">
        <ele>1521</ele>
        <time>2000-01-01T05:44:06.000Z</time>
      </trkpt>
      <trkpt lat="45.1375" lon="2.67174">
        <ele>1519.5</ele>
        <time>2000-01-01T05:44:16.000Z</time>
      </trkpt>
      <trkpt lat="45.13755" lon="2.6717">
        <ele>1519.2</ele>
        <time>2000-01-01T05:44:26.000Z</time>
      </trkpt>
      <trkpt lat="45.13762" lon="2.67163">
        <ele>1518</ele>
        <time>2000-01-01T05:44:36.000Z</time>
      </trkpt>
      <trkpt lat="45.13773" lon="2.67153">
        <ele>1511.1</ele>
        <time>2000-01-01T05:44:46.000Z</time>
      </trkpt>
      <trkpt lat="45.13785" lon="2.67144">
        <ele>1513</ele>
        <time>2000-01-01T05:44:56.000Z</time>
      </trkpt>
      <trkpt lat="45.1379" lon="2.67141">
        <ele>1509.3</ele>
        <time>2000-01-01T05:45:06.000Z</time>
      </trkpt>
      <trkpt lat="45.13797" lon="2.67137">
        <ele>1509</ele>
        <time>2000-01-01T05:45:16.000Z</time>
      </trkpt>
      <trkpt lat="45.13804" lon="2.67133">
        <ele>1513</ele>
        <time>2000-01-01T05:45:26.000Z</time>
      </trkpt>
      <trkpt lat="45.13815" lon="2.67125">
        <ele>1508</ele>
        <time>2000-01-01T05:45:36.000Z</time>
      </trkpt>
      <trkpt lat="45.13823" lon="2.67119">
        <ele>1513</ele>
        <time>2000-01-01T05:45:46.000Z</time>
      </trkpt>
      <trkpt lat="45.13838" lon="2.6711">
        <ele>1503.2</ele>
        <time>2000-01-01T05:45:56.000Z</time>
      </trkpt>
      <trkpt lat="45.13854" lon="2.67101">
        <ele>1513</ele>
        <time>2000-01-01T05:46:06.000Z</time>
      </trkpt>
      <trkpt lat="45.13868" lon="2.67093">
        <ele>1501.9</ele>
        <time>2000-01-01T05:46:16.000Z</time>
      </trkpt>
      <trkpt lat="45.13882" lon="2.67084">
        <ele>1510</ele>
        <time>2000-01-01T05:46:26.000Z</time>
      </trkpt>
      <trkpt lat="45.13892" lon="2.67079">
        <ele>1499.3</ele>
        <time>2000-01-01T05:46:36.000Z</time>
      </trkpt>
      <trkpt lat="45.13898" lon="2.67074">
        <ele>1499.5</ele>
        <time>2000-01-01T05:46:46.000Z</time>
      </trkpt>
      <trkpt lat="45.13904" lon="2.67067">
        <ele>1507</ele>
        <time>2000-01-01T05:46:56.000Z</time>
      </trkpt>
      <trkpt lat="45.13911" lon="2.67059">
        <ele>1499.4</ele>
        <time>2000-01-01T05:47:06.000Z</time>
      </trkpt>
      <trkpt lat="45.13919" lon="2.67049">
        <ele>1506</ele>
        <time>2000-01-01T05:47:16.000Z</time>
      </trkpt>
      <trkpt lat="45.13927" lon="2.6704">
        <ele>1496.3</ele>
        <time>2000-01-01T05:47:26.000Z</time>
      </trkpt>
      <trkpt lat="45.13931" lon="2.67036">
        <ele>1496.3</ele>
        <time>2000-01-01T05:47:36.000Z</time>
      </trkpt>
      <trkpt lat="45.13936" lon="2.67032">
        <ele>1505</ele>
        <time>2000-01-01T05:47:46.000Z</time>
      </trkpt>
      <trkpt lat="45.13943" lon="2.67027">
        <ele>1495.8</ele>
        <time>2000-01-01T05:47:56.000Z</time>
      </trkpt>
      <trkpt lat="45.13945" lon="2.67024">
        <ele>1495.7</ele>
        <time>2000-01-01T05:48:06.000Z</time>
      </trkpt>
      <trkpt lat="45.13951" lon="2.67013">
        <ele>1506</ele>
        <time>2000-01-01T05:48:16.000Z</time>
      </trkpt>
      <trkpt lat="45.13957" lon="2.66998">
        <ele>1500</ele>
        <time>2000-01-01T05:48:26.000Z</time>
      </trkpt>
      <trkpt lat="45.13966" lon="2.66983">
        <ele>1507</ele>
        <time>2000-01-01T05:48:36.000Z</time>
      </trkpt>
      <trkpt lat="45.1397" lon="2.66975">
        <ele>1499.7</ele>
        <time>2000-01-01T05:48:46.000Z</time>
      </trkpt>
      <trkpt lat="45.13973" lon="2.6697">
        <ele>1499.9</ele>
        <time>2000-01-01T05:48:56.000Z</time>
      </trkpt>
      <trkpt lat="45.1398" lon="2.66962">
        <ele>1507</ele>
        <time>2000-01-01T05:49:06.000Z</time>
      </trkpt>
      <trkpt lat="45.13986" lon="2.66953">
        <ele>1500.8</ele>
        <time>2000-01-01T05:49:16.000Z</time>
      </trkpt>
      <trkpt lat="45.13995" lon="2.6694">
        <ele>1507</ele>
        <time>2000-01-01T05:49:26.000Z</time>
      </trkpt>
      <trkpt lat="45.14006" lon="2.66928">
        <ele>1500.5</ele>
        <time>2000-01-01T05:49:36.000Z</time>
      </trkpt>
      <trkpt lat="45.14016" lon="2.66916">
        <ele>1507</ele>
        <time>2000-01-01T05:49:46.000Z</time>
      </trkpt>
      <trkpt lat="45.14029" lon="2.66901">
        <ele>1501.5</ele>
        <time>2000-01-01T05:49:56.000Z</time>
      </trkpt>
      <trkpt lat="45.1404" lon="2.66888">
        <ele>1507</ele>
        <time>2000-01-01T05:50:06.000Z</time>
      </trkpt>
      <trkpt lat="45.14048" lon="2.66879">
        <ele>1500.8</ele>
        <time>2000-01-01T05:50:16.000Z</time>
      </trkpt>
      <trkpt lat="45.14056" lon="2.66872">
        <ele>1506</ele>
        <time>2000-01-01T05:50:26.000Z</time>
      </trkpt>
      <trkpt lat="45.14065" lon="2.66865">
        <ele>1501.5</ele>
        <time>2000-01-01T05:50:36.000Z</time>
      </trkpt>
      <trkpt lat="45.14072" lon="2.66861">
        <ele>1502</ele>
        <time>2000-01-01T05:50:46.000Z</time>
      </trkpt>
      <trkpt lat="45.14079" lon="2.66858">
        <ele>1506</ele>
        <time>2000-01-01T05:50:56.000Z</time>
      </trkpt>
      <trkpt lat="45.14086" lon="2.66855">
        <ele>1503.9</ele>
        <time>2000-01-01T05:51:06.000Z</time>
      </trkpt>
      <trkpt lat="45.14097" lon="2.66852">
        <ele>1504</ele>
        <time>2000-01-01T05:51:16.000Z</time>
      </trkpt>
      <trkpt lat="45.14108" lon="2.66849">
        <ele>1509</ele>
        <time>2000-01-01T05:51:26.000Z</time>
      </trkpt>
      <trkpt lat="45.14115" lon="2.66848">
        <ele>1504</ele>
        <time>2000-01-01T05:51:36.000Z</time>
      </trkpt>
      <trkpt lat="45.14124" lon="2.66847">
        <ele>1504.3</ele>
        <time>2000-01-01T05:51:46.000Z</time>
      </trkpt>
      <trkpt lat="45.14129" lon="2.66847">
        <ele>1511</ele>
        <time>2000-01-01T05:51:56.000Z</time>
      </trkpt>
      <trkpt lat="45.14135" lon="2.66848">
        <ele>1504.9</ele>
        <time>2000-01-01T05:52:06.000Z</time>
      </trkpt>
      <trkpt lat="45.14139" lon="2.66849">
        <ele>1505.1</ele>
        <time>2000-01-01T05:52:16.000Z</time>
      </trkpt>
      <trkpt lat="45.14144" lon="2.66849">
        <ele>1505.6</ele>
        <time>2000-01-01T05:52:26.000Z</time>
      </trkpt>
      <trkpt lat="45.14151" lon="2.66849">
        <ele>1511</ele>
        <time>2000-01-01T05:52:36.000Z</time>
      </trkpt>
      <trkpt lat="45.14156" lon="2.66848">
        <ele>1507.3</ele>
        <time>2000-01-01T05:52:46.000Z</time>
      </trkpt>
      <trkpt lat="45.14161" lon="2.66847">
        <ele>1508.2</ele>
        <time>2000-01-01T05:52:56.000Z</time>
      </trkpt>
      <trkpt lat="45.14168" lon="2.66846">
        <ele>1507.1</ele>
        <time>2000-01-01T05:53:06.000Z</time>
      </trkpt>
      <trkpt lat="45.14176" lon="2.66845">
        <ele>1510</ele>
        <time>2000-01-01T05:53:16.000Z</time>
      </trkpt>
      <trkpt lat="45.14183" lon="2.66844">
        <ele>1504.8</ele>
        <time>2000-01-01T05:53:26.000Z</time>
      </trkpt>
      <trkpt lat="45.14188" lon="2.66843">
        <ele>1503.8</ele>
        <time>2000-01-01T05:53:36.000Z</time>
      </trkpt>
      <trkpt lat="45.14193" lon="2.66842">
        <ele>1503</ele>
        <time>2000-01-01T05:53:46.000Z</time>
      </trkpt>
      <trkpt lat="45.14197" lon="2.6684">
        <ele>1511</ele>
        <time>2000-01-01T05:53:56.000Z</time>
      </trkpt>
      <trkpt lat="45.14204" lon="2.66837">
        <ele>1502</ele>
        <time>2000-01-01T05:54:06.000Z</time>
      </trkpt>
      <trkpt lat="45.14206" lon="2.66836">
        <ele>1501.9</ele>
        <time>2000-01-01T05:54:16.000Z</time>
      </trkpt>
      <trkpt lat="45.14211" lon="2.66834">
        <ele>1501.7</ele>
        <time>2000-01-01T05:54:26.000Z</time>
      </trkpt>
      <trkpt lat="45.14219" lon="2.6683">
        <ele>1513</ele>
        <time>2000-01-01T05:54:36.000Z</time>
      </trkpt>
      <trkpt lat="45.14226" lon="2.66825">
        <ele>1510.4</ele>
        <time>2000-01-01T05:54:46.000Z</time>
      </trkpt>
      <trkpt lat="45.14238" lon="2.66818">
        <ele>1513</ele>
        <time>2000-01-01T05:54:56.000Z</time>
      </trkpt>
      <trkpt lat="45.14247" lon="2.66812">
        <ele>1509.9</ele>
        <time>2000-01-01T05:55:06.000Z</time>
      </trkpt>
      <trkpt lat="45.14254" lon="2.66808">
        <ele>1505.6</ele>
        <time>2000-01-01T05:55:16.000Z</time>
      </trkpt>
      <trkpt lat="45.14267" lon="2.668">
        <ele>1512</ele>
        <time>2000-01-01T05:55:26.000Z</time>
      </trkpt>
      <trkpt lat="45.14275" lon="2.66796">
        <ele>1504.6</ele>
        <time>2000-01-01T05:55:36.000Z</time>
      </trkpt>
      <trkpt lat="45.14289" lon="2.66787">
        <ele>1512</ele>
        <time>2000-01-01T05:55:46.000Z</time>
      </trkpt>
      <trkpt lat="45.14299" lon="2.66782">
        <ele>1503.9</ele>
        <time>2000-01-01T05:55:56.000Z</time>
      </trkpt>
      <trkpt lat="45.14307" lon="2.66779">
        <ele>1510</ele>
        <time>2000-01-01T05:56:06.000Z</time>
      </trkpt>
      <trkpt lat="45.14315" lon="2.66775">
        <ele>1504</ele>
        <time>2000-01-01T05:56:16.000Z</time>
      </trkpt>
      <trkpt lat="45.14322" lon="2.66774">
        <ele>1504</ele>
        <time>2000-01-01T05:56:26.000Z</time>
      </trkpt>
      <trkpt lat="45.14329" lon="2.66772">
        <ele>1507</ele>
        <time>2000-01-01T05:56:36.000Z</time>
      </trkpt>
      <trkpt lat="45.14333" lon="2.66772">
        <ele>1504.2</ele>
        <time>2000-01-01T05:56:46.000Z</time>
      </trkpt>
      <trkpt lat="45.14338" lon="2.6677">
        <ele>1500.7</ele>
        <time>2000-01-01T05:56:56.000Z</time>
      </trkpt>
      <trkpt lat="45.14343" lon="2.66769">
        <ele>1500.6</ele>
        <time>2000-01-01T05:57:06.000Z</time>
      </trkpt>
      <trkpt lat="45.14348" lon="2.66768">
        <ele>1506</ele>
        <time>2000-01-01T05:57:16.000Z</time>
      </trkpt>
      <trkpt lat="45.14356" lon="2.66766">
        <ele>1499.7</ele>
        <time>2000-01-01T05:57:26.000Z</time>
      </trkpt>
      <trkpt lat="45.14365" lon="2.66765">
        <ele>1499</ele>
        <time>2000-01-01T05:57:36.000Z</time>
      </trkpt>
      <trkpt lat="45.1437" lon="2.66766">
        <ele>1504</ele>
        <time>2000-01-01T05:57:46.000Z</time>
      </trkpt>
      <trkpt lat="45.14376" lon="2.66766">
        <ele>1498.3</ele>
        <time>2000-01-01T05:57:56.000Z</time>
      </trkpt>
      <trkpt lat="45.14382" lon="2.66766">
        <ele>1498.2</ele>
        <time>2000-01-01T05:58:06.000Z</time>
      </trkpt>
      <trkpt lat="45.14388" lon="2.66766">
        <ele>1498.1</ele>
        <time>2000-01-01T05:58:16.000Z</time>
      </trkpt>
      <trkpt lat="45.14393" lon="2.66766">
        <ele>1503</ele>
        <time>2000-01-01T05:58:26.000Z</time>
      </trkpt>
      <trkpt lat="45.14399" lon="2.66766">
        <ele>1498.4</ele>
        <time>2000-01-01T05:58:36.000Z</time>
      </trkpt>
      <trkpt lat="45.14405" lon="2.66765">
        <ele>1498.7</ele>
        <time>2000-01-01T05:58:46.000Z</time>
      </trkpt>
      <trkpt lat="45.14416" lon="2.66762">
        <ele>1503</ele>
        <time>2000-01-01T05:58:56.000Z</time>
      </trkpt>
      <trkpt lat="45.14426" lon="2.6676">
        <ele>1497.9</ele>
        <time>2000-01-01T05:59:06.000Z</time>
      </trkpt>
      <trkpt lat="45.14434" lon="2.66759">
        <ele>1496.9</ele>
        <time>2000-01-01T05:59:16.000Z</time>
      </trkpt>
      <trkpt lat="45.14444" lon="2.66757">
        <ele>1503</ele>
        <time>2000-01-01T05:59:26.000Z</time>
      </trkpt>
      <trkpt lat="45.14458" lon="2.66754">
        <ele>1495.2</ele>
        <time>2000-01-01T05:59:36.000Z</time>
      </trkpt>
      <trkpt lat="45.14469" lon="2.66753">
        <ele>1504</ele>
        <time>2000-01-01T05:59:46.000Z</time>
      </trkpt>
      <trkpt lat="45.1448" lon="2.66752">
        <ele>1495.5</ele>
        <time>2000-01-01T05:59:56.000Z</time>
      </trkpt>
      <trkpt lat="45.14487" lon="2.66752">
        <ele>1496</ele>
        <time>2000-01-01T06:00:06.000Z</time>
      </trkpt>
      <trkpt lat="45.14491" lon="2.66752">
        <ele>1496.4</ele>
        <time>2000-01-01T06:00:16.000Z</time>
      </trkpt>
      <trkpt lat="45.14491" lon="2.66757">
        <ele>1496</ele>
        <time>2000-01-01T06:00:26.000Z</time>
      </trkpt>
      <trkpt lat="45.14491" lon="2.66757">
        <ele>1496</ele>
        <time>2000-01-01T06:00:36.000Z</time>
      </trkpt>
      <trkpt lat="45.14491" lon="2.66752">
        <ele>1496</ele>
        <time>2000-01-01T06:00:46.000Z</time>
      </trkpt>
      <trkpt lat="45.14495" lon="2.66753">
        <ele>1496.9</ele>
        <time>2000-01-01T06:00:56.000Z</time>
      </trkpt>
      <trkpt lat="45.14501" lon="2.66753">
        <ele>1497.3</ele>
        <time>2000-01-01T06:01:06.000Z</time>
      </trkpt>
      <trkpt lat="45.14507" lon="2.66754">
        <ele>1504</ele>
        <time>2000-01-01T06:01:16.000Z</time>
      </trkpt>
      <trkpt lat="45.14513" lon="2.66755">
        <ele>1495.8</ele>
        <time>2000-01-01T06:01:26.000Z</time>
      </trkpt>
      <trkpt lat="45.14521" lon="2.66755">
        <ele>1495.2</ele>
        <time>2000-01-01T06:01:36.000Z</time>
      </trkpt>
      <trkpt lat="45.1453" lon="2.66756">
        <ele>1504</ele>
        <time>2000-01-01T06:01:46.000Z</time>
      </trkpt>
      <trkpt lat="45.14539" lon="2.66756">
        <ele>1494.8</ele>
        <time>2000-01-01T06:01:56.000Z</time>
      </trkpt>
      <trkpt lat="45.14543" lon="2.66757">
        <ele>1494.8</ele>
        <time>2000-01-01T06:02:06.000Z</time>
      </trkpt>
      <trkpt lat="45.14549" lon="2.66758">
        <ele>1504</ele>
        <time>2000-01-01T06:02:16.000Z</time>
      </trkpt>
      <trkpt lat="45.1456" lon="2.6676">
        <ele>1495.3</ele>
        <time>2000-01-01T06:02:26.000Z</time>
      </trkpt>
      <trkpt lat="45.14565" lon="2.66761">
        <ele>1495.6</ele>
        <time>2000-01-01T06:02:36.000Z</time>
      </trkpt>
      <trkpt lat="45.14576" lon="2.66763">
        <ele>1504</ele>
        <time>2000-01-01T06:02:46.000Z</time>
      </trkpt>
      <trkpt lat="45.14582" lon="2.66774">
        <ele>1495</ele>
        <time>2000-01-01T06:02:56.000Z</time>
      </trkpt>
      <trkpt lat="45.14585" lon="2.6678">
        <ele>1499.5</ele>
        <time>2000-01-01T06:03:06.000Z</time>
      </trkpt>
      <trkpt lat="45.14596" lon="2.66791">
        <ele>1502</ele>
        <time>2000-01-01T06:03:16.000Z</time>
      </trkpt>
      <trkpt lat="45.1461" lon="2.66803">
        <ele>1499.3</ele>
        <time>2000-01-01T06:03:26.000Z</time>
      </trkpt>
      <trkpt lat="45.14617" lon="2.6681">
        <ele>1500</ele>
        <time>2000-01-01T06:03:36.000Z</time>
      </trkpt>
      <trkpt lat="45.14621" lon="2.66812">
        <ele>1499.9</ele>
        <time>2000-01-01T06:03:46.000Z</time>
      </trkpt>
      <trkpt lat="45.14624" lon="2.66813">
        <ele>1500.2</ele>
        <time>2000-01-01T06:03:56.000Z</time>
      </trkpt>
      <trkpt lat="45.14631" lon="2.66821">
        <ele>1500.7</ele>
        <time>2000-01-01T06:04:06.000Z</time>
      </trkpt>
      <trkpt lat="45.14634" lon="2.66824">
        <ele>1498</ele>
        <time>2000-01-01T06:04:16.000Z</time>
      </trkpt>
      <trkpt lat="45.14641" lon="2.66833">
        <ele>1501.5</ele>
        <time>2000-01-01T06:04:26.000Z</time>
      </trkpt>
      <trkpt lat="45.14652" lon="2.66841">
        <ele>1497</ele>
        <time>2000-01-01T06:04:36.000Z</time>
      </trkpt>
      <trkpt lat="45.14662" lon="2.66851">
        <ele>1492.7</ele>
        <time>2000-01-01T06:04:46.000Z</time>
      </trkpt>
      <trkpt lat="45.1467" lon="2.66857">
        <ele>1497</ele>
        <time>2000-01-01T06:04:56.000Z</time>
      </trkpt>
      <trkpt lat="45.14682" lon="2.66867">
        <ele>1498.8</ele>
        <time>2000-01-01T06:05:06.000Z</time>
      </trkpt>
      <trkpt lat="45.14692" lon="2.66877">
        <ele>1497</ele>
        <time>2000-01-01T06:05:16.000Z</time>
      </trkpt>
      <trkpt lat="45.14699" lon="2.66887">
        <ele>1496.8</ele>
        <time>2000-01-01T06:05:26.000Z</time>
      </trkpt>
      <trkpt lat="45.14707" lon="2.66894">
        <ele>1497</ele>
        <time>2000-01-01T06:05:36.000Z</time>
      </trkpt>
      <trkpt lat="45.14726" lon="2.6691">
        <ele>1494</ele>
        <time>2000-01-01T06:05:46.000Z</time>
      </trkpt>
      <trkpt lat="45.1474" lon="2.66918">
        <ele>1490</ele>
        <time>2000-01-01T06:05:56.000Z</time>
      </trkpt>
      <trkpt lat="45.14756" lon="2.66927">
        <ele>1492</ele>
        <time>2000-01-01T06:06:06.000Z</time>
      </trkpt>
      <trkpt lat="45.14744" lon="2.66934">
        <ele>1485.2</ele>
        <time>2000-01-01T06:06:16.000Z</time>
      </trkpt>
      <trkpt lat="45.14718" lon="2.66929">
        <ele>1485</ele>
        <time>2000-01-01T06:06:26.000Z</time>
      </trkpt>
      <trkpt lat="45.1469" lon="2.66925">
        <ele>1474</ele>
        <time>2000-01-01T06:06:36.000Z</time>
      </trkpt>
      <trkpt lat="45.14659" lon="2.66912">
        <ele>1471</ele>
        <time>2000-01-01T06:06:46.000Z</time>
      </trkpt>
      <trkpt lat="45.14635" lon="2.66895">
        <ele>1469</ele>
        <time>2000-01-01T06:06:56.000Z</time>
      </trkpt>
      <trkpt lat="45.14609" lon="2.66888">
        <ele>1465</ele>
        <time>2000-01-01T06:07:06.000Z</time>
      </trkpt>
      <trkpt lat="45.14581" lon="2.66888">
        <ele>1462</ele>
        <time>2000-01-01T06:07:16.000Z</time>
      </trkpt>
      <trkpt lat="45.14553" lon="2.6689">
        <ele>1457</ele>
        <time>2000-01-01T06:07:26.000Z</time>
      </trkpt>
      <trkpt lat="45.14535" lon="2.66895">
        <ele>1466.2</ele>
        <time>2000-01-01T06:07:36.000Z</time>
      </trkpt>
      <trkpt lat="45.14505" lon="2.66895">
        <ele>1450</ele>
        <time>2000-01-01T06:07:46.000Z</time>
      </trkpt>
      <trkpt lat="45.14475" lon="2.66909">
        <ele>1446</ele>
        <time>2000-01-01T06:07:56.000Z</time>
      </trkpt>
      <trkpt lat="45.14442" lon="2.66941">
        <ele>1435</ele>
        <time>2000-01-01T06:08:06.000Z</time>
      </trkpt>
      <trkpt lat="45.1445" lon="2.66977">
        <ele>1428</ele>
        <time>2000-01-01T06:08:16.000Z</time>
      </trkpt>
      <trkpt lat="45.14459" lon="2.67019">
        <ele>1418</ele>
        <time>2000-01-01T06:08:26.000Z</time>
      </trkpt>
      <trkpt lat="45.14463" lon="2.67054">
        <ele>1405</ele>
        <time>2000-01-01T06:08:36.000Z</time>
      </trkpt>
      <trkpt lat="45.14468" lon="2.67092">
        <ele>1394</ele>
        <time>2000-01-01T06:08:46.000Z</time>
      </trkpt>
      <trkpt lat="45.14472" lon="2.67128">
        <ele>1386</ele>
        <time>2000-01-01T06:08:56.000Z</time>
      </trkpt>
      <trkpt lat="45.14477" lon="2.67169">
        <ele>1377</ele>
        <time>2000-01-01T06:09:06.000Z</time>
      </trkpt>
      <trkpt lat="45.14449" lon="2.67193">
        <ele>1371</ele>
        <time>2000-01-01T06:09:16.000Z</time>
      </trkpt>
      <trkpt lat="45.14424" lon="2.67206">
        <ele>1368</ele>
        <time>2000-01-01T06:09:26.000Z</time>
      </trkpt>
      <trkpt lat="45.14406" lon="2.67218">
        <ele>1366</ele>
        <time>2000-01-01T06:09:36.000Z</time>
      </trkpt>
      <trkpt lat="45.14395" lon="2.6723">
        <ele>1373.6</ele>
        <time>2000-01-01T06:09:46.000Z</time>
      </trkpt>
      <trkpt lat="45.14364" lon="2.67266">
        <ele>1353</ele>
        <time>2000-01-01T06:09:56.000Z</time>
      </trkpt>
      <trkpt lat="45.14347" lon="2.67285">
        <ele>1349</ele>
        <time>2000-01-01T06:10:06.000Z</time>
      </trkpt>
      <trkpt lat="45.1433" lon="2.67301">
        <ele>1345</ele>
        <time>2000-01-01T06:10:16.000Z</time>
      </trkpt>
      <trkpt lat="45.14309" lon="2.67324">
        <ele>1343</ele>
        <time>2000-01-01T06:10:26.000Z</time>
      </trkpt>
      <trkpt lat="45.14299" lon="2.67346">
        <ele>1345.8</ele>
        <time>2000-01-01T06:10:36.000Z</time>
      </trkpt>
      <trkpt lat="45.14285" lon="2.67367">
        <ele>1335</ele>
        <time>2000-01-01T06:10:46.000Z</time>
      </trkpt>
      <trkpt lat="45.14274" lon="2.67379">
        <ele>1344.3</ele>
        <time>2000-01-01T06:10:56.000Z</time>
      </trkpt>
      <trkpt lat="45.14259" lon="2.67383">
        <ele>1333</ele>
        <time>2000-01-01T06:11:06.000Z</time>
      </trkpt>
      <trkpt lat="45.14248" lon="2.67396">
        <ele>1353</ele>
        <time>2000-01-01T06:11:16.000Z</time>
      </trkpt>
      <trkpt lat="45.14246" lon="2.6742">
        <ele>1326</ele>
        <time>2000-01-01T06:11:26.000Z</time>
      </trkpt>
      <trkpt lat="45.14242" lon="2.67466">
        <ele>1318</ele>
        <time>2000-01-01T06:11:36.000Z</time>
      </trkpt>
      <trkpt lat="45.14237" lon="2.67523">
        <ele>1313</ele>
        <time>2000-01-01T06:11:46.000Z</time>
      </trkpt>
      <trkpt lat="45.14237" lon="2.67552">
        <ele>1309</ele>
        <time>2000-01-01T06:11:56.000Z</time>
      </trkpt>
      <trkpt lat="45.14233" lon="2.67575">
        <ele>1318.2</ele>
        <time>2000-01-01T06:12:06.000Z</time>
      </trkpt>
      <trkpt lat="45.14226" lon="2.67594">
        <ele>1304</ele>
        <time>2000-01-01T06:12:16.000Z</time>
      </trkpt>
      <trkpt lat="45.14226" lon="2.676">
        <ele>1306.5</ele>
        <time>2000-01-01T06:12:26.000Z</time>
      </trkpt>
      <trkpt lat="45.14242" lon="2.67594">
        <ele>1300</ele>
        <time>2000-01-01T06:12:36.000Z</time>
      </trkpt>
      <trkpt lat="45.14268" lon="2.67583">
        <ele>1298</ele>
        <time>2000-01-01T06:12:46.000Z</time>
      </trkpt>
      <trkpt lat="45.14292" lon="2.67583">
        <ele>1292</ele>
        <time>2000-01-01T06:12:56.000Z</time>
      </trkpt>
      <trkpt lat="45.14303" lon="2.67604">
        <ele>1296.9</ele>
        <time>2000-01-01T06:13:06.000Z</time>
      </trkpt>
      <trkpt lat="45.14322" lon="2.67628">
        <ele>1280</ele>
        <time>2000-01-01T06:13:16.000Z</time>
      </trkpt>
      <trkpt lat="45.14334" lon="2.67656">
        <ele>1273</ele>
        <time>2000-01-01T06:13:26.000Z</time>
      </trkpt>
      <trkpt lat="45.14324" lon="2.67679">
        <ele>1270</ele>
        <time>2000-01-01T06:13:36.000Z</time>
      </trkpt>
      <trkpt lat="45.14303" lon="2.67707">
        <ele>1265</ele>
        <time>2000-01-01T06:13:46.000Z</time>
      </trkpt>
      <trkpt lat="45.14274" lon="2.67735">
        <ele>1262</ele>
        <time>2000-01-01T06:13:56.000Z</time>
      </trkpt>
      <trkpt lat="45.14244" lon="2.67765">
        <ele>1258</ele>
        <time>2000-01-01T06:14:06.000Z</time>
      </trkpt>
      <trkpt lat="45.14233" lon="2.67773">
        <ele>1261.9</ele>
        <time>2000-01-01T06:14:16.000Z</time>
      </trkpt>
      <trkpt lat="45.14231" lon="2.67778">
        <ele>1261.2</ele>
        <time>2000-01-01T06:14:26.000Z</time>
      </trkpt>
      <trkpt lat="45.14213" lon="2.67812">
        <ele>1248</ele>
        <time>2000-01-01T06:14:36.000Z</time>
      </trkpt>
      <trkpt lat="45.14194" lon="2.67846">
        <ele>1242</ele>
        <time>2000-01-01T06:14:46.000Z</time>
      </trkpt>
      <trkpt lat="45.14175" lon="2.6787">
        <ele>1241</ele>
        <time>2000-01-01T06:14:56.000Z</time>
      </trkpt>
      <trkpt lat="45.14163" lon="2.6789">
        <ele>1251.4</ele>
        <time>2000-01-01T06:15:06.000Z</time>
      </trkpt>
      <trkpt lat="45.14155" lon="2.67915">
        <ele>1234</ele>
        <time>2000-01-01T06:15:16.000Z</time>
      </trkpt>
      <trkpt lat="45.14144" lon="2.67945">
        <ele>1233</ele>
        <time>2000-01-01T06:15:26.000Z</time>
      </trkpt>
      <trkpt lat="45.14138" lon="2.6798">
        <ele>1232</ele>
        <time>2000-01-01T06:15:36.000Z</time>
      </trkpt>
      <trkpt lat="45.14134" lon="2.68011">
        <ele>1232</ele>
        <time>2000-01-01T06:15:46.000Z</time>
      </trkpt>
      <trkpt lat="45.14138" lon="2.68034">
        <ele>1237.8</ele>
        <time>2000-01-01T06:15:56.000Z</time>
      </trkpt>
      <trkpt lat="45.14136" lon="2.68056">
        <ele>1231</ele>
        <time>2000-01-01T06:16:06.000Z</time>
      </trkpt>
      <trkpt lat="45.14134" lon="2.6809">
        <ele>1230</ele>
        <time>2000-01-01T06:16:16.000Z</time>
      </trkpt>
      <trkpt lat="45.14133" lon="2.68117">
        <ele>1230</ele>
        <time>2000-01-01T06:16:26.000Z</time>
      </trkpt>
      <trkpt lat="45.14146" lon="2.68145">
        <ele>1228</ele>
        <time>2000-01-01T06:16:36.000Z</time>
      </trkpt>
      <trkpt lat="45.1416" lon="2.6817">
        <ele>1227</ele>
        <time>2000-01-01T06:16:46.000Z</time>
      </trkpt>
      <trkpt lat="45.14171" lon="2.68204">
        <ele>1225</ele>
        <time>2000-01-01T06:16:56.000Z</time>
      </trkpt>
      <trkpt lat="45.14176" lon="2.68243">
        <ele>1225</ele>
        <time>2000-01-01T06:17:06.000Z</time>
      </trkpt>
      <trkpt lat="45.1418" lon="2.68272">
        <ele>1224</ele>
        <time>2000-01-01T06:17:16.000Z</time>
      </trkpt>
      <trkpt lat="45.14188" lon="2.68289">
        <ele>1229.3</ele>
        <time>2000-01-01T06:17:26.000Z</time>
      </trkpt>
      <trkpt lat="45.14202" lon="2.68308">
        <ele>1224</ele>
        <time>2000-01-01T06:17:36.000Z</time>
      </trkpt>
      <trkpt lat="45.14217" lon="2.68328">
        <ele>1224</ele>
        <time>2000-01-01T06:17:46.000Z</time>
      </trkpt>
      <trkpt lat="45.14222" lon="2.68353">
        <ele>1228.6</ele>
        <time>2000-01-01T06:17:56.000Z</time>
      </trkpt>
      <trkpt lat="45.14223" lon="2.68379">
        <ele>1225</ele>
        <time>2000-01-01T06:18:06.000Z</time>
      </trkpt>
      <trkpt lat="45.14228" lon="2.68411">
        <ele>1227</ele>
        <time>2000-01-01T06:18:16.000Z</time>
      </trkpt>
      <trkpt lat="45.14227" lon="2.68452">
        <ele>1228</ele>
        <time>2000-01-01T06:18:26.000Z</time>
      </trkpt>
      <trkpt lat="45.14223" lon="2.68466">
        <ele>1233.3</ele>
        <time>2000-01-01T06:18:36.000Z</time>
      </trkpt>
      <trkpt lat="45.14215" lon="2.68483">
        <ele>1230</ele>
        <time>2000-01-01T06:18:46.000Z</time>
      </trkpt>
      <trkpt lat="45.14211" lon="2.68493">
        <ele>1235</ele>
        <time>2000-01-01T06:18:56.000Z</time>
      </trkpt>
      <trkpt lat="45.14228" lon="2.68516">
        <ele>1230</ele>
        <time>2000-01-01T06:19:06.000Z</time>
      </trkpt>
      <trkpt lat="45.14247" lon="2.68539">
        <ele>1227</ele>
        <time>2000-01-01T06:19:16.000Z</time>
      </trkpt>
      <trkpt lat="45.14265" lon="2.68557">
        <ele>1225</ele>
        <time>2000-01-01T06:19:26.000Z</time>
      </trkpt>
      <trkpt lat="45.14286" lon="2.6857">
        <ele>1223</ele>
        <time>2000-01-01T06:19:36.000Z</time>
      </trkpt>
      <trkpt lat="45.14307" lon="2.68579">
        <ele>1223</ele>
        <time>2000-01-01T06:19:46.000Z</time>
      </trkpt>
      <trkpt lat="45.14322" lon="2.68594">
        <ele>1233.5</ele>
        <time>2000-01-01T06:19:56.000Z</time>
      </trkpt>
      <trkpt lat="45.14329" lon="2.68603">
        <ele>1223</ele>
        <time>2000-01-01T06:20:06.000Z</time>
      </trkpt>
      <trkpt lat="45.1434" lon="2.68621">
        <ele>1229.2</ele>
        <time>2000-01-01T06:20:16.000Z</time>
      </trkpt>
      <trkpt lat="45.14352" lon="2.68635">
        <ele>1223</ele>
        <time>2000-01-01T06:20:26.000Z</time>
      </trkpt>
      <trkpt lat="45.14353" lon="2.68636">
        <ele>1230</ele>
        <time>2000-01-01T06:20:36.000Z</time>
      </trkpt>
      <trkpt lat="45.14372" lon="2.68656">
        <ele>1223</ele>
        <time>2000-01-01T06:20:46.000Z</time>
      </trkpt>
      <trkpt lat="45.14395" lon="2.68684">
        <ele>1220</ele>
        <time>2000-01-01T06:20:56.000Z</time>
      </trkpt>
      <trkpt lat="45.14407" lon="2.68706">
        <ele>1219</ele>
        <time>2000-01-01T06:21:06.000Z</time>
      </trkpt>
      <trkpt lat="45.14415" lon="2.68723">
        <ele>1231.6</ele>
        <time>2000-01-01T06:21:16.000Z</time>
      </trkpt>
      <trkpt lat="45.14424" lon="2.68733">
        <ele>1216</ele>
        <time>2000-01-01T06:21:26.000Z</time>
      </trkpt>
      <trkpt lat="45.14441" lon="2.68744">
        <ele>1221.9</ele>
        <time>2000-01-01T06:21:36.000Z</time>
      </trkpt>
      <trkpt lat="45.1446" lon="2.68749">
        <ele>1211</ele>
        <time>2000-01-01T06:21:46.000Z</time>
      </trkpt>
      <trkpt lat="45.14484" lon="2.68754">
        <ele>1210</ele>
        <time>2000-01-01T06:21:56.000Z</time>
      </trkpt>
      <trkpt lat="45.145" lon="2.68753">
        <ele>1215.4</ele>
        <time>2000-01-01T06:22:06.000Z</time>
      </trkpt>
      <trkpt lat="45.14523" lon="2.68756">
        <ele>1206</ele>
        <time>2000-01-01T06:22:16.000Z</time>
      </trkpt>
      <trkpt lat="45.14528" lon="2.68758">
        <ele>1211.5</ele>
        <time>2000-01-01T06:22:26.000Z</time>
      </trkpt>
      <trkpt lat="45.14537" lon="2.68769">
        <ele>1210.6</ele>
        <time>2000-01-01T06:22:36.000Z</time>
      </trkpt>
      <trkpt lat="45.14549" lon="2.68782">
        <ele>1206</ele>
        <time>2000-01-01T06:22:46.000Z</time>
      </trkpt>
      <trkpt lat="45.14565" lon="2.68793">
        <ele>1209.2</ele>
        <time>2000-01-01T06:22:56.000Z</time>
      </trkpt>
      <trkpt lat="45.14584" lon="2.68802">
        <ele>1205</ele>
        <time>2000-01-01T06:23:06.000Z</time>
      </trkpt>
      <trkpt lat="45.14606" lon="2.6881">
        <ele>1204</ele>
        <time>2000-01-01T06:23:16.000Z</time>
      </trkpt>
      <trkpt lat="45.14646" lon="2.68832">
        <ele>1203</ele>
        <time>2000-01-01T06:23:26.000Z</time>
      </trkpt>
      <trkpt lat="45.14674" lon="2.68849">
        <ele>1202</ele>
        <time>2000-01-01T06:23:36.000Z</time>
      </trkpt>
      <trkpt lat="45.14702" lon="2.6887">
        <ele>1202</ele>
        <time>2000-01-01T06:23:46.000Z</time>
      </trkpt>
      <trkpt lat="45.14719" lon="2.68884">
        <ele>1202</ele>
        <time>2000-01-01T06:23:56.000Z</time>
      </trkpt>
      <trkpt lat="45.14737" lon="2.68903">
        <ele>1201</ele>
        <time>2000-01-01T06:24:06.000Z</time>
      </trkpt>
      <trkpt lat="45.14758" lon="2.68928">
        <ele>1201</ele>
        <time>2000-01-01T06:24:16.000Z</time>
      </trkpt>
      <trkpt lat="45.14783" lon="2.68958">
        <ele>1199</ele>
        <time>2000-01-01T06:24:26.000Z</time>
      </trkpt>
      <trkpt lat="45.14815" lon="2.68995">
        <ele>1197</ele>
        <time>2000-01-01T06:24:36.000Z</time>
      </trkpt>
      <trkpt lat="45.1484" lon="2.69023">
        <ele>1193</ele>
        <time>2000-01-01T06:24:46.000Z</time>
      </trkpt>
      <trkpt lat="45.14859" lon="2.69047">
        <ele>1192</ele>
        <time>2000-01-01T06:24:56.000Z</time>
      </trkpt>
      <trkpt lat="45.14881" lon="2.69075">
        <ele>1190</ele>
        <time>2000-01-01T06:25:06.000Z</time>
      </trkpt>
      <trkpt lat="45.14899" lon="2.69097">
        <ele>1190</ele>
        <time>2000-01-01T06:25:16.000Z</time>
      </trkpt>
      <trkpt lat="45.14918" lon="2.69119">
        <ele>1190</ele>
        <time>2000-01-01T06:25:26.000Z</time>
      </trkpt>
      <trkpt lat="45.14938" lon="2.69143">
        <ele>1190</ele>
        <time>2000-01-01T06:25:36.000Z</time>
      </trkpt>
      <trkpt lat="45.14957" lon="2.69165">
        <ele>1191</ele>
        <time>2000-01-01T06:25:46.000Z</time>
      </trkpt>
      <trkpt lat="45.14976" lon="2.69186">
        <ele>1191</ele>
        <time>2000-01-01T06:25:56.000Z</time>
      </trkpt>
      <trkpt lat="45.14995" lon="2.69207">
        <ele>1190</ele>
        <time>2000-01-01T06:26:06.000Z</time>
      </trkpt>
      <trkpt lat="45.15016" lon="2.69229">
        <ele>1189</ele>
        <time>2000-01-01T06:26:16.000Z</time>
      </trkpt>
      <trkpt lat="45.15052" lon="2.69261">
        <ele>1188</ele>
        <time>2000-01-01T06:26:26.000Z</time>
      </trkpt>
      <trkpt lat="45.15072" lon="2.69279">
        <ele>1186</ele>
        <time>2000-01-01T06:26:36.000Z</time>
      </trkpt>
      <trkpt lat="45.15093" lon="2.69297">
        <ele>1185</ele>
        <time>2000-01-01T06:26:46.000Z</time>
      </trkpt>
      <trkpt lat="45.15114" lon="2.69316">
        <ele>1183</ele>
        <time>2000-01-01T06:26:56.000Z</time>
      </trkpt>
      <trkpt lat="45.15136" lon="2.69336">
        <ele>1182</ele>
        <time>2000-01-01T06:27:06.000Z</time>
      </trkpt>
      <trkpt lat="45.15163" lon="2.69359">
        <ele>1178</ele>
        <time>2000-01-01T06:27:16.000Z</time>
      </trkpt>
      <trkpt lat="45.15187" lon="2.69375">
        <ele>1176</ele>
        <time>2000-01-01T06:27:26.000Z</time>
      </trkpt>
      <trkpt lat="45.15217" lon="2.69393">
        <ele>1174</ele>
        <time>2000-01-01T06:27:36.000Z</time>
      </trkpt>
      <trkpt lat="45.15251" lon="2.69411">
        <ele>1173</ele>
        <time>2000-01-01T06:27:46.000Z</time>
      </trkpt>
      <trkpt lat="45.15274" lon="2.69422">
        <ele>1172</ele>
        <time>2000-01-01T06:27:56.000Z</time>
      </trkpt>
      <trkpt lat="45.153" lon="2.69432">
        <ele>1172</ele>
        <time>2000-01-01T06:28:06.000Z</time>
      </trkpt>
      <trkpt lat="45.15332" lon="2.6944">
        <ele>1172</ele>
        <time>2000-01-01T06:28:16.000Z</time>
      </trkpt>
      <trkpt lat="45.15348" lon="2.69445">
        <ele>1171.3</ele>
        <time>2000-01-01T06:28:26.000Z</time>
      </trkpt>
      <trkpt lat="45.1536" lon="2.69451">
        <ele>1171</ele>
        <time>2000-01-01T06:28:36.000Z</time>
      </trkpt>
      <trkpt lat="45.15367" lon="2.69458">
        <ele>1171</ele>
        <time>2000-01-01T06:28:46.000Z</time>
      </trkpt>
      <trkpt lat="45.15374" lon="2.69467">
        <ele>1170.8</ele>
        <time>2000-01-01T06:28:56.000Z</time>
      </trkpt>
      <trkpt lat="45.1538" lon="2.69481">
        <ele>1170</ele>
        <time>2000-01-01T06:29:06.000Z</time>
      </trkpt>
      <trkpt lat="45.15395" lon="2.69514">
        <ele>1168</ele>
        <time>2000-01-01T06:29:16.000Z</time>
      </trkpt>
      <trkpt lat="45.154" lon="2.69524">
        <ele>1168.5</ele>
        <time>2000-01-01T06:29:26.000Z</time>
      </trkpt>
      <trkpt lat="45.15399" lon="2.69525">
        <ele>1168.5</ele>
        <time>2000-01-01T06:29:36.000Z</time>
      </trkpt>
      <trkpt lat="45.15399" lon="2.69525">
        <ele>1168.5</ele>
        <time>2000-01-01T06:29:46.000Z</time>
      </trkpt>
      <trkpt lat="45.154" lon="2.69524">
        <ele>1168.5</ele>
        <time>2000-01-01T06:29:56.000Z</time>
      </trkpt>
      <trkpt lat="45.15402" lon="2.69528">
        <ele>1168.4</ele>
        <time>2000-01-01T06:30:06.000Z</time>
      </trkpt>
      <trkpt lat="45.15395" lon="2.69559">
        <ele>1168</ele>
        <time>2000-01-01T06:30:16.000Z</time>
      </trkpt>
      <trkpt lat="45.15386" lon="2.69588">
        <ele>1169</ele>
        <time>2000-01-01T06:30:26.000Z</time>
      </trkpt>
      <trkpt lat="45.15377" lon="2.69603">
        <ele>1165.4</ele>
        <time>2000-01-01T06:30:36.000Z</time>
      </trkpt>
      <trkpt lat="45.15368" lon="2.6961">
        <ele>1169</ele>
        <time>2000-01-01T06:30:46.000Z</time>
      </trkpt>
      <trkpt lat="45.15353" lon="2.69615">
        <ele>1166.2</ele>
        <time>2000-01-01T06:30:56.000Z</time>
      </trkpt>
      <trkpt lat="45.15344" lon="2.6962">
        <ele>1170</ele>
        <time>2000-01-01T06:31:06.000Z</time>
      </trkpt>
      <trkpt lat="45.1533" lon="2.69628">
        <ele>1168.6</ele>
        <time>2000-01-01T06:31:16.000Z</time>
      </trkpt>
      <trkpt lat="45.15312" lon="2.69631">
        <ele>1170</ele>
        <time>2000-01-01T06:31:26.000Z</time>
      </trkpt>
      <trkpt lat="45.15299" lon="2.69629">
        <ele>1169</ele>
        <time>2000-01-01T06:31:36.000Z</time>
      </trkpt>
      <trkpt lat="45.15277" lon="2.69619">
        <ele>1170</ele>
        <time>2000-01-01T06:31:46.000Z</time>
      </trkpt>
      <trkpt lat="45.15274" lon="2.69616">
        <ele>1169.9</ele>
        <time>2000-01-01T06:31:56.000Z</time>
      </trkpt>
      <trkpt lat="45.15276" lon="2.69609">
        <ele>1170.2</ele>
        <time>2000-01-01T06:32:06.000Z</time>
      </trkpt>
      <trkpt lat="45.15276" lon="2.69609">
        <ele>1170.2</ele>
        <time>2000-01-01T06:32:16.000Z</time>
      </trkpt>
      <trkpt lat="45.15274" lon="2.69616">
        <ele>1169.9</ele>
        <time>2000-01-01T06:32:26.000Z</time>
      </trkpt>
      <trkpt lat="45.15272" lon="2.69616">
        <ele>1170</ele>
        <time>2000-01-01T06:32:36.000Z</time>
      </trkpt>
      <trkpt lat="45.1527" lon="2.69624">
        <ele>1168</ele>
        <time>2000-01-01T06:32:46.000Z</time>
      </trkpt>
      <trkpt lat="45.15272" lon="2.69636">
        <ele>1169</ele>
        <time>2000-01-01T06:32:56.000Z</time>
      </trkpt>
      <trkpt lat="45.15282" lon="2.69669">
        <ele>1166</ele>
        <time>2000-01-01T06:33:06.000Z</time>
      </trkpt>
      <trkpt lat="45.15294" lon="2.69695">
        <ele>1163</ele>
        <time>2000-01-01T06:33:16.000Z</time>
      </trkpt>
      <trkpt lat="45.15313" lon="2.69724">
        <ele>1162</ele>
        <time>2000-01-01T06:33:26.000Z</time>
      </trkpt>
      <trkpt lat="45.15319" lon="2.69739">
        <ele>1157.8</ele>
        <time>2000-01-01T06:33:36.000Z</time>
      </trkpt>
      <trkpt lat="45.15321" lon="2.69742">
        <ele>1157.8</ele>
        <time>2000-01-01T06:33:46.000Z</time>
      </trkpt>
      <trkpt lat="45.15348" lon="2.69774">
        <ele>1160</ele>
        <time>2000-01-01T06:33:56.000Z</time>
      </trkpt>
      <trkpt lat="45.15366" lon="2.69805">
        <ele>1160</ele>
        <time>2000-01-01T06:34:06.000Z</time>
      </trkpt>
      <trkpt lat="45.15383" lon="2.69831">
        <ele>1156</ele>
        <time>2000-01-01T06:34:16.000Z</time>
      </trkpt>
      <trkpt lat="45.15403" lon="2.69861">
        <ele>1153</ele>
        <time>2000-01-01T06:34:26.000Z</time>
      </trkpt>
      <trkpt lat="45.15417" lon="2.69886">
        <ele>1148</ele>
        <time>2000-01-01T06:34:36.000Z</time>
      </trkpt>
      <trkpt lat="45.15432" lon="2.69899">
        <ele>1147.5</ele>
        <time>2000-01-01T06:34:46.000Z</time>
      </trkpt>
      <trkpt lat="45.15458" lon="2.69903">
        <ele>1148</ele>
        <time>2000-01-01T06:34:56.000Z</time>
      </trkpt>
      <trkpt lat="45.15481" lon="2.69907">
        <ele>1146</ele>
        <time>2000-01-01T06:35:06.000Z</time>
      </trkpt>
      <trkpt lat="45.15505" lon="2.69916">
        <ele>1144</ele>
        <time>2000-01-01T06:35:16.000Z</time>
      </trkpt>
      <trkpt lat="45.15527" lon="2.69913">
        <ele>1142</ele>
        <time>2000-01-01T06:35:26.000Z</time>
      </trkpt>
      <trkpt lat="45.15544" lon="2.69917">
        <ele>1130</ele>
        <time>2000-01-01T06:35:36.000Z</time>
      </trkpt>
      <trkpt lat="45.15581" lon="2.6993">
        <ele>1128</ele>
        <time>2000-01-01T06:35:46.000Z</time>
      </trkpt>
      <trkpt lat="45.15621" lon="2.69944">
        <ele>1122</ele>
        <time>2000-01-01T06:35:56.000Z</time>
      </trkpt>
      <trkpt lat="45.15651" lon="2.69953">
        <ele>1116</ele>
        <time>2000-01-01T06:36:06.000Z</time>
      </trkpt>
      <trkpt lat="45.15686" lon="2.69961">
        <ele>1112</ele>
        <time>2000-01-01T06:36:16.000Z</time>
      </trkpt>
      <trkpt lat="45.15707" lon="2.69967">
        <ele>1109</ele>
        <time>2000-01-01T06:36:26.000Z</time>
      </trkpt>
      <trkpt lat="45.15726" lon="2.69975">
        <ele>1106</ele>
        <time>2000-01-01T06:36:36.000Z</time>
      </trkpt>
      <trkpt lat="45.15754" lon="2.69994">
        <ele>1103</ele>
        <time>2000-01-01T06:36:46.000Z</time>
      </trkpt>
      <trkpt lat="45.15766" lon="2.70014">
        <ele>1113.6</ele>
        <time>2000-01-01T06:36:56.000Z</time>
      </trkpt>
      <trkpt lat="45.15774" lon="2.70032">
        <ele>1095</ele>
        <time>2000-01-01T06:37:06.000Z</time>
      </trkpt>
      <trkpt lat="45.15743" lon="2.70021">
        <ele>1091</ele>
        <time>2000-01-01T06:37:16.000Z</time>
      </trkpt>
      <trkpt lat="45.15716" lon="2.70011">
        <ele>1091</ele>
        <time>2000-01-01T06:37:26.000Z</time>
      </trkpt>
      <trkpt lat="45.15693" lon="2.70007">
        <ele>1087</ele>
        <time>2000-01-01T06:37:36.000Z</time>
      </trkpt>
      <trkpt lat="45.15676" lon="2.70011">
        <ele>1098.5</ele>
        <time>2000-01-01T06:37:46.000Z</time>
      </trkpt>
      <trkpt lat="45.15663" lon="2.70021">
        <ele>1084</ele>
        <time>2000-01-01T06:37:56.000Z</time>
      </trkpt>
      <trkpt lat="45.15686" lon="2.70042">
        <ele>1080</ele>
        <time>2000-01-01T06:38:06.000Z</time>
      </trkpt>
      <trkpt lat="45.15699" lon="2.70066">
        <ele>1075</ele>
        <time>2000-01-01T06:38:16.000Z</time>
      </trkpt>
      <trkpt lat="45.15714" lon="2.70103">
        <ele>1066</ele>
        <time>2000-01-01T06:38:26.000Z</time>
      </trkpt>
      <trkpt lat="45.15722" lon="2.7013">
        <ele>1063</ele>
        <time>2000-01-01T06:38:36.000Z</time>
      </trkpt>
      <trkpt lat="45.15726" lon="2.70142">
        <ele>1067.5</ele>
        <time>2000-01-01T06:38:46.000Z</time>
      </trkpt>
      <trkpt lat="45.15731" lon="2.70177">
        <ele>1056</ele>
        <time>2000-01-01T06:38:56.000Z</time>
      </trkpt>
      <trkpt lat="45.15734" lon="2.70206">
        <ele>1052</ele>
        <time>2000-01-01T06:39:06.000Z</time>
      </trkpt>
      <trkpt lat="45.15736" lon="2.70243">
        <ele>1047</ele>
        <time>2000-01-01T06:39:16.000Z</time>
      </trkpt>
      <trkpt lat="45.15736" lon="2.70277">
        <ele>1043</ele>
        <time>2000-01-01T06:39:26.000Z</time>
      </trkpt>
      <trkpt lat="45.15738" lon="2.703">
        <ele>1043</ele>
        <time>2000-01-01T06:39:36.000Z</time>
      </trkpt>
      <trkpt lat="45.15741" lon="2.70328">
        <ele>1042</ele>
        <time>2000-01-01T06:39:46.000Z</time>
      </trkpt>
      <trkpt lat="45.15745" lon="2.70325">
        <ele>1042.2</ele>
        <time>2000-01-01T06:39:56.000Z</time>
      </trkpt>
      <trkpt lat="45.15752" lon="2.70324">
        <ele>1044.1</ele>
        <time>2000-01-01T06:40:06.000Z</time>
      </trkpt>
      <trkpt lat="45.1576" lon="2.70329">
        <ele>1041</ele>
        <time>2000-01-01T06:40:16.000Z</time>
      </trkpt>
      <trkpt lat="45.15765" lon="2.70336">
        <ele>1042.1</ele>
        <time>2000-01-01T06:40:26.000Z</time>
      </trkpt>
      <trkpt lat="45.15771" lon="2.70349">
        <ele>1042.1</ele>
        <time>2000-01-01T06:40:36.000Z</time>
      </trkpt>
      <trkpt lat="45.15772" lon="2.70354">
        <ele>1041</ele>
        <time>2000-01-01T06:40:46.000Z</time>
      </trkpt>
      <trkpt lat="45.15776" lon="2.70365">
        <ele>1041.9</ele>
        <time>2000-01-01T06:40:56.000Z</time>
      </trkpt>
      <trkpt lat="45.15782" lon="2.70375">
        <ele>1041.7</ele>
        <time>2000-01-01T06:41:06.000Z</time>
      </trkpt>
      <trkpt lat="45.15792" lon="2.70385">
        <ele>1041</ele>
        <time>2000-01-01T06:41:16.000Z</time>
      </trkpt>
      <trkpt lat="45.158" lon="2.70396">
        <ele>1041.7</ele>
        <time>2000-01-01T06:41:26.000Z</time>
      </trkpt>
      <trkpt lat="45.15809" lon="2.70411">
        <ele>1040</ele>
        <time>2000-01-01T06:41:36.000Z</time>
      </trkpt>
      <trkpt lat="45.15817" lon="2.70432">
        <ele>1040</ele>
        <time>2000-01-01T06:41:46.000Z</time>
      </trkpt>
      <trkpt lat="45.15833" lon="2.70473">
        <ele>1040</ele>
        <time>2000-01-01T06:41:56.000Z</time>
      </trkpt>
      <trkpt lat="45.1584" lon="2.70492">
        <ele>1041</ele>
        <time>2000-01-01T06:42:06.000Z</time>
      </trkpt>
      <trkpt lat="45.15849" lon="2.70491">
        <ele>1040</ele>
        <time>2000-01-01T06:42:16.000Z</time>
      </trkpt>
      <trkpt lat="45.15852" lon="2.70496">
        <ele>1041.5</ele>
        <time>2000-01-01T06:42:26.000Z</time>
      </trkpt>
      <trkpt lat="45.1586" lon="2.70502">
        <ele>1040.3</ele>
        <time>2000-01-01T06:42:36.000Z</time>
      </trkpt>
      <trkpt lat="45.15869" lon="2.70506">
        <ele>1040</ele>
        <time>2000-01-01T06:42:46.000Z</time>
      </trkpt>
      <trkpt lat="45.15881" lon="2.70508">
        <ele>1040.7</ele>
        <time>2000-01-01T06:42:56.000Z</time>
      </trkpt>
      <trkpt lat="45.15892" lon="2.70509">
        <ele>1039</ele>
        <time>2000-01-01T06:43:06.000Z</time>
      </trkpt>
      <trkpt lat="45.1589" lon="2.70522">
        <ele>1040.6</ele>
        <time>2000-01-01T06:43:16.000Z</time>
      </trkpt>
      <trkpt lat="45.15886" lon="2.70549">
        <ele>1039</ele>
        <time>2000-01-01T06:43:26.000Z</time>
      </trkpt>
      <trkpt lat="45.15884" lon="2.70568">
        <ele>1039.5</ele>
        <time>2000-01-01T06:43:36.000Z</time>
      </trkpt>
      <trkpt lat="45.15884" lon="2.70568">
        <ele>1039.5</ele>
        <time>2000-01-01T06:43:46.000Z</time>
      </trkpt>
      <trkpt lat="45.15889" lon="2.70584">
        <ele>1039</ele>
        <time>2000-01-01T06:43:56.000Z</time>
      </trkpt>
      <trkpt lat="45.15886" lon="2.70582">
        <ele>1039</ele>
        <time>2000-01-01T06:44:06.000Z</time>
      </trkpt>
    </trkseg>
  </trk>
</gpx>